<?xml version="1.0" encoding="UTF-8" standalone="no" ?>
<gpx xmlns="http://www.topografix.com/GPX/1/1" xmlns:xsi="http://www.w3.org/2001/XMLSchema-instance" xsi:schemaLocation="http://www.topografix.com/GPX/1/1 http://www.topografix.com/GPX/1/1/gpx.xsd" version="1.1" creator="VisuGPX - https://www.visugpx.com">
  <metadata>
    <name>Hourquette   1 2 </name>
    <desc><![CDATA[bxbxjkkkqozsioeiriririfkdfêr,uaeoigvdèolgvpçèzej<bhreçà<ujbp]]></desc>
  </metadata>
  <trk>
    <name><![CDATA[20190117191326-mZp2g]]></name>
    <trkseg>
      <trkpt lat="42.87312" lon="-0.00317">
        <ele>716</ele>
        <time>2019-01-17T19:12:03Z</time>
      </trkpt>
      <trkpt lat="42.87297" lon="-0.00297">
        <ele>718</ele>
        <time>2019-01-17T19:13:03Z</time>
      </trkpt>
      <trkpt lat="42.87229" lon="-0.00176">
        <ele>728</ele>
        <time>2019-01-17T19:14:03Z</time>
      </trkpt>
      <trkpt lat="42.87238" lon="-0.00139">
        <ele>728</ele>
        <time>2019-01-17T19:15:03Z</time>
      </trkpt>
      <trkpt lat="42.87262" lon="-0.00053">
        <ele>730</ele>
        <time>2019-01-17T19:16:03Z</time>
      </trkpt>
      <trkpt lat="42.87412" lon="0.00496">
        <ele>746</ele>
        <time>2019-01-17T19:17:03Z</time>
      </trkpt>
      <trkpt lat="42.87425" lon="0.00526">
        <ele>748</ele>
        <time>2019-01-17T19:18:03Z</time>
      </trkpt>
      <trkpt lat="42.87605" lon="0.00793">
        <ele>773</ele>
        <time>2019-01-17T19:19:03Z</time>
      </trkpt>
      <trkpt lat="42.87663" lon="0.00877">
        <ele>779</ele>
        <time>2019-01-17T19:20:03Z</time>
      </trkpt>
      <trkpt lat="42.87674" lon="0.00896">
        <ele>782</ele>
        <time>2019-01-17T19:21:03Z</time>
      </trkpt>
      <trkpt lat="42.87683" lon="0.00916">
        <ele>784</ele>
        <time>2019-01-17T19:22:03Z</time>
      </trkpt>
      <trkpt lat="42.87728" lon="0.0106">
        <ele>791</ele>
        <time>2019-01-17T19:23:03Z</time>
      </trkpt>
      <trkpt lat="42.87763" lon="0.0115">
        <ele>798</ele>
        <time>2019-01-17T19:24:03Z</time>
      </trkpt>
      <trkpt lat="42.87796" lon="0.01243">
        <ele>806</ele>
        <time>2019-01-17T19:25:03Z</time>
      </trkpt>
      <trkpt lat="42.87807" lon="0.0128">
        <ele>806</ele>
        <time>2019-01-17T19:26:03Z</time>
      </trkpt>
      <trkpt lat="42.87815" lon="0.01321">
        <ele>807</ele>
        <time>2019-01-17T19:27:03Z</time>
      </trkpt>
      <trkpt lat="42.87819" lon="0.01514">
        <ele>818</ele>
        <time>2019-01-17T19:28:03Z</time>
      </trkpt>
      <trkpt lat="42.87821" lon="0.01568">
        <ele>819</ele>
        <time>2019-01-17T19:29:03Z</time>
      </trkpt>
      <trkpt lat="42.87835" lon="0.0177">
        <ele>826</ele>
        <time>2019-01-17T19:30:03Z</time>
      </trkpt>
      <trkpt lat="42.87851" lon="0.02149">
        <ele>856</ele>
        <time>2019-01-17T19:31:03Z</time>
      </trkpt>
      <trkpt lat="42.87858" lon="0.02264">
        <ele>867</ele>
        <time>2019-01-17T19:32:03Z</time>
      </trkpt>
      <trkpt lat="42.87862" lon="0.02287">
        <ele>869</ele>
        <time>2019-01-17T19:33:03Z</time>
      </trkpt>
      <trkpt lat="42.87878" lon="0.02338">
        <ele>869</ele>
        <time>2019-01-17T19:34:03Z</time>
      </trkpt>
      <trkpt lat="42.87883" lon="0.0236">
        <ele>870</ele>
        <time>2019-01-17T19:35:03Z</time>
      </trkpt>
      <trkpt lat="42.87895" lon="0.02429">
        <ele>872</ele>
        <time>2019-01-17T19:36:03Z</time>
      </trkpt>
      <trkpt lat="42.8792" lon="0.02544">
        <ele>877</ele>
        <time>2019-01-17T19:37:03Z</time>
      </trkpt>
      <trkpt lat="42.87934" lon="0.02597">
        <ele>882</ele>
        <time>2019-01-17T19:38:03Z</time>
      </trkpt>
      <trkpt lat="42.8795" lon="0.02632">
        <ele>885</ele>
        <time>2019-01-17T19:39:03Z</time>
      </trkpt>
      <trkpt lat="42.87983" lon="0.02674">
        <ele>882</ele>
        <time>2019-01-17T19:40:03Z</time>
      </trkpt>
      <trkpt lat="42.88301" lon="0.03037">
        <ele>926</ele>
        <time>2019-01-17T19:41:03Z</time>
      </trkpt>
      <trkpt lat="42.88312" lon="0.03052">
        <ele>926</ele>
        <time>2019-01-17T19:42:03Z</time>
      </trkpt>
      <trkpt lat="42.88328" lon="0.031">
        <ele>924</ele>
        <time>2019-01-17T19:43:03Z</time>
      </trkpt>
      <trkpt lat="42.88333" lon="0.03143">
        <ele>928</ele>
        <time>2019-01-17T19:44:03Z</time>
      </trkpt>
      <trkpt lat="42.88332" lon="0.03154">
        <ele>930</ele>
        <time>2019-01-17T19:45:03Z</time>
      </trkpt>
      <trkpt lat="42.88298" lon="0.03263">
        <ele>951</ele>
        <time>2019-01-17T19:46:03Z</time>
      </trkpt>
      <trkpt lat="42.88297" lon="0.03286">
        <ele>952</ele>
        <time>2019-01-17T19:47:03Z</time>
      </trkpt>
      <trkpt lat="42.88297" lon="0.03446">
        <ele>957</ele>
        <time>2019-01-17T19:48:03Z</time>
      </trkpt>
      <trkpt lat="42.88288" lon="0.03488">
        <ele>960</ele>
        <time>2019-01-17T19:49:03Z</time>
      </trkpt>
      <trkpt lat="42.88276" lon="0.03525">
        <ele>962</ele>
        <time>2019-01-17T19:50:03Z</time>
      </trkpt>
      <trkpt lat="42.88267" lon="0.0357">
        <ele>963</ele>
        <time>2019-01-17T19:51:03Z</time>
      </trkpt>
      <trkpt lat="42.88266" lon="0.03646">
        <ele>966</ele>
        <time>2019-01-17T19:52:03Z</time>
      </trkpt>
      <trkpt lat="42.88269" lon="0.03686">
        <ele>969</ele>
        <time>2019-01-17T19:53:03Z</time>
      </trkpt>
      <trkpt lat="42.88287" lon="0.03785">
        <ele>977</ele>
        <time>2019-01-17T19:54:03Z</time>
      </trkpt>
      <trkpt lat="42.88376" lon="0.04007">
        <ele>991</ele>
        <time>2019-01-17T19:55:03Z</time>
      </trkpt>
      <trkpt lat="42.88377" lon="0.04015">
        <ele>992</ele>
        <time>2019-01-17T19:56:03Z</time>
      </trkpt>
      <trkpt lat="42.88376" lon="0.04021">
        <ele>993</ele>
        <time>2019-01-17T19:57:03Z</time>
      </trkpt>
      <trkpt lat="42.8837" lon="0.0403">
        <ele>995</ele>
        <time>2019-01-17T19:58:03Z</time>
      </trkpt>
      <trkpt lat="42.88362" lon="0.04035">
        <ele>996</ele>
        <time>2019-01-17T19:59:03Z</time>
      </trkpt>
      <trkpt lat="42.88357" lon="0.04034">
        <ele>996</ele>
        <time>2019-01-17T20:00:03Z</time>
      </trkpt>
      <trkpt lat="42.88353" lon="0.04031">
        <ele>996</ele>
        <time>2019-01-17T20:01:03Z</time>
      </trkpt>
      <trkpt lat="42.88344" lon="0.04019">
        <ele>993</ele>
        <time>2019-01-17T20:02:03Z</time>
      </trkpt>
      <trkpt lat="42.88326" lon="0.03987">
        <ele>988</ele>
        <time>2019-01-17T20:03:03Z</time>
      </trkpt>
      <trkpt lat="42.88313" lon="0.03974">
        <ele>989</ele>
        <time>2019-01-17T20:04:03Z</time>
      </trkpt>
      <trkpt lat="42.88275" lon="0.03947">
        <ele>994</ele>
        <time>2019-01-17T20:05:03Z</time>
      </trkpt>
      <trkpt lat="42.88265" lon="0.03944">
        <ele>996</ele>
        <time>2019-01-17T20:06:03Z</time>
      </trkpt>
      <trkpt lat="42.88257" lon="0.03949">
        <ele>998</ele>
        <time>2019-01-17T20:07:03Z</time>
      </trkpt>
      <trkpt lat="42.88252" lon="0.03958">
        <ele>1000</ele>
        <time>2019-01-17T20:08:03Z</time>
      </trkpt>
      <trkpt lat="42.88252" lon="0.03966">
        <ele>1000</ele>
        <time>2019-01-17T20:09:03Z</time>
      </trkpt>
      <trkpt lat="42.88254" lon="0.03976">
        <ele>1000</ele>
        <time>2019-01-17T20:10:03Z</time>
      </trkpt>
      <trkpt lat="42.88261" lon="0.03982">
        <ele>999</ele>
        <time>2019-01-17T20:11:03Z</time>
      </trkpt>
      <trkpt lat="42.88293" lon="0.0399">
        <ele>994</ele>
        <time>2019-01-17T20:12:03Z</time>
      </trkpt>
      <trkpt lat="42.8831" lon="0.04003">
        <ele>993</ele>
        <time>2019-01-17T20:13:03Z</time>
      </trkpt>
      <trkpt lat="42.88386" lon="0.04114">
        <ele>1008</ele>
        <time>2019-01-17T20:14:03Z</time>
      </trkpt>
      <trkpt lat="42.88459" lon="0.04215">
        <ele>1022</ele>
        <time>2019-01-17T20:15:03Z</time>
      </trkpt>
      <trkpt lat="42.88517" lon="0.04286">
        <ele>1032</ele>
        <time>2019-01-17T20:16:03Z</time>
      </trkpt>
      <trkpt lat="42.88528" lon="0.04303">
        <ele>1034</ele>
        <time>2019-01-17T20:17:03Z</time>
      </trkpt>
      <trkpt lat="42.88553" lon="0.04348">
        <ele>1036</ele>
        <time>2019-01-17T20:18:03Z</time>
      </trkpt>
      <trkpt lat="42.88611" lon="0.04434">
        <ele>1043</ele>
        <time>2019-01-17T20:19:03Z</time>
      </trkpt>
      <trkpt lat="42.88636" lon="0.04459">
        <ele>1045</ele>
        <time>2019-01-17T20:20:03Z</time>
      </trkpt>
      <trkpt lat="42.88669" lon="0.04489">
        <ele>1045</ele>
        <time>2019-01-17T20:21:03Z</time>
      </trkpt>
      <trkpt lat="42.88723" lon="0.04531">
        <ele>1049</ele>
        <time>2019-01-17T20:22:03Z</time>
      </trkpt>
      <trkpt lat="42.88752" lon="0.04559">
        <ele>1047</ele>
        <time>2019-01-17T20:23:03Z</time>
      </trkpt>
      <trkpt lat="42.88797" lon="0.04607">
        <ele>1057</ele>
        <time>2019-01-17T20:24:03Z</time>
      </trkpt>
      <trkpt lat="42.88817" lon="0.04619">
        <ele>1058</ele>
        <time>2019-01-17T20:25:03Z</time>
      </trkpt>
      <trkpt lat="42.88838" lon="0.04628">
        <ele>1058</ele>
        <time>2019-01-17T20:26:03Z</time>
      </trkpt>
      <trkpt lat="42.88878" lon="0.04643">
        <ele>1064</ele>
        <time>2019-01-17T20:27:03Z</time>
      </trkpt>
      <trkpt lat="42.88949" lon="0.04683">
        <ele>1070</ele>
        <time>2019-01-17T20:28:03Z</time>
      </trkpt>
      <trkpt lat="42.89008" lon="0.04705">
        <ele>1076</ele>
        <time>2019-01-17T20:29:03Z</time>
      </trkpt>
      <trkpt lat="42.8902" lon="0.04711">
        <ele>1078</ele>
        <time>2019-01-17T20:30:03Z</time>
      </trkpt>
      <trkpt lat="42.89043" lon="0.04739">
        <ele>1080</ele>
        <time>2019-01-17T20:31:03Z</time>
      </trkpt>
      <trkpt lat="42.8911" lon="0.04845">
        <ele>1094</ele>
        <time>2019-01-17T20:32:03Z</time>
      </trkpt>
      <trkpt lat="42.89112" lon="0.04855">
        <ele>1095</ele>
        <time>2019-01-17T20:33:03Z</time>
      </trkpt>
      <trkpt lat="42.89111" lon="0.04865">
        <ele>1095</ele>
        <time>2019-01-17T20:34:03Z</time>
      </trkpt>
      <trkpt lat="42.89106" lon="0.04874">
        <ele>1095</ele>
        <time>2019-01-17T20:35:03Z</time>
      </trkpt>
      <trkpt lat="42.89095" lon="0.04879">
        <ele>1095</ele>
        <time>2019-01-17T20:36:03Z</time>
      </trkpt>
      <trkpt lat="42.89085" lon="0.04873">
        <ele>1094</ele>
        <time>2019-01-17T20:37:03Z</time>
      </trkpt>
      <trkpt lat="42.89067" lon="0.04855">
        <ele>1093</ele>
        <time>2019-01-17T20:38:03Z</time>
      </trkpt>
      <trkpt lat="42.89039" lon="0.04806">
        <ele>1089</ele>
        <time>2019-01-17T20:39:03Z</time>
      </trkpt>
      <trkpt lat="42.8903" lon="0.04801">
        <ele>1088</ele>
        <time>2019-01-17T20:40:03Z</time>
      </trkpt>
      <trkpt lat="42.89021" lon="0.04803">
        <ele>1089</ele>
        <time>2019-01-17T20:41:03Z</time>
      </trkpt>
      <trkpt lat="42.89014" lon="0.04812">
        <ele>1091</ele>
        <time>2019-01-17T20:42:03Z</time>
      </trkpt>
      <trkpt lat="42.89011" lon="0.04824">
        <ele>1093</ele>
        <time>2019-01-17T20:43:03Z</time>
      </trkpt>
      <trkpt lat="42.89014" lon="0.04836">
        <ele>1095</ele>
        <time>2019-01-17T20:44:03Z</time>
      </trkpt>
      <trkpt lat="42.89018" lon="0.04845">
        <ele>1096</ele>
        <time>2019-01-17T20:45:03Z</time>
      </trkpt>
      <trkpt lat="42.8904" lon="0.04868">
        <ele>1097</ele>
        <time>2019-01-17T20:46:03Z</time>
      </trkpt>
      <trkpt lat="42.89048" lon="0.04883">
        <ele>1099</ele>
        <time>2019-01-17T20:47:03Z</time>
      </trkpt>
      <trkpt lat="42.89054" lon="0.04901">
        <ele>1100</ele>
        <time>2019-01-17T20:48:03Z</time>
      </trkpt>
      <trkpt lat="42.89057" lon="0.04955">
        <ele>1110</ele>
        <time>2019-01-17T20:49:03Z</time>
      </trkpt>
      <trkpt lat="42.89061" lon="0.04973">
        <ele>1114</ele>
        <time>2019-01-17T20:50:03Z</time>
      </trkpt>
      <trkpt lat="42.89072" lon="0.04992">
        <ele>1115</ele>
        <time>2019-01-17T20:51:03Z</time>
      </trkpt>
      <trkpt lat="42.89112" lon="0.05049">
        <ele>1124</ele>
        <time>2019-01-17T20:52:03Z</time>
      </trkpt>
      <trkpt lat="42.89127" lon="0.05065">
        <ele>1123</ele>
        <time>2019-01-17T20:53:03Z</time>
      </trkpt>
      <trkpt lat="42.89186" lon="0.05095">
        <ele>1115</ele>
        <time>2019-01-17T20:54:03Z</time>
      </trkpt>
      <trkpt lat="42.89199" lon="0.05105">
        <ele>1117</ele>
        <time>2019-01-17T20:55:03Z</time>
      </trkpt>
      <trkpt lat="42.89206" lon="0.05114">
        <ele>1117</ele>
        <time>2019-01-17T20:56:03Z</time>
      </trkpt>
      <trkpt lat="42.89281" lon="0.05265">
        <ele>1132</ele>
        <time>2019-01-17T20:57:03Z</time>
      </trkpt>
      <trkpt lat="42.89289" lon="0.05294">
        <ele>1137</ele>
        <time>2019-01-17T20:58:03Z</time>
      </trkpt>
      <trkpt lat="42.89296" lon="0.05353">
        <ele>1146</ele>
        <time>2019-01-17T20:59:03Z</time>
      </trkpt>
      <trkpt lat="42.89302" lon="0.05379">
        <ele>1149</ele>
        <time>2019-01-17T21:00:03Z</time>
      </trkpt>
      <trkpt lat="42.89311" lon="0.05407">
        <ele>1152</ele>
        <time>2019-01-17T21:01:03Z</time>
      </trkpt>
      <trkpt lat="42.89412" lon="0.05636">
        <ele>1165</ele>
        <time>2019-01-17T21:02:03Z</time>
      </trkpt>
      <trkpt lat="42.89438" lon="0.05723">
        <ele>1176</ele>
        <time>2019-01-17T21:03:03Z</time>
      </trkpt>
      <trkpt lat="42.89447" lon="0.05746">
        <ele>1178</ele>
        <time>2019-01-17T21:04:03Z</time>
      </trkpt>
      <trkpt lat="42.89466" lon="0.05778">
        <ele>1181</ele>
        <time>2019-01-17T21:05:03Z</time>
      </trkpt>
      <trkpt lat="42.89488" lon="0.05813">
        <ele>1181</ele>
        <time>2019-01-17T21:06:03Z</time>
      </trkpt>
      <trkpt lat="42.89505" lon="0.05833">
        <ele>1180</ele>
        <time>2019-01-17T21:07:03Z</time>
      </trkpt>
      <trkpt lat="42.8956" lon="0.05866">
        <ele>1184</ele>
        <time>2019-01-17T21:08:03Z</time>
      </trkpt>
      <trkpt lat="42.89563" lon="0.05872">
        <ele>1185</ele>
        <time>2019-01-17T21:09:03Z</time>
      </trkpt>
      <trkpt lat="42.89564" lon="0.05888">
        <ele>1186</ele>
        <time>2019-01-17T21:10:03Z</time>
      </trkpt>
      <trkpt lat="42.89562" lon="0.05897">
        <ele>1186</ele>
        <time>2019-01-17T21:11:03Z</time>
      </trkpt>
      <trkpt lat="42.89559" lon="0.05902">
        <ele>1187</ele>
        <time>2019-01-17T21:12:03Z</time>
      </trkpt>
      <trkpt lat="42.8955" lon="0.0591">
        <ele>1188</ele>
        <time>2019-01-17T21:13:03Z</time>
      </trkpt>
      <trkpt lat="42.89545" lon="0.05911">
        <ele>1188</ele>
        <time>2019-01-17T21:14:03Z</time>
      </trkpt>
      <trkpt lat="42.89536" lon="0.05908">
        <ele>1188</ele>
        <time>2019-01-17T21:15:03Z</time>
      </trkpt>
      <trkpt lat="42.89519" lon="0.05895">
        <ele>1188</ele>
        <time>2019-01-17T21:16:03Z</time>
      </trkpt>
      <trkpt lat="42.89514" lon="0.05894">
        <ele>1188</ele>
        <time>2019-01-17T21:17:03Z</time>
      </trkpt>
      <trkpt lat="42.89505" lon="0.05896">
        <ele>1188</ele>
        <time>2019-01-17T21:18:03Z</time>
      </trkpt>
      <trkpt lat="42.89499" lon="0.05903">
        <ele>1190</ele>
        <time>2019-01-17T21:19:03Z</time>
      </trkpt>
      <trkpt lat="42.89495" lon="0.05909">
        <ele>1192</ele>
        <time>2019-01-17T21:20:03Z</time>
      </trkpt>
      <trkpt lat="42.89493" lon="0.05917">
        <ele>1194</ele>
        <time>2019-01-17T21:21:03Z</time>
      </trkpt>
      <trkpt lat="42.89494" lon="0.05931">
        <ele>1197</ele>
        <time>2019-01-17T21:22:03Z</time>
      </trkpt>
      <trkpt lat="42.89499" lon="0.05943">
        <ele>1198</ele>
        <time>2019-01-17T21:23:03Z</time>
      </trkpt>
      <trkpt lat="42.89506" lon="0.0595">
        <ele>1199</ele>
        <time>2019-01-17T21:24:03Z</time>
      </trkpt>
      <trkpt lat="42.89519" lon="0.05952">
        <ele>1198</ele>
        <time>2019-01-17T21:25:03Z</time>
      </trkpt>
      <trkpt lat="42.89547" lon="0.05945">
        <ele>1194</ele>
        <time>2019-01-17T21:26:03Z</time>
      </trkpt>
      <trkpt lat="42.8956" lon="0.05944">
        <ele>1193</ele>
        <time>2019-01-17T21:27:03Z</time>
      </trkpt>
      <trkpt lat="42.89572" lon="0.05946">
        <ele>1192</ele>
        <time>2019-01-17T21:28:03Z</time>
      </trkpt>
      <trkpt lat="42.89587" lon="0.05959">
        <ele>1194</ele>
        <time>2019-01-17T21:29:03Z</time>
      </trkpt>
      <trkpt lat="42.89598" lon="0.05982">
        <ele>1198</ele>
        <time>2019-01-17T21:30:03Z</time>
      </trkpt>
      <trkpt lat="42.89601" lon="0.06">
        <ele>1200</ele>
        <time>2019-01-17T21:31:03Z</time>
      </trkpt>
      <trkpt lat="42.89604" lon="0.06036">
        <ele>1204</ele>
        <time>2019-01-17T21:32:03Z</time>
      </trkpt>
      <trkpt lat="42.89612" lon="0.06105">
        <ele>1211</ele>
        <time>2019-01-17T21:33:03Z</time>
      </trkpt>
      <trkpt lat="42.89616" lon="0.06209">
        <ele>1218</ele>
        <time>2019-01-17T21:34:03Z</time>
      </trkpt>
      <trkpt lat="42.89623" lon="0.06336">
        <ele>1227</ele>
        <time>2019-01-17T21:35:03Z</time>
      </trkpt>
      <trkpt lat="42.89656" lon="0.06428">
        <ele>1231</ele>
        <time>2019-01-17T21:36:03Z</time>
      </trkpt>
      <trkpt lat="42.89655" lon="0.06435">
        <ele>1232</ele>
        <time>2019-01-17T21:37:03Z</time>
      </trkpt>
      <trkpt lat="42.89662" lon="0.06452">
        <ele>1232</ele>
        <time>2019-01-17T21:38:03Z</time>
      </trkpt>
      <trkpt lat="42.89668" lon="0.06459">
        <ele>1231</ele>
        <time>2019-01-17T21:39:03Z</time>
      </trkpt>
      <trkpt lat="42.89711" lon="0.06572">
        <ele>1244</ele>
        <time>2019-01-17T21:40:03Z</time>
      </trkpt>
      <trkpt lat="42.89767" lon="0.06735">
        <ele>1254</ele>
        <time>2019-01-17T21:41:03Z</time>
      </trkpt>
      <trkpt lat="42.89773" lon="0.06762">
        <ele>1258</ele>
        <time>2019-01-17T21:42:03Z</time>
      </trkpt>
      <trkpt lat="42.89783" lon="0.06825">
        <ele>1268</ele>
        <time>2019-01-17T21:43:03Z</time>
      </trkpt>
      <trkpt lat="42.8984" lon="0.07144">
        <ele>1289</ele>
        <time>2019-01-17T21:44:03Z</time>
      </trkpt>
      <trkpt lat="42.89843" lon="0.07232">
        <ele>1299</ele>
        <time>2019-01-17T21:45:03Z</time>
      </trkpt>
      <trkpt lat="42.89854" lon="0.0729">
        <ele>1302</ele>
        <time>2019-01-17T21:46:03Z</time>
      </trkpt>
      <trkpt lat="42.89865" lon="0.07384">
        <ele>1307</ele>
        <time>2019-01-17T21:47:03Z</time>
      </trkpt>
      <trkpt lat="42.89869" lon="0.07486">
        <ele>1313</ele>
        <time>2019-01-17T21:48:03Z</time>
      </trkpt>
      <trkpt lat="42.89877" lon="0.07506">
        <ele>1312</ele>
        <time>2019-01-17T21:49:03Z</time>
      </trkpt>
      <trkpt lat="42.89942" lon="0.07626">
        <ele>1313</ele>
        <time>2019-01-17T21:50:03Z</time>
      </trkpt>
      <trkpt lat="42.89947" lon="0.0764">
        <ele>1314</ele>
        <time>2019-01-17T21:51:03Z</time>
      </trkpt>
      <trkpt lat="42.8996" lon="0.07726">
        <ele>1323</ele>
        <time>2019-01-17T21:52:03Z</time>
      </trkpt>
      <trkpt lat="42.89983" lon="0.07814">
        <ele>1329</ele>
        <time>2019-01-17T21:53:03Z</time>
      </trkpt>
      <trkpt lat="42.90031" lon="0.07965">
        <ele>1350</ele>
        <time>2019-01-17T21:54:03Z</time>
      </trkpt>
      <trkpt lat="42.90056" lon="0.08036">
        <ele>1354</ele>
        <time>2019-01-17T21:55:03Z</time>
      </trkpt>
      <trkpt lat="42.90104" lon="0.08208">
        <ele>1374</ele>
        <time>2019-01-17T21:56:03Z</time>
      </trkpt>
      <trkpt lat="42.90149" lon="0.08298">
        <ele>1371</ele>
        <time>2019-01-17T21:57:03Z</time>
      </trkpt>
      <trkpt lat="42.90155" lon="0.08316">
        <ele>1371</ele>
        <time>2019-01-17T21:58:03Z</time>
      </trkpt>
      <trkpt lat="42.90158" lon="0.08336">
        <ele>1372</ele>
        <time>2019-01-17T21:59:03Z</time>
      </trkpt>
      <trkpt lat="42.90159" lon="0.08361">
        <ele>1376</ele>
        <time>2019-01-17T22:00:03Z</time>
      </trkpt>
      <trkpt lat="42.90157" lon="0.08381">
        <ele>1380</ele>
        <time>2019-01-17T22:01:03Z</time>
      </trkpt>
      <trkpt lat="42.90158" lon="0.08401">
        <ele>1383</ele>
        <time>2019-01-17T22:02:03Z</time>
      </trkpt>
      <trkpt lat="42.90192" lon="0.08692">
        <ele>1411</ele>
        <time>2019-01-17T22:03:03Z</time>
      </trkpt>
      <trkpt lat="42.90271" lon="0.0899">
        <ele>1415</ele>
        <time>2019-01-17T22:04:03Z</time>
      </trkpt>
      <trkpt lat="42.90274" lon="0.09009">
        <ele>1416</ele>
        <time>2019-01-17T22:05:03Z</time>
      </trkpt>
      <trkpt lat="42.90275" lon="0.09024">
        <ele>1416</ele>
        <time>2019-01-17T22:06:03Z</time>
      </trkpt>
      <trkpt lat="42.90268" lon="0.09084">
        <ele>1418</ele>
        <time>2019-01-17T22:07:03Z</time>
      </trkpt>
      <trkpt lat="42.90267" lon="0.09105">
        <ele>1421</ele>
        <time>2019-01-17T22:08:03Z</time>
      </trkpt>
      <trkpt lat="42.90268" lon="0.0913">
        <ele>1423</ele>
        <time>2019-01-17T22:09:03Z</time>
      </trkpt>
      <trkpt lat="42.90271" lon="0.09154">
        <ele>1425</ele>
        <time>2019-01-17T22:10:03Z</time>
      </trkpt>
      <trkpt lat="42.90312" lon="0.09335">
        <ele>1432</ele>
        <time>2019-01-17T22:11:03Z</time>
      </trkpt>
      <trkpt lat="42.90324" lon="0.09401">
        <ele>1434</ele>
        <time>2019-01-17T22:12:03Z</time>
      </trkpt>
      <trkpt lat="42.90329" lon="0.09441">
        <ele>1434</ele>
        <time>2019-01-17T22:13:03Z</time>
      </trkpt>
      <trkpt lat="42.90335" lon="0.0973">
        <ele>1441</ele>
        <time>2019-01-17T22:14:03Z</time>
      </trkpt>
      <trkpt lat="42.90353" lon="0.099">
        <ele>1456</ele>
        <time>2019-01-17T22:15:03Z</time>
      </trkpt>
      <trkpt lat="42.90358" lon="0.09986">
        <ele>1459</ele>
        <time>2019-01-17T22:16:03Z</time>
      </trkpt>
      <trkpt lat="42.90357" lon="0.09999">
        <ele>1460</ele>
        <time>2019-01-17T22:17:03Z</time>
      </trkpt>
      <trkpt lat="42.90352" lon="0.10021">
        <ele>1459</ele>
        <time>2019-01-17T22:18:03Z</time>
      </trkpt>
      <trkpt lat="42.90349" lon="0.10027">
        <ele>1459</ele>
        <time>2019-01-17T22:19:03Z</time>
      </trkpt>
      <trkpt lat="42.90334" lon="0.10047">
        <ele>1460</ele>
        <time>2019-01-17T22:20:03Z</time>
      </trkpt>
      <trkpt lat="42.90323" lon="0.10067">
        <ele>1462</ele>
        <time>2019-01-17T22:21:03Z</time>
      </trkpt>
      <trkpt lat="42.90319" lon="0.10086">
        <ele>1461</ele>
        <time>2019-01-17T22:22:03Z</time>
      </trkpt>
      <trkpt lat="42.90322" lon="0.10111">
        <ele>1459</ele>
        <time>2019-01-17T22:23:03Z</time>
      </trkpt>
      <trkpt lat="42.90333" lon="0.1017">
        <ele>1453</ele>
        <time>2019-01-17T22:24:03Z</time>
      </trkpt>
      <trkpt lat="42.90342" lon="0.10261">
        <ele>1459</ele>
        <time>2019-01-17T22:25:03Z</time>
      </trkpt>
      <trkpt lat="42.90346" lon="0.10276">
        <ele>1460</ele>
        <time>2019-01-17T22:26:03Z</time>
      </trkpt>
      <trkpt lat="42.90373" lon="0.10331">
        <ele>1464</ele>
        <time>2019-01-17T22:27:03Z</time>
      </trkpt>
      <trkpt lat="42.90387" lon="0.10351">
        <ele>1467</ele>
        <time>2019-01-17T22:28:03Z</time>
      </trkpt>
      <trkpt lat="42.90396" lon="0.10361">
        <ele>1469</ele>
        <time>2019-01-17T22:29:03Z</time>
      </trkpt>
      <trkpt lat="42.90405" lon="0.10366">
        <ele>1470</ele>
        <time>2019-01-17T22:30:03Z</time>
      </trkpt>
      <trkpt lat="42.90423" lon="0.10366">
        <ele>1471</ele>
        <time>2019-01-17T22:31:03Z</time>
      </trkpt>
      <trkpt lat="42.90438" lon="0.10358">
        <ele>1471</ele>
        <time>2019-01-17T22:32:03Z</time>
      </trkpt>
      <trkpt lat="42.90514" lon="0.10266">
        <ele>1476</ele>
        <time>2019-01-17T22:33:03Z</time>
      </trkpt>
      <trkpt lat="42.90523" lon="0.10244">
        <ele>1478</ele>
        <time>2019-01-17T22:34:03Z</time>
      </trkpt>
      <trkpt lat="42.90527" lon="0.10222">
        <ele>1480</ele>
        <time>2019-01-17T22:35:03Z</time>
      </trkpt>
      <trkpt lat="42.90525" lon="0.10178">
        <ele>1481</ele>
        <time>2019-01-17T22:36:03Z</time>
      </trkpt>
      <trkpt lat="42.90527" lon="0.10168">
        <ele>1481</ele>
        <time>2019-01-17T22:37:03Z</time>
      </trkpt>
      <trkpt lat="42.90532" lon="0.10159">
        <ele>1483</ele>
        <time>2019-01-17T22:38:03Z</time>
      </trkpt>
      <trkpt lat="42.90538" lon="0.10156">
        <ele>1485</ele>
        <time>2019-01-17T22:39:03Z</time>
      </trkpt>
      <trkpt lat="42.90544" lon="0.10156">
        <ele>1487</ele>
        <time>2019-01-17T22:40:03Z</time>
      </trkpt>
      <trkpt lat="42.90552" lon="0.10163">
        <ele>1489</ele>
        <time>2019-01-17T22:41:03Z</time>
      </trkpt>
      <trkpt lat="42.90558" lon="0.10179">
        <ele>1491</ele>
        <time>2019-01-17T22:42:03Z</time>
      </trkpt>
      <trkpt lat="42.90565" lon="0.10206">
        <ele>1494</ele>
        <time>2019-01-17T22:43:03Z</time>
      </trkpt>
      <trkpt lat="42.90563" lon="0.103">
        <ele>1497</ele>
        <time>2019-01-17T22:44:03Z</time>
      </trkpt>
      <trkpt lat="42.90555" lon="0.10363">
        <ele>1500</ele>
        <time>2019-01-17T22:45:03Z</time>
      </trkpt>
      <trkpt lat="42.90547" lon="0.10398">
        <ele>1502</ele>
        <time>2019-01-17T22:46:03Z</time>
      </trkpt>
      <trkpt lat="42.90533" lon="0.10421">
        <ele>1500</ele>
        <time>2019-01-17T22:47:03Z</time>
      </trkpt>
      <trkpt lat="42.90523" lon="0.10434">
        <ele>1498</ele>
        <time>2019-01-17T22:48:03Z</time>
      </trkpt>
      <trkpt lat="42.9052" lon="0.10446">
        <ele>1498</ele>
        <time>2019-01-17T22:49:03Z</time>
      </trkpt>
      <trkpt lat="42.90521" lon="0.10454">
        <ele>1499</ele>
        <time>2019-01-17T22:50:03Z</time>
      </trkpt>
      <trkpt lat="42.90525" lon="0.10459">
        <ele>1501</ele>
        <time>2019-01-17T22:51:03Z</time>
      </trkpt>
      <trkpt lat="42.90532" lon="0.10461">
        <ele>1503</ele>
        <time>2019-01-17T22:52:03Z</time>
      </trkpt>
      <trkpt lat="42.90542" lon="0.10458">
        <ele>1506</ele>
        <time>2019-01-17T22:53:03Z</time>
      </trkpt>
      <trkpt lat="42.90555" lon="0.10443">
        <ele>1509</ele>
        <time>2019-01-17T22:54:03Z</time>
      </trkpt>
      <trkpt lat="42.90597" lon="0.10359">
        <ele>1516</ele>
        <time>2019-01-17T22:55:03Z</time>
      </trkpt>
      <trkpt lat="42.90608" lon="0.10321">
        <ele>1517</ele>
        <time>2019-01-17T22:56:03Z</time>
      </trkpt>
      <trkpt lat="42.90626" lon="0.10275">
        <ele>1520</ele>
        <time>2019-01-17T22:57:03Z</time>
      </trkpt>
      <trkpt lat="42.90635" lon="0.10247">
        <ele>1521</ele>
        <time>2019-01-17T22:58:03Z</time>
      </trkpt>
      <trkpt lat="42.90635" lon="0.10206">
        <ele>1518</ele>
        <time>2019-01-17T22:59:03Z</time>
      </trkpt>
      <trkpt lat="42.90637" lon="0.10195">
        <ele>1518</ele>
        <time>2019-01-17T23:00:03Z</time>
      </trkpt>
      <trkpt lat="42.90645" lon="0.1019">
        <ele>1521</ele>
        <time>2019-01-17T23:01:03Z</time>
      </trkpt>
      <trkpt lat="42.90649" lon="0.1019">
        <ele>1522</ele>
        <time>2019-01-17T23:02:03Z</time>
      </trkpt>
      <trkpt lat="42.90655" lon="0.10192">
        <ele>1524</ele>
        <time>2019-01-17T23:03:03Z</time>
      </trkpt>
      <trkpt lat="42.90658" lon="0.10203">
        <ele>1526</ele>
        <time>2019-01-17T23:04:03Z</time>
      </trkpt>
      <trkpt lat="42.90658" lon="0.10214">
        <ele>1527</ele>
        <time>2019-01-17T23:05:03Z</time>
      </trkpt>
      <trkpt lat="42.90642" lon="0.10312">
        <ele>1531</ele>
        <time>2019-01-17T23:06:03Z</time>
      </trkpt>
      <trkpt lat="42.90631" lon="0.10417">
        <ele>1538</ele>
        <time>2019-01-17T23:07:03Z</time>
      </trkpt>
      <trkpt lat="42.90629" lon="0.10533">
        <ele>1545</ele>
        <time>2019-01-17T23:08:03Z</time>
      </trkpt>
      <trkpt lat="42.90627" lon="0.10551">
        <ele>1545</ele>
        <time>2019-01-17T23:09:03Z</time>
      </trkpt>
      <trkpt lat="42.90615" lon="0.10584">
        <ele>1540</ele>
        <time>2019-01-17T23:10:03Z</time>
      </trkpt>
      <trkpt lat="42.90615" lon="0.10606">
        <ele>1542</ele>
        <time>2019-01-17T23:11:03Z</time>
      </trkpt>
      <trkpt lat="42.90634" lon="0.10717">
        <ele>1561</ele>
        <time>2019-01-17T23:12:03Z</time>
      </trkpt>
      <trkpt lat="42.90635" lon="0.10803">
        <ele>1565</ele>
        <time>2019-01-17T23:13:03Z</time>
      </trkpt>
      <trkpt lat="42.90638" lon="0.10857">
        <ele>1568</ele>
        <time>2019-01-17T23:14:03Z</time>
      </trkpt>
      <trkpt lat="42.90645" lon="0.10913">
        <ele>1570</ele>
        <time>2019-01-17T23:15:03Z</time>
      </trkpt>
      <trkpt lat="42.9066" lon="0.10977">
        <ele>1576</ele>
        <time>2019-01-17T23:16:03Z</time>
      </trkpt>
      <trkpt lat="42.90687" lon="0.11063">
        <ele>1587</ele>
        <time>2019-01-17T23:17:03Z</time>
      </trkpt>
      <trkpt lat="42.90722" lon="0.11215">
        <ele>1595</ele>
        <time>2019-01-17T23:18:03Z</time>
      </trkpt>
      <trkpt lat="42.90726" lon="0.11344">
        <ele>1603</ele>
        <time>2019-01-17T23:19:03Z</time>
      </trkpt>
      <trkpt lat="42.90737" lon="0.11447">
        <ele>1609</ele>
        <time>2019-01-17T23:20:03Z</time>
      </trkpt>
      <trkpt lat="42.90737" lon="0.11496">
        <ele>1612</ele>
        <time>2019-01-17T23:21:03Z</time>
      </trkpt>
      <trkpt lat="42.9073" lon="0.11539">
        <ele>1617</ele>
        <time>2019-01-17T23:22:03Z</time>
      </trkpt>
      <trkpt lat="42.90712" lon="0.11608">
        <ele>1625</ele>
        <time>2019-01-17T23:23:03Z</time>
      </trkpt>
      <trkpt lat="42.90712" lon="0.11618">
        <ele>1626</ele>
        <time>2019-01-17T23:24:03Z</time>
      </trkpt>
      <trkpt lat="42.90719" lon="0.11625">
        <ele>1627</ele>
        <time>2019-01-17T23:25:03Z</time>
      </trkpt>
      <trkpt lat="42.90726" lon="0.11627">
        <ele>1628</ele>
        <time>2019-01-17T23:26:03Z</time>
      </trkpt>
      <trkpt lat="42.90734" lon="0.11623">
        <ele>1629</ele>
        <time>2019-01-17T23:27:03Z</time>
      </trkpt>
      <trkpt lat="42.90786" lon="0.11561">
        <ele>1628</ele>
        <time>2019-01-17T23:28:03Z</time>
      </trkpt>
      <trkpt lat="42.908" lon="0.11551">
        <ele>1630</ele>
        <time>2019-01-17T23:29:03Z</time>
      </trkpt>
      <trkpt lat="42.90807" lon="0.11552">
        <ele>1631</ele>
        <time>2019-01-17T23:30:03Z</time>
      </trkpt>
      <trkpt lat="42.90812" lon="0.1156">
        <ele>1632</ele>
        <time>2019-01-17T23:31:03Z</time>
      </trkpt>
      <trkpt lat="42.90812" lon="0.11572">
        <ele>1633</ele>
        <time>2019-01-17T23:32:03Z</time>
      </trkpt>
      <trkpt lat="42.90804" lon="0.11594">
        <ele>1635</ele>
        <time>2019-01-17T23:33:03Z</time>
      </trkpt>
      <trkpt lat="42.90779" lon="0.11636">
        <ele>1637</ele>
        <time>2019-01-17T23:34:03Z</time>
      </trkpt>
      <trkpt lat="42.90763" lon="0.11677">
        <ele>1639</ele>
        <time>2019-01-17T23:35:03Z</time>
      </trkpt>
      <trkpt lat="42.9075" lon="0.1172">
        <ele>1639</ele>
        <time>2019-01-17T23:36:03Z</time>
      </trkpt>
      <trkpt lat="42.90731" lon="0.11825">
        <ele>1647</ele>
        <time>2019-01-17T23:37:03Z</time>
      </trkpt>
      <trkpt lat="42.90716" lon="0.11966">
        <ele>1655</ele>
        <time>2019-01-17T23:38:03Z</time>
      </trkpt>
      <trkpt lat="42.90706" lon="0.12102">
        <ele>1669</ele>
        <time>2019-01-17T23:39:03Z</time>
      </trkpt>
      <trkpt lat="42.90705" lon="0.12253">
        <ele>1681</ele>
        <time>2019-01-17T23:40:03Z</time>
      </trkpt>
      <trkpt lat="42.90708" lon="0.12294">
        <ele>1685</ele>
        <time>2019-01-17T23:41:03Z</time>
      </trkpt>
      <trkpt lat="42.90703" lon="0.12451">
        <ele>1699</ele>
        <time>2019-01-17T23:42:03Z</time>
      </trkpt>
      <trkpt lat="42.90711" lon="0.12594">
        <ele>1705</ele>
        <time>2019-01-17T23:43:03Z</time>
      </trkpt>
      <trkpt lat="42.90696" lon="0.1283">
        <ele>1718</ele>
        <time>2019-01-17T23:44:03Z</time>
      </trkpt>
      <trkpt lat="42.90694" lon="0.12942">
        <ele>1729</ele>
        <time>2019-01-17T23:45:03Z</time>
      </trkpt>
      <trkpt lat="42.90687" lon="0.12995">
        <ele>1733</ele>
        <time>2019-01-17T23:46:03Z</time>
      </trkpt>
      <trkpt lat="42.9067" lon="0.13049">
        <ele>1732</ele>
        <time>2019-01-17T23:47:03Z</time>
      </trkpt>
      <trkpt lat="42.9065" lon="0.13127">
        <ele>1738</ele>
        <time>2019-01-17T23:48:03Z</time>
      </trkpt>
      <trkpt lat="42.90641" lon="0.1314">
        <ele>1739</ele>
        <time>2019-01-17T23:49:03Z</time>
      </trkpt>
      <trkpt lat="42.90632" lon="0.13147">
        <ele>1739</ele>
        <time>2019-01-17T23:50:03Z</time>
      </trkpt>
      <trkpt lat="42.90615" lon="0.13155">
        <ele>1738</ele>
        <time>2019-01-17T23:51:03Z</time>
      </trkpt>
      <trkpt lat="42.90591" lon="0.1316">
        <ele>1735</ele>
        <time>2019-01-17T23:52:03Z</time>
      </trkpt>
      <trkpt lat="42.90574" lon="0.13152">
        <ele>1735</ele>
        <time>2019-01-17T23:53:03Z</time>
      </trkpt>
      <trkpt lat="42.90567" lon="0.13142">
        <ele>1736</ele>
        <time>2019-01-17T23:54:03Z</time>
      </trkpt>
      <trkpt lat="42.90559" lon="0.13092">
        <ele>1739</ele>
        <time>2019-01-17T23:55:03Z</time>
      </trkpt>
      <trkpt lat="42.90552" lon="0.13073">
        <ele>1742</ele>
        <time>2019-01-17T23:56:03Z</time>
      </trkpt>
      <trkpt lat="42.90534" lon="0.13041">
        <ele>1746</ele>
        <time>2019-01-17T23:57:03Z</time>
      </trkpt>
      <trkpt lat="42.90516" lon="0.13019">
        <ele>1750</ele>
        <time>2019-01-17T23:58:03Z</time>
      </trkpt>
      <trkpt lat="42.90476" lon="0.12994">
        <ele>1757</ele>
        <time>2019-01-17T23:59:03Z</time>
      </trkpt>
      <trkpt lat="42.90459" lon="0.12974">
        <ele>1762</ele>
        <time>2019-01-18T00:00:03Z</time>
      </trkpt>
      <trkpt lat="42.90452" lon="0.12961">
        <ele>1764</ele>
        <time>2019-01-18T00:01:03Z</time>
      </trkpt>
      <trkpt lat="42.90445" lon="0.1294">
        <ele>1766</ele>
        <time>2019-01-18T00:02:03Z</time>
      </trkpt>
      <trkpt lat="42.90422" lon="0.12821">
        <ele>1767</ele>
        <time>2019-01-18T00:03:03Z</time>
      </trkpt>
      <trkpt lat="42.90422" lon="0.12773">
        <ele>1765</ele>
        <time>2019-01-18T00:04:03Z</time>
      </trkpt>
      <trkpt lat="42.9042" lon="0.12755">
        <ele>1765</ele>
        <time>2019-01-18T00:05:03Z</time>
      </trkpt>
      <trkpt lat="42.90405" lon="0.12712">
        <ele>1772</ele>
        <time>2019-01-18T00:06:03Z</time>
      </trkpt>
      <trkpt lat="42.90404" lon="0.12703">
        <ele>1773</ele>
        <time>2019-01-18T00:07:03Z</time>
      </trkpt>
      <trkpt lat="42.9041" lon="0.12664">
        <ele>1771</ele>
        <time>2019-01-18T00:08:03Z</time>
      </trkpt>
      <trkpt lat="42.90409" lon="0.12654">
        <ele>1771</ele>
        <time>2019-01-18T00:09:03Z</time>
      </trkpt>
      <trkpt lat="42.904" lon="0.12645">
        <ele>1774</ele>
        <time>2019-01-18T00:10:03Z</time>
      </trkpt>
      <trkpt lat="42.90391" lon="0.12643">
        <ele>1777</ele>
        <time>2019-01-18T00:11:03Z</time>
      </trkpt>
      <trkpt lat="42.90386" lon="0.12646">
        <ele>1780</ele>
        <time>2019-01-18T00:12:03Z</time>
      </trkpt>
      <trkpt lat="42.90381" lon="0.12655">
        <ele>1783</ele>
        <time>2019-01-18T00:13:03Z</time>
      </trkpt>
      <trkpt lat="42.90371" lon="0.1269">
        <ele>1787</ele>
        <time>2019-01-18T00:14:03Z</time>
      </trkpt>
      <trkpt lat="42.90374" lon="0.12727">
        <ele>1784</ele>
        <time>2019-01-18T00:15:03Z</time>
      </trkpt>
      <trkpt lat="42.90373" lon="0.1274">
        <ele>1784</ele>
        <time>2019-01-18T00:16:03Z</time>
      </trkpt>
      <trkpt lat="42.90364" lon="0.12761">
        <ele>1788</ele>
        <time>2019-01-18T00:17:03Z</time>
      </trkpt>
      <trkpt lat="42.90358" lon="0.1278">
        <ele>1791</ele>
        <time>2019-01-18T00:18:03Z</time>
      </trkpt>
      <trkpt lat="42.90356" lon="0.12791">
        <ele>1792</ele>
        <time>2019-01-18T00:19:03Z</time>
      </trkpt>
      <trkpt lat="42.90367" lon="0.12841">
        <ele>1790</ele>
        <time>2019-01-18T00:20:03Z</time>
      </trkpt>
      <trkpt lat="42.90377" lon="0.12877">
        <ele>1788</ele>
        <time>2019-01-18T00:21:03Z</time>
      </trkpt>
      <trkpt lat="42.90379" lon="0.12888">
        <ele>1788</ele>
        <time>2019-01-18T00:22:03Z</time>
      </trkpt>
      <trkpt lat="42.90376" lon="0.12931">
        <ele>1790</ele>
        <time>2019-01-18T00:23:03Z</time>
      </trkpt>
      <trkpt lat="42.90355" lon="0.12996">
        <ele>1796</ele>
        <time>2019-01-18T00:24:03Z</time>
      </trkpt>
      <trkpt lat="42.90338" lon="0.13054">
        <ele>1802</ele>
        <time>2019-01-18T00:25:03Z</time>
      </trkpt>
      <trkpt lat="42.90334" lon="0.13084">
        <ele>1803</ele>
        <time>2019-01-18T00:26:03Z</time>
      </trkpt>
      <trkpt lat="42.90338" lon="0.13115">
        <ele>1800</ele>
        <time>2019-01-18T00:27:03Z</time>
      </trkpt>
      <trkpt lat="42.90338" lon="0.1313">
        <ele>1799</ele>
        <time>2019-01-18T00:28:03Z</time>
      </trkpt>
      <trkpt lat="42.90334" lon="0.13144">
        <ele>1801</ele>
        <time>2019-01-18T00:29:03Z</time>
      </trkpt>
      <trkpt lat="42.90329" lon="0.13154">
        <ele>1803</ele>
        <time>2019-01-18T00:30:03Z</time>
      </trkpt>
      <trkpt lat="42.90305" lon="0.13179">
        <ele>1811</ele>
        <time>2019-01-18T00:31:03Z</time>
      </trkpt>
      <trkpt lat="42.9029" lon="0.13197">
        <ele>1816</ele>
        <time>2019-01-18T00:32:03Z</time>
      </trkpt>
      <trkpt lat="42.90279" lon="0.13218">
        <ele>1818</ele>
        <time>2019-01-18T00:33:03Z</time>
      </trkpt>
      <trkpt lat="42.90267" lon="0.13224">
        <ele>1821</ele>
        <time>2019-01-18T00:34:03Z</time>
      </trkpt>
      <trkpt lat="42.90202" lon="0.13236">
        <ele>1827</ele>
        <time>2019-01-18T00:35:03Z</time>
      </trkpt>
      <trkpt lat="42.90197" lon="0.1324">
        <ele>1827</ele>
        <time>2019-01-18T00:36:03Z</time>
      </trkpt>
      <trkpt lat="42.90193" lon="0.13248">
        <ele>1827</ele>
        <time>2019-01-18T00:37:03Z</time>
      </trkpt>
      <trkpt lat="42.90192" lon="0.13258">
        <ele>1828</ele>
        <time>2019-01-18T00:38:03Z</time>
      </trkpt>
      <trkpt lat="42.90193" lon="0.13267">
        <ele>1829</ele>
        <time>2019-01-18T00:39:03Z</time>
      </trkpt>
      <trkpt lat="42.90219" lon="0.13336">
        <ele>1835</ele>
        <time>2019-01-18T00:40:03Z</time>
      </trkpt>
      <trkpt lat="42.90222" lon="0.13359">
        <ele>1838</ele>
        <time>2019-01-18T00:41:03Z</time>
      </trkpt>
      <trkpt lat="42.90222" lon="0.13381">
        <ele>1841</ele>
        <time>2019-01-18T00:42:03Z</time>
      </trkpt>
      <trkpt lat="42.90226" lon="0.13393">
        <ele>1842</ele>
        <time>2019-01-18T00:43:03Z</time>
      </trkpt>
      <trkpt lat="42.90233" lon="0.13401">
        <ele>1841</ele>
        <time>2019-01-18T00:44:03Z</time>
      </trkpt>
      <trkpt lat="42.90257" lon="0.13411">
        <ele>1837</ele>
        <time>2019-01-18T00:45:03Z</time>
      </trkpt>
      <trkpt lat="42.90264" lon="0.13419">
        <ele>1838</ele>
        <time>2019-01-18T00:46:03Z</time>
      </trkpt>
      <trkpt lat="42.90277" lon="0.13453">
        <ele>1844</ele>
        <time>2019-01-18T00:47:03Z</time>
      </trkpt>
      <trkpt lat="42.90279" lon="0.13466">
        <ele>1846</ele>
        <time>2019-01-18T00:48:03Z</time>
      </trkpt>
      <trkpt lat="42.90277" lon="0.1348">
        <ele>1850</ele>
        <time>2019-01-18T00:49:03Z</time>
      </trkpt>
      <trkpt lat="42.90271" lon="0.13506">
        <ele>1857</ele>
        <time>2019-01-18T00:50:03Z</time>
      </trkpt>
      <trkpt lat="42.90272" lon="0.13522">
        <ele>1858</ele>
        <time>2019-01-18T00:51:03Z</time>
      </trkpt>
      <trkpt lat="42.90283" lon="0.13564">
        <ele>1859</ele>
        <time>2019-01-18T00:52:03Z</time>
      </trkpt>
      <trkpt lat="42.90286" lon="0.13593">
        <ele>1861</ele>
        <time>2019-01-18T00:53:03Z</time>
      </trkpt>
      <trkpt lat="42.90289" lon="0.13601">
        <ele>1861</ele>
        <time>2019-01-18T00:54:03Z</time>
      </trkpt>
      <trkpt lat="42.90296" lon="0.13608">
        <ele>1861</ele>
        <time>2019-01-18T00:55:03Z</time>
      </trkpt>
      <trkpt lat="42.9032" lon="0.13614">
        <ele>1857</ele>
        <time>2019-01-18T00:56:03Z</time>
      </trkpt>
      <trkpt lat="42.90331" lon="0.13619">
        <ele>1856</ele>
        <time>2019-01-18T00:57:03Z</time>
      </trkpt>
      <trkpt lat="42.90343" lon="0.13628">
        <ele>1854</ele>
        <time>2019-01-18T00:58:03Z</time>
      </trkpt>
      <trkpt lat="42.9035" lon="0.13637">
        <ele>1854</ele>
        <time>2019-01-18T00:59:03Z</time>
      </trkpt>
      <trkpt lat="42.90362" lon="0.13666">
        <ele>1855</ele>
        <time>2019-01-18T01:00:03Z</time>
      </trkpt>
      <trkpt lat="42.90365" lon="0.1368">
        <ele>1857</ele>
        <time>2019-01-18T01:01:03Z</time>
      </trkpt>
      <trkpt lat="42.9037" lon="0.13688">
        <ele>1858</ele>
        <time>2019-01-18T01:02:03Z</time>
      </trkpt>
      <trkpt lat="42.90389" lon="0.13699">
        <ele>1857</ele>
        <time>2019-01-18T01:03:03Z</time>
      </trkpt>
      <trkpt lat="42.9042" lon="0.13711">
        <ele>1857</ele>
        <time>2019-01-18T01:04:03Z</time>
      </trkpt>
      <trkpt lat="42.90441" lon="0.13713">
        <ele>1858</ele>
        <time>2019-01-18T01:05:03Z</time>
      </trkpt>
      <trkpt lat="42.90469" lon="0.13709">
        <ele>1857</ele>
        <time>2019-01-18T01:06:03Z</time>
      </trkpt>
      <trkpt lat="42.90485" lon="0.13711">
        <ele>1858</ele>
        <time>2019-01-18T01:07:03Z</time>
      </trkpt>
      <trkpt lat="42.90497" lon="0.13722">
        <ele>1862</ele>
        <time>2019-01-18T01:08:03Z</time>
      </trkpt>
      <trkpt lat="42.90513" lon="0.13741">
        <ele>1866</ele>
        <time>2019-01-18T01:09:03Z</time>
      </trkpt>
      <trkpt lat="42.90525" lon="0.1376">
        <ele>1869</ele>
        <time>2019-01-18T01:10:03Z</time>
      </trkpt>
      <trkpt lat="42.90531" lon="0.13776">
        <ele>1873</ele>
        <time>2019-01-18T01:11:03Z</time>
      </trkpt>
      <trkpt lat="42.9054" lon="0.13793">
        <ele>1877</ele>
        <time>2019-01-18T01:12:03Z</time>
      </trkpt>
      <trkpt lat="42.90556" lon="0.1381">
        <ele>1881</ele>
        <time>2019-01-18T01:13:03Z</time>
      </trkpt>
      <trkpt lat="42.90587" lon="0.13832">
        <ele>1887</ele>
        <time>2019-01-18T01:14:03Z</time>
      </trkpt>
      <trkpt lat="42.90609" lon="0.13842">
        <ele>1890</ele>
        <time>2019-01-18T01:15:03Z</time>
      </trkpt>
      <trkpt lat="42.90625" lon="0.1386">
        <ele>1895</ele>
        <time>2019-01-18T01:16:03Z</time>
      </trkpt>
      <trkpt lat="42.90636" lon="0.13867">
        <ele>1897</ele>
        <time>2019-01-18T01:17:03Z</time>
      </trkpt>
      <trkpt lat="42.90654" lon="0.13869">
        <ele>1897</ele>
        <time>2019-01-18T01:18:03Z</time>
      </trkpt>
      <trkpt lat="42.90695" lon="0.13858">
        <ele>1899</ele>
        <time>2019-01-18T01:19:03Z</time>
      </trkpt>
      <trkpt lat="42.90713" lon="0.13856">
        <ele>1902</ele>
        <time>2019-01-18T01:20:03Z</time>
      </trkpt>
      <trkpt lat="42.90729" lon="0.13858">
        <ele>1906</ele>
        <time>2019-01-18T01:21:03Z</time>
      </trkpt>
      <trkpt lat="42.90737" lon="0.13858">
        <ele>1907</ele>
        <time>2019-01-18T01:22:03Z</time>
      </trkpt>
      <trkpt lat="42.90746" lon="0.13854">
        <ele>1908</ele>
        <time>2019-01-18T01:23:03Z</time>
      </trkpt>
      <trkpt lat="42.90762" lon="0.13839">
        <ele>1907</ele>
        <time>2019-01-18T01:24:03Z</time>
      </trkpt>
      <trkpt lat="42.9077" lon="0.13827">
        <ele>1905</ele>
        <time>2019-01-18T01:25:03Z</time>
      </trkpt>
      <trkpt lat="42.90784" lon="0.13811">
        <ele>1904</ele>
        <time>2019-01-18T01:26:03Z</time>
      </trkpt>
      <trkpt lat="42.90798" lon="0.13801">
        <ele>1904</ele>
        <time>2019-01-18T01:27:03Z</time>
      </trkpt>
      <trkpt lat="42.90836" lon="0.1378">
        <ele>1905</ele>
        <time>2019-01-18T01:28:03Z</time>
      </trkpt>
      <trkpt lat="42.90861" lon="0.13778">
        <ele>1908</ele>
        <time>2019-01-18T01:29:03Z</time>
      </trkpt>
      <trkpt lat="42.90892" lon="0.13781">
        <ele>1914</ele>
        <time>2019-01-18T01:30:03Z</time>
      </trkpt>
      <trkpt lat="42.9093" lon="0.13794">
        <ele>1924</ele>
        <time>2019-01-18T01:31:03Z</time>
      </trkpt>
      <trkpt lat="42.90956" lon="0.138">
        <ele>1926</ele>
        <time>2019-01-18T01:32:03Z</time>
      </trkpt>
      <trkpt lat="42.91028" lon="0.13804">
        <ele>1926</ele>
        <time>2019-01-18T01:33:03Z</time>
      </trkpt>
      <trkpt lat="42.91052" lon="0.13804">
        <ele>1925</ele>
        <time>2019-01-18T01:34:03Z</time>
      </trkpt>
      <trkpt lat="42.91063" lon="0.13811">
        <ele>1928</ele>
        <time>2019-01-18T01:35:03Z</time>
      </trkpt>
      <trkpt lat="42.91072" lon="0.13821">
        <ele>1932</ele>
        <time>2019-01-18T01:36:03Z</time>
      </trkpt>
      <trkpt lat="42.91089" lon="0.13853">
        <ele>1946</ele>
        <time>2019-01-18T01:37:03Z</time>
      </trkpt>
      <trkpt lat="42.91093" lon="0.13856">
        <ele>1947</ele>
        <time>2019-01-18T01:38:03Z</time>
      </trkpt>
      <trkpt lat="42.91101" lon="0.13857">
        <ele>1948</ele>
        <time>2019-01-18T01:39:03Z</time>
      </trkpt>
      <trkpt lat="42.91106" lon="0.13854">
        <ele>1947</ele>
        <time>2019-01-18T01:40:03Z</time>
      </trkpt>
      <trkpt lat="42.91144" lon="0.13806">
        <ele>1926</ele>
        <time>2019-01-18T01:41:03Z</time>
      </trkpt>
      <trkpt lat="42.91158" lon="0.13793">
        <ele>1920</ele>
        <time>2019-01-18T01:42:03Z</time>
      </trkpt>
      <trkpt lat="42.91172" lon="0.13788">
        <ele>1919</ele>
        <time>2019-01-18T01:43:03Z</time>
      </trkpt>
      <trkpt lat="42.91186" lon="0.13786">
        <ele>1923</ele>
        <time>2019-01-18T01:44:03Z</time>
      </trkpt>
      <trkpt lat="42.91208" lon="0.13786">
        <ele>1930</ele>
        <time>2019-01-18T01:45:03Z</time>
      </trkpt>
      <trkpt lat="42.9123" lon="0.13781">
        <ele>1935</ele>
        <time>2019-01-18T01:46:03Z</time>
      </trkpt>
      <trkpt lat="42.91251" lon="0.13768">
        <ele>1937</ele>
        <time>2019-01-18T01:47:03Z</time>
      </trkpt>
      <trkpt lat="42.9126" lon="0.1376">
        <ele>1937</ele>
        <time>2019-01-18T01:48:03Z</time>
      </trkpt>
      <trkpt lat="42.91268" lon="0.13748">
        <ele>1934</ele>
        <time>2019-01-18T01:49:03Z</time>
      </trkpt>
      <trkpt lat="42.91286" lon="0.13708">
        <ele>1926</ele>
        <time>2019-01-18T01:50:03Z</time>
      </trkpt>
      <trkpt lat="42.91295" lon="0.13694">
        <ele>1924</ele>
        <time>2019-01-18T01:51:03Z</time>
      </trkpt>
      <trkpt lat="42.91306" lon="0.13683">
        <ele>1924</ele>
        <time>2019-01-18T01:52:03Z</time>
      </trkpt>
      <trkpt lat="42.91321" lon="0.13677">
        <ele>1928</ele>
        <time>2019-01-18T01:53:03Z</time>
      </trkpt>
      <trkpt lat="42.91329" lon="0.1368">
        <ele>1932</ele>
        <time>2019-01-18T01:54:03Z</time>
      </trkpt>
      <trkpt lat="42.91334" lon="0.13684">
        <ele>1935</ele>
        <time>2019-01-18T01:55:03Z</time>
      </trkpt>
      <trkpt lat="42.91338" lon="0.13692">
        <ele>1939</ele>
        <time>2019-01-18T01:56:03Z</time>
      </trkpt>
      <trkpt lat="42.9134" lon="0.13701">
        <ele>1942</ele>
        <time>2019-01-18T01:57:03Z</time>
      </trkpt>
      <trkpt lat="42.91338" lon="0.13709">
        <ele>1944</ele>
        <time>2019-01-18T01:58:03Z</time>
      </trkpt>
      <trkpt lat="42.91333" lon="0.13716">
        <ele>1945</ele>
        <time>2019-01-18T01:59:03Z</time>
      </trkpt>
      <trkpt lat="42.91308" lon="0.13732">
        <ele>1942</ele>
        <time>2019-01-18T02:00:03Z</time>
      </trkpt>
      <trkpt lat="42.91293" lon="0.13747">
        <ele>1942</ele>
        <time>2019-01-18T02:01:03Z</time>
      </trkpt>
      <trkpt lat="42.91272" lon="0.13784">
        <ele>1951</ele>
        <time>2019-01-18T02:02:03Z</time>
      </trkpt>
      <trkpt lat="42.91249" lon="0.13815">
        <ele>1955</ele>
        <time>2019-01-18T02:03:03Z</time>
      </trkpt>
      <trkpt lat="42.91229" lon="0.13828">
        <ele>1955</ele>
        <time>2019-01-18T02:04:03Z</time>
      </trkpt>
      <trkpt lat="42.91211" lon="0.13836">
        <ele>1954</ele>
        <time>2019-01-18T02:05:03Z</time>
      </trkpt>
      <trkpt lat="42.91181" lon="0.13843">
        <ele>1949</ele>
        <time>2019-01-18T02:06:03Z</time>
      </trkpt>
      <trkpt lat="42.91171" lon="0.13851">
        <ele>1951</ele>
        <time>2019-01-18T02:07:03Z</time>
      </trkpt>
      <trkpt lat="42.91145" lon="0.13896">
        <ele>1974</ele>
        <time>2019-01-18T02:08:03Z</time>
      </trkpt>
      <trkpt lat="42.91128" lon="0.1394">
        <ele>1995</ele>
        <time>2019-01-18T02:09:03Z</time>
      </trkpt>
      <trkpt lat="42.91122" lon="0.13948">
        <ele>1999</ele>
        <time>2019-01-18T02:10:03Z</time>
      </trkpt>
      <trkpt lat="42.91115" lon="0.13951">
        <ele>1999</ele>
        <time>2019-01-18T02:11:03Z</time>
      </trkpt>
      <trkpt lat="42.91009" lon="0.13932">
        <ele>1992</ele>
        <time>2019-01-18T02:12:03Z</time>
      </trkpt>
      <trkpt lat="42.90933" lon="0.13932">
        <ele>1998</ele>
        <time>2019-01-18T02:13:03Z</time>
      </trkpt>
      <trkpt lat="42.90906" lon="0.13941">
        <ele>2000</ele>
        <time>2019-01-18T02:14:03Z</time>
      </trkpt>
      <trkpt lat="42.90883" lon="0.1396">
        <ele>2001</ele>
        <time>2019-01-18T02:15:03Z</time>
      </trkpt>
      <trkpt lat="42.90866" lon="0.13979">
        <ele>2002</ele>
        <time>2019-01-18T02:16:03Z</time>
      </trkpt>
      <trkpt lat="42.90844" lon="0.14008">
        <ele>2005</ele>
        <time>2019-01-18T02:17:03Z</time>
      </trkpt>
      <trkpt lat="42.90815" lon="0.1403">
        <ele>2004</ele>
        <time>2019-01-18T02:18:03Z</time>
      </trkpt>
      <trkpt lat="42.90802" lon="0.14047">
        <ele>2007</ele>
        <time>2019-01-18T02:19:03Z</time>
      </trkpt>
      <trkpt lat="42.90795" lon="0.14059">
        <ele>2010</ele>
        <time>2019-01-18T02:20:03Z</time>
      </trkpt>
      <trkpt lat="42.90774" lon="0.14083">
        <ele>2013</ele>
        <time>2019-01-18T02:21:03Z</time>
      </trkpt>
      <trkpt lat="42.9076" lon="0.14105">
        <ele>2014</ele>
        <time>2019-01-18T02:22:03Z</time>
      </trkpt>
      <trkpt lat="42.9074" lon="0.14144">
        <ele>2018</ele>
        <time>2019-01-18T02:23:03Z</time>
      </trkpt>
      <trkpt lat="42.90724" lon="0.14198">
        <ele>2021</ele>
        <time>2019-01-18T02:24:03Z</time>
      </trkpt>
      <trkpt lat="42.9072" lon="0.1422">
        <ele>2022</ele>
        <time>2019-01-18T02:25:03Z</time>
      </trkpt>
      <trkpt lat="42.90719" lon="0.14241">
        <ele>2024</ele>
        <time>2019-01-18T02:26:03Z</time>
      </trkpt>
      <trkpt lat="42.90722" lon="0.1426">
        <ele>2028</ele>
        <time>2019-01-18T02:27:03Z</time>
      </trkpt>
      <trkpt lat="42.9073" lon="0.14277">
        <ele>2034</ele>
        <time>2019-01-18T02:28:03Z</time>
      </trkpt>
      <trkpt lat="42.90744" lon="0.14313">
        <ele>2044</ele>
        <time>2019-01-18T02:29:03Z</time>
      </trkpt>
      <trkpt lat="42.90748" lon="0.14332">
        <ele>2047</ele>
        <time>2019-01-18T02:30:03Z</time>
      </trkpt>
      <trkpt lat="42.90748" lon="0.14362">
        <ele>2053</ele>
        <time>2019-01-18T02:31:03Z</time>
      </trkpt>
      <trkpt lat="42.90745" lon="0.14378">
        <ele>2056</ele>
        <time>2019-01-18T02:32:03Z</time>
      </trkpt>
      <trkpt lat="42.90738" lon="0.1439">
        <ele>2056</ele>
        <time>2019-01-18T02:33:03Z</time>
      </trkpt>
      <trkpt lat="42.90728" lon="0.14395">
        <ele>2054</ele>
        <time>2019-01-18T02:34:03Z</time>
      </trkpt>
      <trkpt lat="42.90715" lon="0.14406">
        <ele>2053</ele>
        <time>2019-01-18T02:35:03Z</time>
      </trkpt>
      <trkpt lat="42.90701" lon="0.14422">
        <ele>2054</ele>
        <time>2019-01-18T02:36:03Z</time>
      </trkpt>
      <trkpt lat="42.90635" lon="0.14458">
        <ele>2050</ele>
        <time>2019-01-18T02:37:03Z</time>
      </trkpt>
      <trkpt lat="42.90626" lon="0.14469">
        <ele>2051</ele>
        <time>2019-01-18T02:38:03Z</time>
      </trkpt>
      <trkpt lat="42.90619" lon="0.14484">
        <ele>2055</ele>
        <time>2019-01-18T02:39:03Z</time>
      </trkpt>
      <trkpt lat="42.90605" lon="0.14524">
        <ele>2063</ele>
        <time>2019-01-18T02:40:03Z</time>
      </trkpt>
      <trkpt lat="42.90597" lon="0.14556">
        <ele>2069</ele>
        <time>2019-01-18T02:41:03Z</time>
      </trkpt>
      <trkpt lat="42.90585" lon="0.14589">
        <ele>2074</ele>
        <time>2019-01-18T02:42:03Z</time>
      </trkpt>
      <trkpt lat="42.90567" lon="0.14619">
        <ele>2079</ele>
        <time>2019-01-18T02:43:03Z</time>
      </trkpt>
      <trkpt lat="42.90557" lon="0.14632">
        <ele>2081</ele>
        <time>2019-01-18T02:44:03Z</time>
      </trkpt>
      <trkpt lat="42.90546" lon="0.1464">
        <ele>2081</ele>
        <time>2019-01-18T02:45:03Z</time>
      </trkpt>
      <trkpt lat="42.90518" lon="0.14653">
        <ele>2079</ele>
        <time>2019-01-18T02:46:03Z</time>
      </trkpt>
      <trkpt lat="42.90516" lon="0.14658">
        <ele>2080</ele>
        <time>2019-01-18T02:47:03Z</time>
      </trkpt>
      <trkpt lat="42.90517" lon="0.14665">
        <ele>2083</ele>
        <time>2019-01-18T02:48:03Z</time>
      </trkpt>
      <trkpt lat="42.9052" lon="0.1467">
        <ele>2086</ele>
        <time>2019-01-18T02:49:03Z</time>
      </trkpt>
      <trkpt lat="42.90523" lon="0.14671">
        <ele>2086</ele>
        <time>2019-01-18T02:50:03Z</time>
      </trkpt>
      <trkpt lat="42.90563" lon="0.14655">
        <ele>2090</ele>
        <time>2019-01-18T02:51:03Z</time>
      </trkpt>
      <trkpt lat="42.9058" lon="0.1464">
        <ele>2089</ele>
        <time>2019-01-18T02:52:03Z</time>
      </trkpt>
      <trkpt lat="42.90598" lon="0.14611">
        <ele>2085</ele>
        <time>2019-01-18T02:53:03Z</time>
      </trkpt>
      <trkpt lat="42.9063" lon="0.1458">
        <ele>2091</ele>
        <time>2019-01-18T02:54:03Z</time>
      </trkpt>
      <trkpt lat="42.90663" lon="0.14559">
        <ele>2098</ele>
        <time>2019-01-18T02:55:03Z</time>
      </trkpt>
      <trkpt lat="42.90681" lon="0.14526">
        <ele>2092</ele>
        <time>2019-01-18T02:56:03Z</time>
      </trkpt>
      <trkpt lat="42.90687" lon="0.14519">
        <ele>2091</ele>
        <time>2019-01-18T02:57:03Z</time>
      </trkpt>
      <trkpt lat="42.90693" lon="0.14515">
        <ele>2091</ele>
        <time>2019-01-18T02:58:03Z</time>
      </trkpt>
      <trkpt lat="42.90737" lon="0.14507">
        <ele>2100</ele>
        <time>2019-01-18T02:59:03Z</time>
      </trkpt>
      <trkpt lat="42.90746" lon="0.14508">
        <ele>2103</ele>
        <time>2019-01-18T03:00:03Z</time>
      </trkpt>
      <trkpt lat="42.9078" lon="0.14518">
        <ele>2110</ele>
        <time>2019-01-18T03:01:03Z</time>
      </trkpt>
      <trkpt lat="42.90792" lon="0.14515">
        <ele>2111</ele>
        <time>2019-01-18T03:02:03Z</time>
      </trkpt>
      <trkpt lat="42.90802" lon="0.14508">
        <ele>2112</ele>
        <time>2019-01-18T03:03:03Z</time>
      </trkpt>
      <trkpt lat="42.90813" lon="0.14506">
        <ele>2114</ele>
        <time>2019-01-18T03:04:03Z</time>
      </trkpt>
      <trkpt lat="42.90824" lon="0.14508">
        <ele>2115</ele>
        <time>2019-01-18T03:05:03Z</time>
      </trkpt>
      <trkpt lat="42.90839" lon="0.14528">
        <ele>2118</ele>
        <time>2019-01-18T03:06:03Z</time>
      </trkpt>
      <trkpt lat="42.90859" lon="0.14576">
        <ele>2120</ele>
        <time>2019-01-18T03:07:03Z</time>
      </trkpt>
      <trkpt lat="42.90861" lon="0.14588">
        <ele>2119</ele>
        <time>2019-01-18T03:08:03Z</time>
      </trkpt>
      <trkpt lat="42.90858" lon="0.146">
        <ele>2116</ele>
        <time>2019-01-18T03:09:03Z</time>
      </trkpt>
      <trkpt lat="42.90854" lon="0.1461">
        <ele>2113</ele>
        <time>2019-01-18T03:10:03Z</time>
      </trkpt>
      <trkpt lat="42.9076" lon="0.14729">
        <ele>2095</ele>
        <time>2019-01-18T03:11:03Z</time>
      </trkpt>
      <trkpt lat="42.90731" lon="0.14759">
        <ele>2088</ele>
        <time>2019-01-18T03:12:03Z</time>
      </trkpt>
      <trkpt lat="42.90629" lon="0.14788">
        <ele>2085</ele>
        <time>2019-01-18T03:13:03Z</time>
      </trkpt>
      <trkpt lat="42.90606" lon="0.14801">
        <ele>2084</ele>
        <time>2019-01-18T03:14:03Z</time>
      </trkpt>
      <trkpt lat="42.90601" lon="0.14811">
        <ele>2082</ele>
        <time>2019-01-18T03:15:03Z</time>
      </trkpt>
      <trkpt lat="42.90602" lon="0.14822">
        <ele>2080</ele>
        <time>2019-01-18T03:16:03Z</time>
      </trkpt>
      <trkpt lat="42.90604" lon="0.14825">
        <ele>2079</ele>
        <time>2019-01-18T03:17:03Z</time>
      </trkpt>
      <trkpt lat="42.90615" lon="0.1483">
        <ele>2076</ele>
        <time>2019-01-18T03:18:03Z</time>
      </trkpt>
      <trkpt lat="42.90639" lon="0.14818">
        <ele>2076</ele>
        <time>2019-01-18T03:19:03Z</time>
      </trkpt>
      <trkpt lat="42.90653" lon="0.14816">
        <ele>2075</ele>
        <time>2019-01-18T03:20:03Z</time>
      </trkpt>
      <trkpt lat="42.90673" lon="0.14823">
        <ele>2072</ele>
        <time>2019-01-18T03:21:03Z</time>
      </trkpt>
      <trkpt lat="42.90734" lon="0.14869">
        <ele>2059</ele>
        <time>2019-01-18T03:22:03Z</time>
      </trkpt>
      <trkpt lat="42.90745" lon="0.14872">
        <ele>2059</ele>
        <time>2019-01-18T03:23:03Z</time>
      </trkpt>
      <trkpt lat="42.90771" lon="0.14868">
        <ele>2060</ele>
        <time>2019-01-18T03:24:03Z</time>
      </trkpt>
      <trkpt lat="42.90782" lon="0.14873">
        <ele>2059</ele>
        <time>2019-01-18T03:25:03Z</time>
      </trkpt>
      <trkpt lat="42.908" lon="0.14885">
        <ele>2056</ele>
        <time>2019-01-18T03:26:03Z</time>
      </trkpt>
      <trkpt lat="42.90861" lon="0.14889">
        <ele>2058</ele>
        <time>2019-01-18T03:27:03Z</time>
      </trkpt>
      <trkpt lat="42.90868" lon="0.14899">
        <ele>2057</ele>
        <time>2019-01-18T03:28:03Z</time>
      </trkpt>
      <trkpt lat="42.90868" lon="0.14911">
        <ele>2054</ele>
        <time>2019-01-18T03:29:03Z</time>
      </trkpt>
      <trkpt lat="42.90858" lon="0.14952">
        <ele>2044</ele>
        <time>2019-01-18T03:30:03Z</time>
      </trkpt>
      <trkpt lat="42.90857" lon="0.14975">
        <ele>2040</ele>
        <time>2019-01-18T03:31:03Z</time>
      </trkpt>
      <trkpt lat="42.90864" lon="0.15008">
        <ele>2035</ele>
        <time>2019-01-18T03:32:03Z</time>
      </trkpt>
      <trkpt lat="42.90877" lon="0.15031">
        <ele>2036</ele>
        <time>2019-01-18T03:33:03Z</time>
      </trkpt>
      <trkpt lat="42.90895" lon="0.1509">
        <ele>2033</ele>
        <time>2019-01-18T03:34:03Z</time>
      </trkpt>
      <trkpt lat="42.90901" lon="0.15111">
        <ele>2034</ele>
        <time>2019-01-18T03:35:03Z</time>
      </trkpt>
      <trkpt lat="42.90901" lon="0.15128">
        <ele>2032</ele>
        <time>2019-01-18T03:36:03Z</time>
      </trkpt>
      <trkpt lat="42.90892" lon="0.15157">
        <ele>2027</ele>
        <time>2019-01-18T03:37:03Z</time>
      </trkpt>
      <trkpt lat="42.90875" lon="0.15238">
        <ele>2018</ele>
        <time>2019-01-18T03:38:03Z</time>
      </trkpt>
      <trkpt lat="42.9084" lon="0.15332">
        <ele>2010</ele>
        <time>2019-01-18T03:39:03Z</time>
      </trkpt>
      <trkpt lat="42.90839" lon="0.1535">
        <ele>2008</ele>
        <time>2019-01-18T03:40:03Z</time>
      </trkpt>
      <trkpt lat="42.90841" lon="0.15365">
        <ele>2007</ele>
        <time>2019-01-18T03:41:03Z</time>
      </trkpt>
      <trkpt lat="42.90847" lon="0.15389">
        <ele>2005</ele>
        <time>2019-01-18T03:42:03Z</time>
      </trkpt>
      <trkpt lat="42.90871" lon="0.15448">
        <ele>2000</ele>
        <time>2019-01-18T03:43:03Z</time>
      </trkpt>
      <trkpt lat="42.90877" lon="0.15455">
        <ele>2000</ele>
        <time>2019-01-18T03:44:03Z</time>
      </trkpt>
      <trkpt lat="42.90885" lon="0.15459">
        <ele>2001</ele>
        <time>2019-01-18T03:45:03Z</time>
      </trkpt>
      <trkpt lat="42.90912" lon="0.15462">
        <ele>2005</ele>
        <time>2019-01-18T03:46:03Z</time>
      </trkpt>
      <trkpt lat="42.90919" lon="0.15468">
        <ele>2005</ele>
        <time>2019-01-18T03:47:03Z</time>
      </trkpt>
      <trkpt lat="42.90967" lon="0.15538">
        <ele>1997</ele>
        <time>2019-01-18T03:48:03Z</time>
      </trkpt>
      <trkpt lat="42.90989" lon="0.15553">
        <ele>1997</ele>
        <time>2019-01-18T03:49:03Z</time>
      </trkpt>
      <trkpt lat="42.91005" lon="0.1557">
        <ele>1996</ele>
        <time>2019-01-18T03:50:03Z</time>
      </trkpt>
      <trkpt lat="42.91012" lon="0.15585">
        <ele>1994</ele>
        <time>2019-01-18T03:51:03Z</time>
      </trkpt>
      <trkpt lat="42.91016" lon="0.15598">
        <ele>1994</ele>
        <time>2019-01-18T03:52:03Z</time>
      </trkpt>
      <trkpt lat="42.91014" lon="0.15611">
        <ele>1992</ele>
        <time>2019-01-18T03:53:03Z</time>
      </trkpt>
      <trkpt lat="42.91011" lon="0.15619">
        <ele>1990</ele>
        <time>2019-01-18T03:54:03Z</time>
      </trkpt>
      <trkpt lat="42.90998" lon="0.15624">
        <ele>1985</ele>
        <time>2019-01-18T03:55:03Z</time>
      </trkpt>
      <trkpt lat="42.90986" lon="0.15619">
        <ele>1984</ele>
        <time>2019-01-18T03:56:03Z</time>
      </trkpt>
      <trkpt lat="42.90972" lon="0.15601">
        <ele>1985</ele>
        <time>2019-01-18T03:57:03Z</time>
      </trkpt>
      <trkpt lat="42.90964" lon="0.15597">
        <ele>1984</ele>
        <time>2019-01-18T03:58:03Z</time>
      </trkpt>
      <trkpt lat="42.90956" lon="0.15598">
        <ele>1983</ele>
        <time>2019-01-18T03:59:03Z</time>
      </trkpt>
      <trkpt lat="42.90942" lon="0.15604">
        <ele>1980</ele>
        <time>2019-01-18T04:00:03Z</time>
      </trkpt>
      <trkpt lat="42.909" lon="0.15635">
        <ele>1971</ele>
        <time>2019-01-18T04:01:03Z</time>
      </trkpt>
      <trkpt lat="42.90891" lon="0.15639">
        <ele>1970</ele>
        <time>2019-01-18T04:02:03Z</time>
      </trkpt>
      <trkpt lat="42.90878" lon="0.15638">
        <ele>1968</ele>
        <time>2019-01-18T04:03:03Z</time>
      </trkpt>
      <trkpt lat="42.90862" lon="0.15632">
        <ele>1967</ele>
        <time>2019-01-18T04:04:03Z</time>
      </trkpt>
      <trkpt lat="42.90847" lon="0.15625">
        <ele>1967</ele>
        <time>2019-01-18T04:05:03Z</time>
      </trkpt>
      <trkpt lat="42.90839" lon="0.15618">
        <ele>1967</ele>
        <time>2019-01-18T04:06:03Z</time>
      </trkpt>
      <trkpt lat="42.90828" lon="0.15617">
        <ele>1965</ele>
        <time>2019-01-18T04:07:03Z</time>
      </trkpt>
      <trkpt lat="42.90814" lon="0.15623">
        <ele>1961</ele>
        <time>2019-01-18T04:08:03Z</time>
      </trkpt>
      <trkpt lat="42.90805" lon="0.15621">
        <ele>1959</ele>
        <time>2019-01-18T04:09:03Z</time>
      </trkpt>
      <trkpt lat="42.90794" lon="0.15608">
        <ele>1958</ele>
        <time>2019-01-18T04:10:03Z</time>
      </trkpt>
      <trkpt lat="42.90784" lon="0.15591">
        <ele>1959</ele>
        <time>2019-01-18T04:11:03Z</time>
      </trkpt>
      <trkpt lat="42.90766" lon="0.1557">
        <ele>1957</ele>
        <time>2019-01-18T04:12:03Z</time>
      </trkpt>
      <trkpt lat="42.9075" lon="0.15558">
        <ele>1954</ele>
        <time>2019-01-18T04:13:03Z</time>
      </trkpt>
      <trkpt lat="42.90734" lon="0.15553">
        <ele>1950</ele>
        <time>2019-01-18T04:14:03Z</time>
      </trkpt>
      <trkpt lat="42.90706" lon="0.15513">
        <ele>1946</ele>
        <time>2019-01-18T04:15:03Z</time>
      </trkpt>
      <trkpt lat="42.9069" lon="0.15494">
        <ele>1944</ele>
        <time>2019-01-18T04:16:03Z</time>
      </trkpt>
      <trkpt lat="42.90679" lon="0.15476">
        <ele>1941</ele>
        <time>2019-01-18T04:17:03Z</time>
      </trkpt>
      <trkpt lat="42.90674" lon="0.15456">
        <ele>1940</ele>
        <time>2019-01-18T04:18:03Z</time>
      </trkpt>
      <trkpt lat="42.90676" lon="0.15426">
        <ele>1942</ele>
        <time>2019-01-18T04:19:03Z</time>
      </trkpt>
      <trkpt lat="42.9068" lon="0.15401">
        <ele>1945</ele>
        <time>2019-01-18T04:20:03Z</time>
      </trkpt>
      <trkpt lat="42.90673" lon="0.15388">
        <ele>1944</ele>
        <time>2019-01-18T04:21:03Z</time>
      </trkpt>
      <trkpt lat="42.90666" lon="0.15386">
        <ele>1941</ele>
        <time>2019-01-18T04:22:03Z</time>
      </trkpt>
      <trkpt lat="42.9066" lon="0.15391">
        <ele>1940</ele>
        <time>2019-01-18T04:23:03Z</time>
      </trkpt>
      <trkpt lat="42.90654" lon="0.15407">
        <ele>1938</ele>
        <time>2019-01-18T04:24:03Z</time>
      </trkpt>
      <trkpt lat="42.90651" lon="0.15441">
        <ele>1935</ele>
        <time>2019-01-18T04:25:03Z</time>
      </trkpt>
      <trkpt lat="42.90651" lon="0.15509">
        <ele>1932</ele>
        <time>2019-01-18T04:26:03Z</time>
      </trkpt>
      <trkpt lat="42.90662" lon="0.15549">
        <ele>1929</ele>
        <time>2019-01-18T04:27:03Z</time>
      </trkpt>
      <trkpt lat="42.90667" lon="0.15595">
        <ele>1923</ele>
        <time>2019-01-18T04:28:03Z</time>
      </trkpt>
      <trkpt lat="42.90684" lon="0.15651">
        <ele>1917</ele>
        <time>2019-01-18T04:29:03Z</time>
      </trkpt>
      <trkpt lat="42.90698" lon="0.1569">
        <ele>1914</ele>
        <time>2019-01-18T04:30:03Z</time>
      </trkpt>
      <trkpt lat="42.90727" lon="0.15737">
        <ele>1913</ele>
        <time>2019-01-18T04:31:03Z</time>
      </trkpt>
      <trkpt lat="42.90745" lon="0.15791">
        <ele>1907</ele>
        <time>2019-01-18T04:32:03Z</time>
      </trkpt>
      <trkpt lat="42.90762" lon="0.15815">
        <ele>1906</ele>
        <time>2019-01-18T04:33:03Z</time>
      </trkpt>
      <trkpt lat="42.90798" lon="0.15872">
        <ele>1900</ele>
        <time>2019-01-18T04:34:03Z</time>
      </trkpt>
      <trkpt lat="42.90832" lon="0.15917">
        <ele>1899</ele>
        <time>2019-01-18T04:35:03Z</time>
      </trkpt>
      <trkpt lat="42.90851" lon="0.15968">
        <ele>1893</ele>
        <time>2019-01-18T04:36:03Z</time>
      </trkpt>
      <trkpt lat="42.90861" lon="0.16032">
        <ele>1886</ele>
        <time>2019-01-18T04:37:03Z</time>
      </trkpt>
      <trkpt lat="42.9089" lon="0.16169">
        <ele>1874</ele>
        <time>2019-01-18T04:38:03Z</time>
      </trkpt>
      <trkpt lat="42.9091" lon="0.16226">
        <ele>1869</ele>
        <time>2019-01-18T04:39:03Z</time>
      </trkpt>
      <trkpt lat="42.90938" lon="0.16289">
        <ele>1869</ele>
        <time>2019-01-18T04:40:03Z</time>
      </trkpt>
      <trkpt lat="42.90945" lon="0.16317">
        <ele>1867</ele>
        <time>2019-01-18T04:41:03Z</time>
      </trkpt>
      <trkpt lat="42.90952" lon="0.16372">
        <ele>1862</ele>
        <time>2019-01-18T04:42:03Z</time>
      </trkpt>
      <trkpt lat="42.90964" lon="0.16427">
        <ele>1860</ele>
        <time>2019-01-18T04:43:03Z</time>
      </trkpt>
      <trkpt lat="42.90963" lon="0.16449">
        <ele>1858</ele>
        <time>2019-01-18T04:44:03Z</time>
      </trkpt>
      <trkpt lat="42.90955" lon="0.16494">
        <ele>1852</ele>
        <time>2019-01-18T04:45:03Z</time>
      </trkpt>
      <trkpt lat="42.90954" lon="0.16534">
        <ele>1850</ele>
        <time>2019-01-18T04:46:03Z</time>
      </trkpt>
      <trkpt lat="42.90945" lon="0.16576">
        <ele>1845</ele>
        <time>2019-01-18T04:47:03Z</time>
      </trkpt>
      <trkpt lat="42.90942" lon="0.16601">
        <ele>1843</ele>
        <time>2019-01-18T04:48:03Z</time>
      </trkpt>
      <trkpt lat="42.90941" lon="0.16627">
        <ele>1842</ele>
        <time>2019-01-18T04:49:03Z</time>
      </trkpt>
      <trkpt lat="42.90942" lon="0.16706">
        <ele>1838</ele>
        <time>2019-01-18T04:50:03Z</time>
      </trkpt>
      <trkpt lat="42.90944" lon="0.16726">
        <ele>1836</ele>
        <time>2019-01-18T04:51:03Z</time>
      </trkpt>
      <trkpt lat="42.90946" lon="0.16744">
        <ele>1835</ele>
        <time>2019-01-18T04:52:03Z</time>
      </trkpt>
      <trkpt lat="42.90953" lon="0.16763">
        <ele>1835</ele>
        <time>2019-01-18T04:53:03Z</time>
      </trkpt>
      <trkpt lat="42.90959" lon="0.16779">
        <ele>1835</ele>
        <time>2019-01-18T04:54:03Z</time>
      </trkpt>
      <trkpt lat="42.9098" lon="0.16818">
        <ele>1834</ele>
        <time>2019-01-18T04:55:03Z</time>
      </trkpt>
      <trkpt lat="42.90987" lon="0.16852">
        <ele>1828</ele>
        <time>2019-01-18T04:56:03Z</time>
      </trkpt>
      <trkpt lat="42.90996" lon="0.16883">
        <ele>1824</ele>
        <time>2019-01-18T04:57:03Z</time>
      </trkpt>
      <trkpt lat="42.91019" lon="0.16937">
        <ele>1823</ele>
        <time>2019-01-18T04:58:03Z</time>
      </trkpt>
      <trkpt lat="42.91021" lon="0.16945">
        <ele>1823</ele>
        <time>2019-01-18T04:59:03Z</time>
      </trkpt>
      <trkpt lat="42.91024" lon="0.1698">
        <ele>1821</ele>
        <time>2019-01-18T05:00:03Z</time>
      </trkpt>
      <trkpt lat="42.91028" lon="0.17148">
        <ele>1805</ele>
        <time>2019-01-18T05:01:03Z</time>
      </trkpt>
      <trkpt lat="42.91025" lon="0.17294">
        <ele>1794</ele>
        <time>2019-01-18T05:02:03Z</time>
      </trkpt>
      <trkpt lat="42.91028" lon="0.17332">
        <ele>1792</ele>
        <time>2019-01-18T05:03:03Z</time>
      </trkpt>
      <trkpt lat="42.91049" lon="0.17402">
        <ele>1793</ele>
        <time>2019-01-18T05:04:03Z</time>
      </trkpt>
      <trkpt lat="42.91054" lon="0.1743">
        <ele>1792</ele>
        <time>2019-01-18T05:05:03Z</time>
      </trkpt>
      <trkpt lat="42.91056" lon="0.17511">
        <ele>1783</ele>
        <time>2019-01-18T05:06:03Z</time>
      </trkpt>
      <trkpt lat="42.91054" lon="0.17558">
        <ele>1778</ele>
        <time>2019-01-18T05:07:03Z</time>
      </trkpt>
      <trkpt lat="42.91055" lon="0.17592">
        <ele>1774</ele>
        <time>2019-01-18T05:08:03Z</time>
      </trkpt>
      <trkpt lat="42.9106" lon="0.17613">
        <ele>1773</ele>
        <time>2019-01-18T05:09:03Z</time>
      </trkpt>
      <trkpt lat="42.91101" lon="0.17737">
        <ele>1769</ele>
        <time>2019-01-18T05:10:03Z</time>
      </trkpt>
      <trkpt lat="42.91107" lon="0.17813">
        <ele>1761</ele>
        <time>2019-01-18T05:11:03Z</time>
      </trkpt>
      <trkpt lat="42.91105" lon="0.17854">
        <ele>1758</ele>
        <time>2019-01-18T05:12:03Z</time>
      </trkpt>
      <trkpt lat="42.911" lon="0.1787">
        <ele>1757</ele>
        <time>2019-01-18T05:13:03Z</time>
      </trkpt>
      <trkpt lat="42.91093" lon="0.17882">
        <ele>1756</ele>
        <time>2019-01-18T05:14:03Z</time>
      </trkpt>
      <trkpt lat="42.91079" lon="0.17894">
        <ele>1754</ele>
        <time>2019-01-18T05:15:03Z</time>
      </trkpt>
      <trkpt lat="42.91036" lon="0.17916">
        <ele>1750</ele>
        <time>2019-01-18T05:16:03Z</time>
      </trkpt>
      <trkpt lat="42.91023" lon="0.17924">
        <ele>1748</ele>
        <time>2019-01-18T05:17:03Z</time>
      </trkpt>
      <trkpt lat="42.91019" lon="0.17928">
        <ele>1748</ele>
        <time>2019-01-18T05:18:03Z</time>
      </trkpt>
      <trkpt lat="42.91012" lon="0.17938">
        <ele>1746</ele>
        <time>2019-01-18T05:19:03Z</time>
      </trkpt>
      <trkpt lat="42.91008" lon="0.1795">
        <ele>1744</ele>
        <time>2019-01-18T05:20:03Z</time>
      </trkpt>
      <trkpt lat="42.91004" lon="0.17981">
        <ele>1741</ele>
        <time>2019-01-18T05:21:03Z</time>
      </trkpt>
      <trkpt lat="42.91027" lon="0.18106">
        <ele>1737</ele>
        <time>2019-01-18T05:22:03Z</time>
      </trkpt>
      <trkpt lat="42.91046" lon="0.18159">
        <ele>1731</ele>
        <time>2019-01-18T05:23:03Z</time>
      </trkpt>
      <trkpt lat="42.91095" lon="0.18243">
        <ele>1713</ele>
        <time>2019-01-18T05:24:03Z</time>
      </trkpt>
      <trkpt lat="42.91121" lon="0.18331">
        <ele>1709</ele>
        <time>2019-01-18T05:25:03Z</time>
      </trkpt>
      <trkpt lat="42.91127" lon="0.18348">
        <ele>1709</ele>
        <time>2019-01-18T05:26:03Z</time>
      </trkpt>
      <trkpt lat="42.91168" lon="0.18401">
        <ele>1702</ele>
        <time>2019-01-18T05:27:03Z</time>
      </trkpt>
      <trkpt lat="42.91184" lon="0.18412">
        <ele>1700</ele>
        <time>2019-01-18T05:28:03Z</time>
      </trkpt>
      <trkpt lat="42.91227" lon="0.18422">
        <ele>1689</ele>
        <time>2019-01-18T05:29:03Z</time>
      </trkpt>
      <trkpt lat="42.91259" lon="0.18441">
        <ele>1682</ele>
        <time>2019-01-18T05:30:03Z</time>
      </trkpt>
      <trkpt lat="42.91281" lon="0.18466">
        <ele>1678</ele>
        <time>2019-01-18T05:31:03Z</time>
      </trkpt>
      <trkpt lat="42.91293" lon="0.18485">
        <ele>1676</ele>
        <time>2019-01-18T05:32:03Z</time>
      </trkpt>
      <trkpt lat="42.913" lon="0.18501">
        <ele>1675</ele>
        <time>2019-01-18T05:33:03Z</time>
      </trkpt>
      <trkpt lat="42.91332" lon="0.18595">
        <ele>1678</ele>
        <time>2019-01-18T05:34:03Z</time>
      </trkpt>
      <trkpt lat="42.91345" lon="0.18644">
        <ele>1682</ele>
        <time>2019-01-18T05:35:03Z</time>
      </trkpt>
      <trkpt lat="42.9135" lon="0.18653">
        <ele>1682</ele>
        <time>2019-01-18T05:36:03Z</time>
      </trkpt>
      <trkpt lat="42.91359" lon="0.18658">
        <ele>1680</ele>
        <time>2019-01-18T05:37:03Z</time>
      </trkpt>
      <trkpt lat="42.9137" lon="0.18661">
        <ele>1676</ele>
        <time>2019-01-18T05:38:03Z</time>
      </trkpt>
      <trkpt lat="42.91411" lon="0.18656">
        <ele>1659</ele>
        <time>2019-01-18T05:39:03Z</time>
      </trkpt>
      <trkpt lat="42.91428" lon="0.18658">
        <ele>1656</ele>
        <time>2019-01-18T05:40:03Z</time>
      </trkpt>
      <trkpt lat="42.91471" lon="0.18683">
        <ele>1656</ele>
        <time>2019-01-18T05:41:03Z</time>
      </trkpt>
      <trkpt lat="42.91507" lon="0.18711">
        <ele>1655</ele>
        <time>2019-01-18T05:42:03Z</time>
      </trkpt>
      <trkpt lat="42.91516" lon="0.18715">
        <ele>1654</ele>
        <time>2019-01-18T05:43:03Z</time>
      </trkpt>
      <trkpt lat="42.91524" lon="0.18716">
        <ele>1651</ele>
        <time>2019-01-18T05:44:03Z</time>
      </trkpt>
      <trkpt lat="42.91566" lon="0.18712">
        <ele>1637</ele>
        <time>2019-01-18T05:45:03Z</time>
      </trkpt>
      <trkpt lat="42.91584" lon="0.18721">
        <ele>1632</ele>
        <time>2019-01-18T05:46:03Z</time>
      </trkpt>
      <trkpt lat="42.91595" lon="0.18732">
        <ele>1631</ele>
        <time>2019-01-18T05:47:03Z</time>
      </trkpt>
      <trkpt lat="42.91606" lon="0.18752">
        <ele>1631</ele>
        <time>2019-01-18T05:48:03Z</time>
      </trkpt>
      <trkpt lat="42.91624" lon="0.18789">
        <ele>1633</ele>
        <time>2019-01-18T05:49:03Z</time>
      </trkpt>
      <trkpt lat="42.91633" lon="0.18803">
        <ele>1632</ele>
        <time>2019-01-18T05:50:03Z</time>
      </trkpt>
      <trkpt lat="42.91685" lon="0.18854">
        <ele>1627</ele>
        <time>2019-01-18T05:51:03Z</time>
      </trkpt>
      <trkpt lat="42.91721" lon="0.18885">
        <ele>1624</ele>
        <time>2019-01-18T05:52:03Z</time>
      </trkpt>
      <trkpt lat="42.91756" lon="0.18922">
        <ele>1620</ele>
        <time>2019-01-18T05:53:03Z</time>
      </trkpt>
      <trkpt lat="42.91784" lon="0.18959">
        <ele>1620</ele>
        <time>2019-01-18T05:54:03Z</time>
      </trkpt>
      <trkpt lat="42.91815" lon="0.18996">
        <ele>1613</ele>
        <time>2019-01-18T05:55:03Z</time>
      </trkpt>
      <trkpt lat="42.91922" lon="0.19097">
        <ele>1597</ele>
        <time>2019-01-18T05:56:03Z</time>
      </trkpt>
      <trkpt lat="42.91943" lon="0.19129">
        <ele>1596</ele>
        <time>2019-01-18T05:57:03Z</time>
      </trkpt>
      <trkpt lat="42.91956" lon="0.19159">
        <ele>1596</ele>
        <time>2019-01-18T05:58:03Z</time>
      </trkpt>
      <trkpt lat="42.91964" lon="0.19192">
        <ele>1594</ele>
        <time>2019-01-18T05:59:03Z</time>
      </trkpt>
      <trkpt lat="42.91969" lon="0.19241">
        <ele>1590</ele>
        <time>2019-01-18T06:00:03Z</time>
      </trkpt>
      <trkpt lat="42.9197" lon="0.19339">
        <ele>1580</ele>
        <time>2019-01-18T06:01:03Z</time>
      </trkpt>
      <trkpt lat="42.91978" lon="0.19409">
        <ele>1574</ele>
        <time>2019-01-18T06:02:03Z</time>
      </trkpt>
      <trkpt lat="42.91994" lon="0.19467">
        <ele>1566</ele>
        <time>2019-01-18T06:03:03Z</time>
      </trkpt>
      <trkpt lat="42.92056" lon="0.19631">
        <ele>1555</ele>
        <time>2019-01-18T06:04:03Z</time>
      </trkpt>
      <trkpt lat="42.92079" lon="0.19687">
        <ele>1553</ele>
        <time>2019-01-18T06:05:03Z</time>
      </trkpt>
      <trkpt lat="42.92166" lon="0.19864">
        <ele>1539</ele>
        <time>2019-01-18T06:06:03Z</time>
      </trkpt>
      <trkpt lat="42.92235" lon="0.20035">
        <ele>1522</ele>
        <time>2019-01-18T06:07:03Z</time>
      </trkpt>
      <trkpt lat="42.92242" lon="0.20063">
        <ele>1519</ele>
        <time>2019-01-18T06:08:03Z</time>
      </trkpt>
      <trkpt lat="42.92245" lon="0.20094">
        <ele>1515</ele>
        <time>2019-01-18T06:09:03Z</time>
      </trkpt>
      <trkpt lat="42.92244" lon="0.20109">
        <ele>1512</ele>
        <time>2019-01-18T06:10:03Z</time>
      </trkpt>
      <trkpt lat="42.9224" lon="0.20129">
        <ele>1510</ele>
        <time>2019-01-18T06:11:03Z</time>
      </trkpt>
      <trkpt lat="42.92188" lon="0.2028">
        <ele>1503</ele>
        <time>2019-01-18T06:12:03Z</time>
      </trkpt>
      <trkpt lat="42.92172" lon="0.20345">
        <ele>1493</ele>
        <time>2019-01-18T06:13:03Z</time>
      </trkpt>
      <trkpt lat="42.92161" lon="0.20367">
        <ele>1492</ele>
        <time>2019-01-18T06:14:03Z</time>
      </trkpt>
      <trkpt lat="42.92133" lon="0.20413">
        <ele>1491</ele>
        <time>2019-01-18T06:15:03Z</time>
      </trkpt>
      <trkpt lat="42.92099" lon="0.20462">
        <ele>1490</ele>
        <time>2019-01-18T06:16:03Z</time>
      </trkpt>
      <trkpt lat="42.92058" lon="0.20509">
        <ele>1486</ele>
        <time>2019-01-18T06:17:03Z</time>
      </trkpt>
      <trkpt lat="42.92038" lon="0.20535">
        <ele>1482</ele>
        <time>2019-01-18T06:18:03Z</time>
      </trkpt>
      <trkpt lat="42.92001" lon="0.20569">
        <ele>1482</ele>
        <time>2019-01-18T06:19:03Z</time>
      </trkpt>
      <trkpt lat="42.91987" lon="0.20588">
        <ele>1481</ele>
        <time>2019-01-18T06:20:03Z</time>
      </trkpt>
      <trkpt lat="42.91965" lon="0.20627">
        <ele>1474</ele>
        <time>2019-01-18T06:21:03Z</time>
      </trkpt>
      <trkpt lat="42.91925" lon="0.20685">
        <ele>1468</ele>
        <time>2019-01-18T06:22:03Z</time>
      </trkpt>
      <trkpt lat="42.91895" lon="0.20724">
        <ele>1462</ele>
        <time>2019-01-18T06:23:03Z</time>
      </trkpt>
      <trkpt lat="42.91805" lon="0.20816">
        <ele>1452</ele>
        <time>2019-01-18T06:24:03Z</time>
      </trkpt>
      <trkpt lat="42.91725" lon="0.20893">
        <ele>1439</ele>
        <time>2019-01-18T06:25:03Z</time>
      </trkpt>
      <trkpt lat="42.91699" lon="0.20924">
        <ele>1430</ele>
        <time>2019-01-18T06:26:03Z</time>
      </trkpt>
      <trkpt lat="42.91696" lon="0.20935">
        <ele>1429</ele>
        <time>2019-01-18T06:27:03Z</time>
      </trkpt>
      <trkpt lat="42.91696" lon="0.20944">
        <ele>1427</ele>
        <time>2019-01-18T06:28:03Z</time>
      </trkpt>
      <trkpt lat="42.91703" lon="0.20955">
        <ele>1424</ele>
        <time>2019-01-18T06:29:03Z</time>
      </trkpt>
      <trkpt lat="42.91716" lon="0.20955">
        <ele>1423</ele>
        <time>2019-01-18T06:30:03Z</time>
      </trkpt>
      <trkpt lat="42.91725" lon="0.2095">
        <ele>1423</ele>
        <time>2019-01-18T06:31:03Z</time>
      </trkpt>
      <trkpt lat="42.91785" lon="0.20888">
        <ele>1428</ele>
        <time>2019-01-18T06:32:03Z</time>
      </trkpt>
      <trkpt lat="42.91805" lon="0.20864">
        <ele>1432</ele>
        <time>2019-01-18T06:33:03Z</time>
      </trkpt>
      <trkpt lat="42.91824" lon="0.2085">
        <ele>1431</ele>
        <time>2019-01-18T06:34:03Z</time>
      </trkpt>
      <trkpt lat="42.91836" lon="0.20848">
        <ele>1428</ele>
        <time>2019-01-18T06:35:03Z</time>
      </trkpt>
      <trkpt lat="42.91852" lon="0.20848">
        <ele>1424</ele>
        <time>2019-01-18T06:36:03Z</time>
      </trkpt>
      <trkpt lat="42.91861" lon="0.20852">
        <ele>1420</ele>
        <time>2019-01-18T06:37:03Z</time>
      </trkpt>
      <trkpt lat="42.91876" lon="0.20852">
        <ele>1416</ele>
        <time>2019-01-18T06:38:03Z</time>
      </trkpt>
      <trkpt lat="42.91888" lon="0.20848">
        <ele>1414</ele>
        <time>2019-01-18T06:39:03Z</time>
      </trkpt>
      <trkpt lat="42.9196" lon="0.20797">
        <ele>1407</ele>
        <time>2019-01-18T06:40:03Z</time>
      </trkpt>
      <trkpt lat="42.92001" lon="0.20759">
        <ele>1403</ele>
        <time>2019-01-18T06:41:03Z</time>
      </trkpt>
      <trkpt lat="42.92027" lon="0.20742">
        <ele>1400</ele>
        <time>2019-01-18T06:42:03Z</time>
      </trkpt>
      <trkpt lat="42.92078" lon="0.20704">
        <ele>1397</ele>
        <time>2019-01-18T06:43:03Z</time>
      </trkpt>
      <trkpt lat="42.92161" lon="0.20659">
        <ele>1382</ele>
        <time>2019-01-18T06:44:03Z</time>
      </trkpt>
      <trkpt lat="42.92223" lon="0.20598">
        <ele>1382</ele>
        <time>2019-01-18T06:45:03Z</time>
      </trkpt>
      <trkpt lat="42.92279" lon="0.20573">
        <ele>1368</ele>
        <time>2019-01-18T06:46:03Z</time>
      </trkpt>
      <trkpt lat="42.92294" lon="0.20557">
        <ele>1368</ele>
        <time>2019-01-18T06:47:03Z</time>
      </trkpt>
      <trkpt lat="42.92325" lon="0.20502">
        <ele>1370</ele>
        <time>2019-01-18T06:48:03Z</time>
      </trkpt>
      <trkpt lat="42.92356" lon="0.20459">
        <ele>1363</ele>
        <time>2019-01-18T06:49:03Z</time>
      </trkpt>
      <trkpt lat="42.92426" lon="0.20316">
        <ele>1353</ele>
        <time>2019-01-18T06:50:03Z</time>
      </trkpt>
      <trkpt lat="42.92433" lon="0.20296">
        <ele>1351</ele>
        <time>2019-01-18T06:51:03Z</time>
      </trkpt>
      <trkpt lat="42.9244" lon="0.20253">
        <ele>1350</ele>
        <time>2019-01-18T06:52:03Z</time>
      </trkpt>
      <trkpt lat="42.92459" lon="0.20127">
        <ele>1344</ele>
        <time>2019-01-18T06:53:03Z</time>
      </trkpt>
      <trkpt lat="42.92471" lon="0.20071">
        <ele>1338</ele>
        <time>2019-01-18T06:54:03Z</time>
      </trkpt>
      <trkpt lat="42.92478" lon="0.19942">
        <ele>1329</ele>
        <time>2019-01-18T06:55:03Z</time>
      </trkpt>
      <trkpt lat="42.92478" lon="0.1984">
        <ele>1324</ele>
        <time>2019-01-18T06:56:03Z</time>
      </trkpt>
      <trkpt lat="42.92469" lon="0.1979">
        <ele>1333</ele>
        <time>2019-01-18T06:57:03Z</time>
      </trkpt>
      <trkpt lat="42.92471" lon="0.19776">
        <ele>1333</ele>
        <time>2019-01-18T06:58:03Z</time>
      </trkpt>
      <trkpt lat="42.92474" lon="0.19771">
        <ele>1332</ele>
        <time>2019-01-18T06:59:03Z</time>
      </trkpt>
      <trkpt lat="42.92479" lon="0.19769">
        <ele>1329</ele>
        <time>2019-01-18T07:00:03Z</time>
      </trkpt>
      <trkpt lat="42.92498" lon="0.19768">
        <ele>1319</ele>
        <time>2019-01-18T07:01:03Z</time>
      </trkpt>
      <trkpt lat="42.92522" lon="0.19759">
        <ele>1314</ele>
        <time>2019-01-18T07:02:03Z</time>
      </trkpt>
      <trkpt lat="42.92545" lon="0.19748">
        <ele>1309</ele>
        <time>2019-01-18T07:03:03Z</time>
      </trkpt>
      <trkpt lat="42.92567" lon="0.1973">
        <ele>1308</ele>
        <time>2019-01-18T07:04:03Z</time>
      </trkpt>
      <trkpt lat="42.92582" lon="0.19713">
        <ele>1309</ele>
        <time>2019-01-18T07:05:03Z</time>
      </trkpt>
      <trkpt lat="42.92594" lon="0.1971">
        <ele>1309</ele>
        <time>2019-01-18T07:06:03Z</time>
      </trkpt>
      <trkpt lat="42.926" lon="0.19711">
        <ele>1309</ele>
        <time>2019-01-18T07:07:03Z</time>
      </trkpt>
      <trkpt lat="42.92609" lon="0.19721">
        <ele>1307</ele>
        <time>2019-01-18T07:08:03Z</time>
      </trkpt>
      <trkpt lat="42.92618" lon="0.19739">
        <ele>1302</ele>
        <time>2019-01-18T07:09:03Z</time>
      </trkpt>
      <trkpt lat="42.92632" lon="0.19774">
        <ele>1294</ele>
        <time>2019-01-18T07:10:03Z</time>
      </trkpt>
      <trkpt lat="42.92662" lon="0.19814">
        <ele>1285</ele>
        <time>2019-01-18T07:11:03Z</time>
      </trkpt>
      <trkpt lat="42.92677" lon="0.19829">
        <ele>1286</ele>
        <time>2019-01-18T07:12:03Z</time>
      </trkpt>
      <trkpt lat="42.9269" lon="0.19839">
        <ele>1288</ele>
        <time>2019-01-18T07:13:03Z</time>
      </trkpt>
      <trkpt lat="42.92698" lon="0.19851">
        <ele>1288</ele>
        <time>2019-01-18T07:14:03Z</time>
      </trkpt>
      <trkpt lat="42.92708" lon="0.19894">
        <ele>1281</ele>
        <time>2019-01-18T07:15:03Z</time>
      </trkpt>
      <trkpt lat="42.92714" lon="0.19908">
        <ele>1279</ele>
        <time>2019-01-18T07:16:03Z</time>
      </trkpt>
      <trkpt lat="42.9273" lon="0.1993">
        <ele>1277</ele>
        <time>2019-01-18T07:17:03Z</time>
      </trkpt>
      <trkpt lat="42.92829" lon="0.20051">
        <ele>1266</ele>
        <time>2019-01-18T07:18:03Z</time>
      </trkpt>
      <trkpt lat="42.92863" lon="0.20106">
        <ele>1256</ele>
        <time>2019-01-18T07:19:03Z</time>
      </trkpt>
      <trkpt lat="42.92896" lon="0.20142">
        <ele>1251</ele>
        <time>2019-01-18T07:20:03Z</time>
      </trkpt>
      <trkpt lat="42.9297" lon="0.20193">
        <ele>1248</ele>
        <time>2019-01-18T07:21:03Z</time>
      </trkpt>
      <trkpt lat="42.93007" lon="0.20223">
        <ele>1243</ele>
        <time>2019-01-18T07:22:03Z</time>
      </trkpt>
      <trkpt lat="42.93023" lon="0.2024">
        <ele>1240</ele>
        <time>2019-01-18T07:23:03Z</time>
      </trkpt>
      <trkpt lat="42.93051" lon="0.20282">
        <ele>1237</ele>
        <time>2019-01-18T07:24:03Z</time>
      </trkpt>
      <trkpt lat="42.93081" lon="0.2034">
        <ele>1229</ele>
        <time>2019-01-18T07:25:03Z</time>
      </trkpt>
      <trkpt lat="42.93092" lon="0.20355">
        <ele>1227</ele>
        <time>2019-01-18T07:26:03Z</time>
      </trkpt>
      <trkpt lat="42.93112" lon="0.20377">
        <ele>1225</ele>
        <time>2019-01-18T07:27:03Z</time>
      </trkpt>
      <trkpt lat="42.9326" lon="0.20479">
        <ele>1215</ele>
        <time>2019-01-18T07:28:03Z</time>
      </trkpt>
      <trkpt lat="42.93325" lon="0.2055">
        <ele>1205</ele>
        <time>2019-01-18T07:29:03Z</time>
      </trkpt>
      <trkpt lat="42.93346" lon="0.20571">
        <ele>1203</ele>
        <time>2019-01-18T07:30:03Z</time>
      </trkpt>
      <trkpt lat="42.93361" lon="0.20583">
        <ele>1204</ele>
        <time>2019-01-18T07:31:03Z</time>
      </trkpt>
      <trkpt lat="42.93378" lon="0.20601">
        <ele>1204</ele>
        <time>2019-01-18T07:32:03Z</time>
      </trkpt>
      <trkpt lat="42.93389" lon="0.20617">
        <ele>1202</ele>
        <time>2019-01-18T07:33:03Z</time>
      </trkpt>
      <trkpt lat="42.93397" lon="0.20633">
        <ele>1200</ele>
        <time>2019-01-18T07:34:03Z</time>
      </trkpt>
      <trkpt lat="42.93404" lon="0.20654">
        <ele>1195</ele>
        <time>2019-01-18T07:35:03Z</time>
      </trkpt>
      <trkpt lat="42.9341" lon="0.20667">
        <ele>1192</ele>
        <time>2019-01-18T07:36:03Z</time>
      </trkpt>
      <trkpt lat="42.93429" lon="0.20691">
        <ele>1190</ele>
        <time>2019-01-18T07:37:03Z</time>
      </trkpt>
      <trkpt lat="42.93472" lon="0.20739">
        <ele>1189</ele>
        <time>2019-01-18T07:38:03Z</time>
      </trkpt>
      <trkpt lat="42.93481" lon="0.20753">
        <ele>1188</ele>
        <time>2019-01-18T07:39:03Z</time>
      </trkpt>
      <trkpt lat="42.93498" lon="0.20796">
        <ele>1179</ele>
        <time>2019-01-18T07:40:03Z</time>
      </trkpt>
      <trkpt lat="42.93505" lon="0.20809">
        <ele>1177</ele>
        <time>2019-01-18T07:41:03Z</time>
      </trkpt>
      <trkpt lat="42.93513" lon="0.20818">
        <ele>1176</ele>
        <time>2019-01-18T07:42:03Z</time>
      </trkpt>
      <trkpt lat="42.93537" lon="0.20831">
        <ele>1178</ele>
        <time>2019-01-18T07:43:03Z</time>
      </trkpt>
      <trkpt lat="42.93563" lon="0.20841">
        <ele>1180</ele>
        <time>2019-01-18T07:44:03Z</time>
      </trkpt>
      <trkpt lat="42.93592" lon="0.20874">
        <ele>1172</ele>
        <time>2019-01-18T07:45:03Z</time>
      </trkpt>
      <trkpt lat="42.93599" lon="0.20878">
        <ele>1172</ele>
        <time>2019-01-18T07:46:03Z</time>
      </trkpt>
      <trkpt lat="42.93605" lon="0.20877">
        <ele>1174</ele>
        <time>2019-01-18T07:47:03Z</time>
      </trkpt>
      <trkpt lat="42.93611" lon="0.20875">
        <ele>1176</ele>
        <time>2019-01-18T07:48:03Z</time>
      </trkpt>
      <trkpt lat="42.93633" lon="0.20858">
        <ele>1190</ele>
        <time>2019-01-18T07:49:03Z</time>
      </trkpt>
      <trkpt lat="42.9364" lon="0.20857">
        <ele>1192</ele>
        <time>2019-01-18T07:50:03Z</time>
      </trkpt>
      <trkpt lat="42.93646" lon="0.2086">
        <ele>1192</ele>
        <time>2019-01-18T07:51:03Z</time>
      </trkpt>
      <trkpt lat="42.93651" lon="0.20871">
        <ele>1187</ele>
        <time>2019-01-18T07:52:03Z</time>
      </trkpt>
      <trkpt lat="42.93653" lon="0.20883">
        <ele>1181</ele>
        <time>2019-01-18T07:53:03Z</time>
      </trkpt>
      <trkpt lat="42.93654" lon="0.20907">
        <ele>1169</ele>
        <time>2019-01-18T07:54:03Z</time>
      </trkpt>
      <trkpt lat="42.93656" lon="0.20919">
        <ele>1163</ele>
        <time>2019-01-18T07:55:03Z</time>
      </trkpt>
      <trkpt lat="42.9367" lon="0.20932">
        <ele>1162</ele>
        <time>2019-01-18T07:56:03Z</time>
      </trkpt>
      <trkpt lat="42.937" lon="0.2095">
        <ele>1169</ele>
        <time>2019-01-18T07:57:03Z</time>
      </trkpt>
      <trkpt lat="42.93716" lon="0.20963">
        <ele>1172</ele>
        <time>2019-01-18T07:58:03Z</time>
      </trkpt>
      <trkpt lat="42.93728" lon="0.20978">
        <ele>1171</ele>
        <time>2019-01-18T07:59:03Z</time>
      </trkpt>
      <trkpt lat="42.93755" lon="0.21024">
        <ele>1162</ele>
        <time>2019-01-18T08:00:03Z</time>
      </trkpt>
      <trkpt lat="42.93809" lon="0.2109">
        <ele>1153</ele>
        <time>2019-01-18T08:01:03Z</time>
      </trkpt>
      <trkpt lat="42.93835" lon="0.21127">
        <ele>1148</ele>
        <time>2019-01-18T08:02:03Z</time>
      </trkpt>
      <trkpt lat="42.93934" lon="0.21279">
        <ele>1135</ele>
        <time>2019-01-18T08:03:03Z</time>
      </trkpt>
      <trkpt lat="42.93973" lon="0.21319">
        <ele>1130</ele>
        <time>2019-01-18T08:04:03Z</time>
      </trkpt>
      <trkpt lat="42.94027" lon="0.21356">
        <ele>1127</ele>
        <time>2019-01-18T08:05:03Z</time>
      </trkpt>
      <trkpt lat="42.94125" lon="0.21473">
        <ele>1119</ele>
        <time>2019-01-18T08:06:03Z</time>
      </trkpt>
      <trkpt lat="42.94141" lon="0.21498">
        <ele>1119</ele>
        <time>2019-01-18T08:07:03Z</time>
      </trkpt>
      <trkpt lat="42.94156" lon="0.21533">
        <ele>1114</ele>
        <time>2019-01-18T08:08:03Z</time>
      </trkpt>
      <trkpt lat="42.94184" lon="0.21617">
        <ele>1095</ele>
        <time>2019-01-18T08:09:03Z</time>
      </trkpt>
      <trkpt lat="42.942" lon="0.21634">
        <ele>1096</ele>
        <time>2019-01-18T08:10:03Z</time>
      </trkpt>
      <trkpt lat="42.94216" lon="0.21646">
        <ele>1098</ele>
        <time>2019-01-18T08:11:03Z</time>
      </trkpt>
      <trkpt lat="42.94261" lon="0.21722">
        <ele>1089</ele>
        <time>2019-01-18T08:12:03Z</time>
      </trkpt>
      <trkpt lat="42.94282" lon="0.21756">
        <ele>1086</ele>
        <time>2019-01-18T08:13:03Z</time>
      </trkpt>
      <trkpt lat="42.94435" lon="0.21946">
        <ele>1061</ele>
        <time>2019-01-18T08:14:03Z</time>
      </trkpt>
      <trkpt lat="42.94457" lon="0.21968">
        <ele>1057</ele>
        <time>2019-01-18T08:15:03Z</time>
      </trkpt>
      <trkpt lat="42.94488" lon="0.2199">
        <ele>1055</ele>
        <time>2019-01-18T08:16:03Z</time>
      </trkpt>
      <trkpt lat="42.9451" lon="0.22009">
        <ele>1053</ele>
        <time>2019-01-18T08:17:03Z</time>
      </trkpt>
      <trkpt lat="42.94525" lon="0.22027">
        <ele>1051</ele>
        <time>2019-01-18T08:18:03Z</time>
      </trkpt>
      <trkpt lat="42.94562" lon="0.22094">
        <ele>1043</ele>
        <time>2019-01-18T08:19:03Z</time>
      </trkpt>
      <trkpt lat="42.94571" lon="0.22107">
        <ele>1042</ele>
        <time>2019-01-18T08:20:03Z</time>
      </trkpt>
      <trkpt lat="42.94587" lon="0.22121">
        <ele>1041</ele>
        <time>2019-01-18T08:21:03Z</time>
      </trkpt>
      <trkpt lat="42.94595" lon="0.22126">
        <ele>1040</ele>
        <time>2019-01-18T08:22:03Z</time>
      </trkpt>
      <trkpt lat="42.94606" lon="0.22131">
        <ele>1039</ele>
        <time>2019-01-18T08:23:03Z</time>
      </trkpt>
      <trkpt lat="42.94626" lon="0.22135">
        <ele>1039</ele>
        <time>2019-01-18T08:24:03Z</time>
      </trkpt>
      <trkpt lat="42.94641" lon="0.22145">
        <ele>1038</ele>
        <time>2019-01-18T08:25:03Z</time>
      </trkpt>
      <trkpt lat="42.94656" lon="0.22168">
        <ele>1035</ele>
        <time>2019-01-18T08:26:03Z</time>
      </trkpt>
      <trkpt lat="42.94661" lon="0.22184">
        <ele>1033</ele>
        <time>2019-01-18T08:27:03Z</time>
      </trkpt>
      <trkpt lat="42.94678" lon="0.22258">
        <ele>1025</ele>
        <time>2019-01-18T08:28:03Z</time>
      </trkpt>
      <trkpt lat="42.94692" lon="0.22302">
        <ele>1021</ele>
        <time>2019-01-18T08:29:03Z</time>
      </trkpt>
      <trkpt lat="42.94709" lon="0.2233">
        <ele>1019</ele>
        <time>2019-01-18T08:30:03Z</time>
      </trkpt>
      <trkpt lat="42.94731" lon="0.22362">
        <ele>1018</ele>
        <time>2019-01-18T08:31:03Z</time>
      </trkpt>
      <trkpt lat="42.94759" lon="0.2239">
        <ele>1016</ele>
        <time>2019-01-18T08:32:03Z</time>
      </trkpt>
      <trkpt lat="42.94831" lon="0.22437">
        <ele>1013</ele>
        <time>2019-01-18T08:33:03Z</time>
      </trkpt>
      <trkpt lat="42.94871" lon="0.2245">
        <ele>1011</ele>
        <time>2019-01-18T08:34:03Z</time>
      </trkpt>
      <trkpt lat="42.94892" lon="0.22462">
        <ele>1010</ele>
        <time>2019-01-18T08:35:03Z</time>
      </trkpt>
      <trkpt lat="42.9491" lon="0.22504">
        <ele>1008</ele>
        <time>2019-01-18T08:36:03Z</time>
      </trkpt>
      <trkpt lat="42.94919" lon="0.22518">
        <ele>1006</ele>
        <time>2019-01-18T08:37:03Z</time>
      </trkpt>
      <trkpt lat="42.94935" lon="0.22537">
        <ele>1004</ele>
        <time>2019-01-18T08:38:03Z</time>
      </trkpt>
      <trkpt lat="42.94954" lon="0.22552">
        <ele>1002</ele>
        <time>2019-01-18T08:39:03Z</time>
      </trkpt>
      <trkpt lat="42.94993" lon="0.22558">
        <ele>1001</ele>
        <time>2019-01-18T08:40:03Z</time>
      </trkpt>
      <trkpt lat="42.95108" lon="0.22619">
        <ele>992</ele>
        <time>2019-01-18T08:41:03Z</time>
      </trkpt>
      <trkpt lat="42.95149" lon="0.2265">
        <ele>989</ele>
        <time>2019-01-18T08:42:03Z</time>
      </trkpt>
      <trkpt lat="42.95228" lon="0.22715">
        <ele>985</ele>
        <time>2019-01-18T08:43:03Z</time>
      </trkpt>
      <trkpt lat="42.9525" lon="0.22729">
        <ele>985</ele>
        <time>2019-01-18T08:44:03Z</time>
      </trkpt>
      <trkpt lat="42.95378" lon="0.22787">
        <ele>981</ele>
        <time>2019-01-18T08:45:03Z</time>
      </trkpt>
      <trkpt lat="42.9539" lon="0.2279">
        <ele>980</ele>
        <time>2019-01-18T08:46:03Z</time>
      </trkpt>
      <trkpt lat="42.95442" lon="0.22794">
        <ele>978</ele>
        <time>2019-01-18T08:47:03Z</time>
      </trkpt>
      <trkpt lat="42.95499" lon="0.22796">
        <ele>975</ele>
        <time>2019-01-18T08:48:03Z</time>
      </trkpt>
      <trkpt lat="42.95549" lon="0.22793">
        <ele>977</ele>
        <time>2019-01-18T08:49:03Z</time>
      </trkpt>
      <trkpt lat="42.95585" lon="0.22787">
        <ele>978</ele>
        <time>2019-01-18T08:50:03Z</time>
      </trkpt>
      <trkpt lat="42.95601" lon="0.22788">
        <ele>978</ele>
        <time>2019-01-18T08:51:03Z</time>
      </trkpt>
      <trkpt lat="42.95751" lon="0.2285">
        <ele>969</ele>
        <time>2019-01-18T08:52:03Z</time>
      </trkpt>
      <trkpt lat="42.95775" lon="0.22864">
        <ele>968</ele>
        <time>2019-01-18T08:53:03Z</time>
      </trkpt>
      <trkpt lat="42.95791" lon="0.22868">
        <ele>968</ele>
        <time>2019-01-18T08:54:03Z</time>
      </trkpt>
      <trkpt lat="42.95847" lon="0.22872">
        <ele>969</ele>
        <time>2019-01-18T08:55:03Z</time>
      </trkpt>
      <trkpt lat="42.95889" lon="0.22896">
        <ele>964</ele>
        <time>2019-01-18T08:56:03Z</time>
      </trkpt>
      <trkpt lat="42.95942" lon="0.22943">
        <ele>959</ele>
        <time>2019-01-18T08:57:03Z</time>
      </trkpt>
      <trkpt lat="42.96012" lon="0.23">
        <ele>954</ele>
        <time>2019-01-18T08:58:03Z</time>
      </trkpt>
      <trkpt lat="42.96024" lon="0.23007">
        <ele>953</ele>
        <time>2019-01-18T08:59:03Z</time>
      </trkpt>
      <trkpt lat="42.96049" lon="0.23013">
        <ele>951</ele>
        <time>2019-01-18T09:00:03Z</time>
      </trkpt>
      <trkpt lat="42.96148" lon="0.23027">
        <ele>947</ele>
        <time>2019-01-18T09:01:03Z</time>
      </trkpt>
      <trkpt lat="42.96215" lon="0.23032">
        <ele>946</ele>
        <time>2019-01-18T09:02:03Z</time>
      </trkpt>
      <trkpt lat="42.96243" lon="0.23039">
        <ele>945</ele>
        <time>2019-01-18T09:03:03Z</time>
      </trkpt>
      <trkpt lat="42.96261" lon="0.23041">
        <ele>944</ele>
        <time>2019-01-18T09:04:03Z</time>
      </trkpt>
      <trkpt lat="42.96313" lon="0.23034">
        <ele>942</ele>
        <time>2019-01-18T09:05:03Z</time>
      </trkpt>
      <trkpt lat="42.96479" lon="0.2303">
        <ele>942</ele>
        <time>2019-01-18T09:06:03Z</time>
      </trkpt>
      <trkpt lat="42.96597" lon="0.23043">
        <ele>943</ele>
        <time>2019-01-18T09:07:03Z</time>
      </trkpt>
      <trkpt lat="42.96634" lon="0.23044">
        <ele>941</ele>
        <time>2019-01-18T09:08:03Z</time>
      </trkpt>
      <trkpt lat="42.96654" lon="0.23042">
        <ele>941</ele>
        <time>2019-01-18T09:09:03Z</time>
      </trkpt>
      <trkpt lat="42.96724" lon="0.23022">
        <ele>945</ele>
        <time>2019-01-18T09:10:03Z</time>
      </trkpt>
      <trkpt lat="42.9675" lon="0.23017">
        <ele>946</ele>
        <time>2019-01-18T09:11:03Z</time>
      </trkpt>
      <trkpt lat="42.96844" lon="0.23033">
        <ele>948</ele>
        <time>2019-01-18T09:12:03Z</time>
      </trkpt>
      <trkpt lat="42.9687" lon="0.23043">
        <ele>945</ele>
        <time>2019-01-18T09:13:03Z</time>
      </trkpt>
      <trkpt lat="42.9688" lon="0.23049">
        <ele>943</ele>
        <time>2019-01-18T09:14:03Z</time>
      </trkpt>
      <trkpt lat="42.96945" lon="0.23089">
        <ele>932</ele>
        <time>2019-01-18T09:15:03Z</time>
      </trkpt>
      <trkpt lat="42.96991" lon="0.23104">
        <ele>929</ele>
        <time>2019-01-18T09:16:03Z</time>
      </trkpt>
      <trkpt lat="42.97023" lon="0.23112">
        <ele>926</ele>
        <time>2019-01-18T09:17:03Z</time>
      </trkpt>
      <trkpt lat="42.97062" lon="0.23115">
        <ele>924</ele>
        <time>2019-01-18T09:18:03Z</time>
      </trkpt>
      <trkpt lat="42.97083" lon="0.23111">
        <ele>923</ele>
        <time>2019-01-18T09:19:03Z</time>
      </trkpt>
      <trkpt lat="42.9713" lon="0.23079">
        <ele>922</ele>
        <time>2019-01-18T09:20:03Z</time>
      </trkpt>
      <trkpt lat="42.97189" lon="0.23034">
        <ele>922</ele>
        <time>2019-01-18T09:21:03Z</time>
      </trkpt>
      <trkpt lat="42.97214" lon="0.23017">
        <ele>920</ele>
        <time>2019-01-18T09:22:03Z</time>
      </trkpt>
      <trkpt lat="42.97227" lon="0.23013">
        <ele>919</ele>
        <time>2019-01-18T09:23:03Z</time>
      </trkpt>
      <trkpt lat="42.97311" lon="0.23005">
        <ele>911</ele>
        <time>2019-01-18T09:24:03Z</time>
      </trkpt>
      <trkpt lat="42.97332" lon="0.22997">
        <ele>910</ele>
        <time>2019-01-18T09:25:03Z</time>
      </trkpt>
      <trkpt lat="42.97344" lon="0.22989">
        <ele>911</ele>
        <time>2019-01-18T09:26:03Z</time>
      </trkpt>
      <trkpt lat="42.97532" lon="0.22843">
        <ele>907</ele>
        <time>2019-01-18T09:27:03Z</time>
      </trkpt>
      <trkpt lat="42.97581" lon="0.22823">
        <ele>905</ele>
        <time>2019-01-18T09:28:03Z</time>
      </trkpt>
      <trkpt lat="42.9761" lon="0.22821">
        <ele>902</ele>
        <time>2019-01-18T09:29:03Z</time>
      </trkpt>
      <trkpt lat="42.9764" lon="0.22826">
        <ele>899</ele>
        <time>2019-01-18T09:30:03Z</time>
      </trkpt>
      <trkpt lat="42.97679" lon="0.22836">
        <ele>894</ele>
        <time>2019-01-18T09:31:03Z</time>
      </trkpt>
      <trkpt lat="42.97744" lon="0.22838">
        <ele>886</ele>
        <time>2019-01-18T09:32:03Z</time>
      </trkpt>
      <trkpt lat="42.97762" lon="0.22834">
        <ele>885</ele>
        <time>2019-01-18T09:33:03Z</time>
      </trkpt>
      <trkpt lat="42.978" lon="0.22818">
        <ele>884</ele>
        <time>2019-01-18T09:34:03Z</time>
      </trkpt>
      <trkpt lat="42.97816" lon="0.22814">
        <ele>884</ele>
        <time>2019-01-18T09:35:03Z</time>
      </trkpt>
      <trkpt lat="42.97856" lon="0.22811">
        <ele>881</ele>
        <time>2019-01-18T09:36:03Z</time>
      </trkpt>
      <trkpt lat="42.97909" lon="0.22793">
        <ele>879</ele>
        <time>2019-01-18T09:37:03Z</time>
      </trkpt>
      <trkpt lat="42.97944" lon="0.22788">
        <ele>878</ele>
        <time>2019-01-18T09:38:03Z</time>
      </trkpt>
      <trkpt lat="42.98002" lon="0.22753">
        <ele>876</ele>
        <time>2019-01-18T09:39:03Z</time>
      </trkpt>
      <trkpt lat="42.98022" lon="0.22746">
        <ele>875</ele>
        <time>2019-01-18T09:40:03Z</time>
      </trkpt>
      <trkpt lat="42.98061" lon="0.22725">
        <ele>876</ele>
        <time>2019-01-18T09:41:03Z</time>
      </trkpt>
      <trkpt lat="42.98076" lon="0.22719">
        <ele>876</ele>
        <time>2019-01-18T09:42:03Z</time>
      </trkpt>
      <trkpt lat="42.98138" lon="0.22708">
        <ele>874</ele>
        <time>2019-01-18T09:43:03Z</time>
      </trkpt>
      <trkpt lat="42.98202" lon="0.22705">
        <ele>870</ele>
        <time>2019-01-18T09:44:03Z</time>
      </trkpt>
      <trkpt lat="42.98234" lon="0.22693">
        <ele>869</ele>
        <time>2019-01-18T09:45:03Z</time>
      </trkpt>
      <trkpt lat="42.98323" lon="0.22679">
        <ele>864</ele>
        <time>2019-01-18T09:46:03Z</time>
      </trkpt>
      <trkpt lat="42.98338" lon="0.22681">
        <ele>863</ele>
        <time>2019-01-18T09:47:03Z</time>
      </trkpt>
      <trkpt lat="42.98377" lon="0.22691">
        <ele>861</ele>
        <time>2019-01-18T09:48:03Z</time>
      </trkpt>
      <trkpt lat="42.98447" lon="0.22713">
        <ele>856</ele>
        <time>2019-01-18T09:49:03Z</time>
      </trkpt>
      <trkpt lat="42.98451" lon="0.22716">
        <ele>855</ele>
        <time>2019-01-18T09:50:03Z</time>
      </trkpt>
      <trkpt lat="42.98456" lon="0.22731">
        <ele>854</ele>
        <time>2019-01-18T09:51:03Z</time>
      </trkpt>
      <trkpt lat="42.98458" lon="0.2275">
        <ele>853</ele>
        <time>2019-01-18T09:52:03Z</time>
      </trkpt>
      <trkpt lat="42.98476" lon="0.22745">
        <ele>852</ele>
        <time>2019-01-18T09:53:03Z</time>
      </trkpt>
      <trkpt lat="42.98498" lon="0.22731">
        <ele>852</ele>
        <time>2019-01-18T09:54:03Z</time>
      </trkpt>
      <trkpt lat="42.98558" lon="0.2272">
        <ele>849</ele>
        <time>2019-01-18T09:55:03Z</time>
      </trkpt>
      <trkpt lat="42.98659" lon="0.22716">
        <ele>841</ele>
        <time>2019-01-18T09:56:03Z</time>
      </trkpt>
      <trkpt lat="42.98689" lon="0.22712">
        <ele>839</ele>
        <time>2019-01-18T09:57:03Z</time>
      </trkpt>
      <trkpt lat="42.98713" lon="0.227">
        <ele>838</ele>
        <time>2019-01-18T09:58:03Z</time>
      </trkpt>
      <trkpt lat="42.98729" lon="0.22683">
        <ele>838</ele>
        <time>2019-01-18T09:59:03Z</time>
      </trkpt>
      <trkpt lat="42.98745" lon="0.2267">
        <ele>837</ele>
        <time>2019-01-18T10:00:03Z</time>
      </trkpt>
      <trkpt lat="42.98758" lon="0.22666">
        <ele>836</ele>
        <time>2019-01-18T10:01:03Z</time>
      </trkpt>
      <trkpt lat="42.98784" lon="0.22665">
        <ele>834</ele>
        <time>2019-01-18T10:02:03Z</time>
      </trkpt>
      <trkpt lat="42.98839" lon="0.22645">
        <ele>833</ele>
        <time>2019-01-18T10:03:03Z</time>
      </trkpt>
      <trkpt lat="42.98902" lon="0.2263">
        <ele>833</ele>
        <time>2019-01-18T10:04:03Z</time>
      </trkpt>
      <trkpt lat="42.98959" lon="0.22605">
        <ele>825</ele>
        <time>2019-01-18T10:05:03Z</time>
      </trkpt>
      <trkpt lat="42.98993" lon="0.22589">
        <ele>815</ele>
        <time>2019-01-18T10:06:03Z</time>
      </trkpt>
      <trkpt lat="42.99043" lon="0.22558">
        <ele>813</ele>
        <time>2019-01-18T10:07:03Z</time>
      </trkpt>
      <trkpt lat="42.99069" lon="0.22538">
        <ele>810</ele>
        <time>2019-01-18T10:08:03Z</time>
      </trkpt>
      <trkpt lat="42.99086" lon="0.22518">
        <ele>807</ele>
        <time>2019-01-18T10:09:03Z</time>
      </trkpt>
      <trkpt lat="42.99115" lon="0.22475">
        <ele>804</ele>
        <time>2019-01-18T10:10:03Z</time>
      </trkpt>
      <trkpt lat="42.99142" lon="0.2242">
        <ele>802</ele>
        <time>2019-01-18T10:11:03Z</time>
      </trkpt>
      <trkpt lat="42.99208" lon="0.22256">
        <ele>795</ele>
        <time>2019-01-18T10:12:03Z</time>
      </trkpt>
      <trkpt lat="42.99212" lon="0.22238">
        <ele>794</ele>
        <time>2019-01-18T10:13:03Z</time>
      </trkpt>
      <trkpt lat="42.99222" lon="0.2217">
        <ele>790</ele>
        <time>2019-01-18T10:14:03Z</time>
      </trkpt>
      <trkpt lat="42.99233" lon="0.22125">
        <ele>788</ele>
        <time>2019-01-18T10:15:03Z</time>
      </trkpt>
      <trkpt lat="42.99254" lon="0.22063">
        <ele>786</ele>
        <time>2019-01-18T10:16:03Z</time>
      </trkpt>
      <trkpt lat="42.99257" lon="0.22036">
        <ele>785</ele>
        <time>2019-01-18T10:17:03Z</time>
      </trkpt>
      <trkpt lat="42.99252" lon="0.21971">
        <ele>783</ele>
        <time>2019-01-18T10:18:03Z</time>
      </trkpt>
      <trkpt lat="42.99261" lon="0.21738">
        <ele>781</ele>
        <time>2019-01-18T10:19:03Z</time>
      </trkpt>
      <trkpt lat="42.99266" lon="0.21699">
        <ele>778</ele>
        <time>2019-01-18T10:20:03Z</time>
      </trkpt>
      <trkpt lat="42.9928" lon="0.21623">
        <ele>775</ele>
        <time>2019-01-18T10:21:03Z</time>
      </trkpt>
      <trkpt lat="42.99286" lon="0.21603">
        <ele>774</ele>
        <time>2019-01-18T10:22:03Z</time>
      </trkpt>
      <trkpt lat="42.99299" lon="0.21571">
        <ele>772</ele>
        <time>2019-01-18T10:23:03Z</time>
      </trkpt>
      <trkpt lat="42.99353" lon="0.21457">
        <ele>767</ele>
        <time>2019-01-18T10:24:03Z</time>
      </trkpt>
      <trkpt lat="42.99397" lon="0.21342">
        <ele>764</ele>
        <time>2019-01-18T10:25:03Z</time>
      </trkpt>
      <trkpt lat="42.99414" lon="0.21289">
        <ele>763</ele>
        <time>2019-01-18T10:26:03Z</time>
      </trkpt>
      <trkpt lat="42.99429" lon="0.2123">
        <ele>762</ele>
        <time>2019-01-18T10:27:03Z</time>
      </trkpt>
      <trkpt lat="42.99465" lon="0.21108">
        <ele>760</ele>
        <time>2019-01-18T10:28:03Z</time>
      </trkpt>
      <trkpt lat="42.99486" lon="0.21002">
        <ele>754</ele>
        <time>2019-01-18T10:29:03Z</time>
      </trkpt>
      <trkpt lat="42.99496" lon="0.20974">
        <ele>753</ele>
        <time>2019-01-18T10:30:03Z</time>
      </trkpt>
      <trkpt lat="42.99507" lon="0.20952">
        <ele>752</ele>
        <time>2019-01-18T10:31:03Z</time>
      </trkpt>
      <trkpt lat="42.9952" lon="0.20934">
        <ele>751</ele>
        <time>2019-01-18T10:32:03Z</time>
      </trkpt>
      <trkpt lat="42.9955" lon="0.20908">
        <ele>749</ele>
        <time>2019-01-18T10:33:03Z</time>
      </trkpt>
      <trkpt lat="42.99564" lon="0.20892">
        <ele>749</ele>
        <time>2019-01-18T10:34:03Z</time>
      </trkpt>
      <trkpt lat="42.99579" lon="0.20868">
        <ele>749</ele>
        <time>2019-01-18T10:35:03Z</time>
      </trkpt>
      <trkpt lat="42.9959" lon="0.20842">
        <ele>749</ele>
        <time>2019-01-18T10:36:03Z</time>
      </trkpt>
      <trkpt lat="42.99603" lon="0.20761">
        <ele>750</ele>
        <time>2019-01-18T10:37:03Z</time>
      </trkpt>
      <trkpt lat="42.99609" lon="0.20739">
        <ele>750</ele>
        <time>2019-01-18T10:38:03Z</time>
      </trkpt>
      <trkpt lat="42.99617" lon="0.20715">
        <ele>749</ele>
        <time>2019-01-18T10:39:03Z</time>
      </trkpt>
      <trkpt lat="42.99636" lon="0.20673">
        <ele>747</ele>
        <time>2019-01-18T10:40:03Z</time>
      </trkpt>
      <trkpt lat="42.9964" lon="0.20655">
        <ele>747</ele>
        <time>2019-01-18T10:41:03Z</time>
      </trkpt>
      <trkpt lat="42.99639" lon="0.20616">
        <ele>746</ele>
        <time>2019-01-18T10:42:03Z</time>
      </trkpt>
      <trkpt lat="42.99634" lon="0.20563">
        <ele>745</ele>
        <time>2019-01-18T10:43:03Z</time>
      </trkpt>
      <trkpt lat="42.99635" lon="0.20545">
        <ele>745</ele>
        <time>2019-01-18T10:44:03Z</time>
      </trkpt>
      <trkpt lat="42.99647" lon="0.20505">
        <ele>744</ele>
        <time>2019-01-18T10:45:03Z</time>
      </trkpt>
      <trkpt lat="42.9976" lon="0.20283">
        <ele>737</ele>
        <time>2019-01-18T10:46:03Z</time>
      </trkpt>
      <trkpt lat="42.99836" lon="0.20158">
        <ele>735</ele>
        <time>2019-01-18T10:47:03Z</time>
      </trkpt>
      <trkpt lat="42.999" lon="0.20049">
        <ele>731</ele>
        <time>2019-01-18T10:48:03Z</time>
      </trkpt>
      <trkpt lat="42.99929" lon="0.19996">
        <ele>727</ele>
        <time>2019-01-18T10:49:03Z</time>
      </trkpt>
      <trkpt lat="42.99974" lon="0.19902">
        <ele>726</ele>
        <time>2019-01-18T10:50:03Z</time>
      </trkpt>
      <trkpt lat="43.00032" lon="0.19805">
        <ele>725</ele>
        <time>2019-01-18T10:51:03Z</time>
      </trkpt>
      <trkpt lat="43.00045" lon="0.19774">
        <ele>725</ele>
        <time>2019-01-18T10:52:03Z</time>
      </trkpt>
      <trkpt lat="43.00057" lon="0.19734">
        <ele>725</ele>
        <time>2019-01-18T10:53:03Z</time>
      </trkpt>
      <trkpt lat="43.00071" lon="0.19704">
        <ele>725</ele>
        <time>2019-01-18T10:54:03Z</time>
      </trkpt>
      <trkpt lat="43.00135" lon="0.19616">
        <ele>720</ele>
        <time>2019-01-18T10:55:03Z</time>
      </trkpt>
      <trkpt lat="43.00147" lon="0.1959">
        <ele>719</ele>
        <time>2019-01-18T10:56:03Z</time>
      </trkpt>
      <trkpt lat="43.0016" lon="0.19542">
        <ele>719</ele>
        <time>2019-01-18T10:57:03Z</time>
      </trkpt>
      <trkpt lat="43.00174" lon="0.19507">
        <ele>718</ele>
        <time>2019-01-18T10:58:03Z</time>
      </trkpt>
      <trkpt lat="43.0023" lon="0.19419">
        <ele>713</ele>
        <time>2019-01-18T10:59:03Z</time>
      </trkpt>
      <trkpt lat="43.00305" lon="0.19311">
        <ele>711</ele>
        <time>2019-01-18T11:00:03Z</time>
      </trkpt>
      <trkpt lat="43.00341" lon="0.19264">
        <ele>706</ele>
        <time>2019-01-18T11:01:03Z</time>
      </trkpt>
      <trkpt lat="43.00386" lon="0.19199">
        <ele>703</ele>
        <time>2019-01-18T11:02:03Z</time>
      </trkpt>
      <trkpt lat="43.00439" lon="0.19102">
        <ele>704</ele>
        <time>2019-01-18T11:03:03Z</time>
      </trkpt>
      <trkpt lat="43.00511" lon="0.19022">
        <ele>704</ele>
        <time>2019-01-18T11:04:03Z</time>
      </trkpt>
      <trkpt lat="43.00529" lon="0.18997">
        <ele>704</ele>
        <time>2019-01-18T11:05:03Z</time>
      </trkpt>
      <trkpt lat="43.00548" lon="0.18961">
        <ele>704</ele>
        <time>2019-01-18T11:06:03Z</time>
      </trkpt>
      <trkpt lat="43.00568" lon="0.18917">
        <ele>703</ele>
        <time>2019-01-18T11:07:03Z</time>
      </trkpt>
      <trkpt lat="43.00631" lon="0.18849">
        <ele>699</ele>
        <time>2019-01-18T11:08:03Z</time>
      </trkpt>
      <trkpt lat="43.00703" lon="0.1879">
        <ele>694</ele>
        <time>2019-01-18T11:09:03Z</time>
      </trkpt>
      <trkpt lat="43.00728" lon="0.18765">
        <ele>693</ele>
        <time>2019-01-18T11:10:03Z</time>
      </trkpt>
      <trkpt lat="43.00847" lon="0.18637">
        <ele>686</ele>
        <time>2019-01-18T11:11:03Z</time>
      </trkpt>
      <trkpt lat="43.00937" lon="0.18534">
        <ele>683</ele>
        <time>2019-01-18T11:12:03Z</time>
      </trkpt>
      <trkpt lat="43.01062" lon="0.18366">
        <ele>680</ele>
        <time>2019-01-18T11:13:03Z</time>
      </trkpt>
      <trkpt lat="43.01113" lon="0.18293">
        <ele>679</ele>
        <time>2019-01-18T11:14:03Z</time>
      </trkpt>
      <trkpt lat="43.01138" lon="0.18261">
        <ele>679</ele>
        <time>2019-01-18T11:15:03Z</time>
      </trkpt>
      <trkpt lat="43.0119" lon="0.18202">
        <ele>676</ele>
        <time>2019-01-18T11:16:03Z</time>
      </trkpt>
      <trkpt lat="43.01206" lon="0.18181">
        <ele>675</ele>
        <time>2019-01-18T11:17:03Z</time>
      </trkpt>
      <trkpt lat="43.01266" lon="0.18082">
        <ele>673</ele>
        <time>2019-01-18T11:18:03Z</time>
      </trkpt>
      <trkpt lat="43.01294" lon="0.18052">
        <ele>672</ele>
        <time>2019-01-18T11:19:03Z</time>
      </trkpt>
      <trkpt lat="43.01448" lon="0.17908">
        <ele>668</ele>
        <time>2019-01-18T11:20:03Z</time>
      </trkpt>
      <trkpt lat="43.01476" lon="0.17884">
        <ele>668</ele>
        <time>2019-01-18T11:21:03Z</time>
      </trkpt>
      <trkpt lat="43.01546" lon="0.17838">
        <ele>665</ele>
        <time>2019-01-18T11:22:03Z</time>
      </trkpt>
      <trkpt lat="43.01556" lon="0.17828">
        <ele>664</ele>
        <time>2019-01-18T11:23:03Z</time>
      </trkpt>
      <trkpt lat="43.01568" lon="0.17811">
        <ele>663</ele>
        <time>2019-01-18T11:24:03Z</time>
      </trkpt>
      <trkpt lat="43.0159" lon="0.17788">
        <ele>663</ele>
        <time>2019-01-18T11:25:03Z</time>
      </trkpt>
      <trkpt lat="43.01603" lon="0.1778">
        <ele>663</ele>
        <time>2019-01-18T11:26:03Z</time>
      </trkpt>
      <trkpt lat="43.01636" lon="0.17766">
        <ele>663</ele>
        <time>2019-01-18T11:27:03Z</time>
      </trkpt>
      <trkpt lat="43.01667" lon="0.17748">
        <ele>663</ele>
        <time>2019-01-18T11:28:03Z</time>
      </trkpt>
      <trkpt lat="43.0171" lon="0.17713">
        <ele>661</ele>
        <time>2019-01-18T11:29:03Z</time>
      </trkpt>
      <trkpt lat="43.01723" lon="0.1771">
        <ele>661</ele>
        <time>2019-01-18T11:30:03Z</time>
      </trkpt>
      <trkpt lat="43.01742" lon="0.17701">
        <ele>661</ele>
        <time>2019-01-18T11:31:03Z</time>
      </trkpt>
      <trkpt lat="43.01804" lon="0.17661">
        <ele>658</ele>
        <time>2019-01-18T11:32:03Z</time>
      </trkpt>
      <trkpt lat="43.01843" lon="0.17631">
        <ele>655</ele>
        <time>2019-01-18T11:33:03Z</time>
      </trkpt>
      <trkpt lat="43.01885" lon="0.17592">
        <ele>653</ele>
        <time>2019-01-18T11:34:03Z</time>
      </trkpt>
      <trkpt lat="43.01906" lon="0.17571">
        <ele>652</ele>
        <time>2019-01-18T11:35:03Z</time>
      </trkpt>
      <trkpt lat="43.01932" lon="0.17539">
        <ele>651</ele>
        <time>2019-01-18T11:36:03Z</time>
      </trkpt>
      <trkpt lat="43.01947" lon="0.17523">
        <ele>650</ele>
        <time>2019-01-18T11:37:03Z</time>
      </trkpt>
      <trkpt lat="43.01962" lon="0.17513">
        <ele>650</ele>
        <time>2019-01-18T11:38:03Z</time>
      </trkpt>
      <trkpt lat="43.02016" lon="0.17482">
        <ele>649</ele>
        <time>2019-01-18T11:39:03Z</time>
      </trkpt>
      <trkpt lat="43.02031" lon="0.17471">
        <ele>648</ele>
        <time>2019-01-18T11:40:03Z</time>
      </trkpt>
      <trkpt lat="43.02138" lon="0.17382">
        <ele>645</ele>
        <time>2019-01-18T11:41:03Z</time>
      </trkpt>
      <trkpt lat="43.02169" lon="0.17343">
        <ele>645</ele>
        <time>2019-01-18T11:42:03Z</time>
      </trkpt>
      <trkpt lat="43.02219" lon="0.17264">
        <ele>642</ele>
        <time>2019-01-18T11:43:03Z</time>
      </trkpt>
      <trkpt lat="43.02272" lon="0.17173">
        <ele>642</ele>
        <time>2019-01-18T11:44:03Z</time>
      </trkpt>
      <trkpt lat="43.02285" lon="0.17153">
        <ele>642</ele>
        <time>2019-01-18T11:45:03Z</time>
      </trkpt>
      <trkpt lat="43.02342" lon="0.17106">
        <ele>642</ele>
        <time>2019-01-18T11:46:03Z</time>
      </trkpt>
      <trkpt lat="43.02354" lon="0.17089">
        <ele>643</ele>
        <time>2019-01-18T11:47:03Z</time>
      </trkpt>
      <trkpt lat="43.02377" lon="0.17052">
        <ele>641</ele>
        <time>2019-01-18T11:48:03Z</time>
      </trkpt>
      <trkpt lat="43.02407" lon="0.16971">
        <ele>639</ele>
        <time>2019-01-18T11:49:03Z</time>
      </trkpt>
      <trkpt lat="43.02421" lon="0.16943">
        <ele>639</ele>
        <time>2019-01-18T11:50:03Z</time>
      </trkpt>
      <trkpt lat="43.02433" lon="0.16922">
        <ele>639</ele>
        <time>2019-01-18T11:51:03Z</time>
      </trkpt>
      <trkpt lat="43.02452" lon="0.16901">
        <ele>640</ele>
        <time>2019-01-18T11:52:03Z</time>
      </trkpt>
      <trkpt lat="43.02488" lon="0.16868">
        <ele>642</ele>
        <time>2019-01-18T11:53:03Z</time>
      </trkpt>
      <trkpt lat="43.02499" lon="0.16865">
        <ele>643</ele>
        <time>2019-01-18T11:54:03Z</time>
      </trkpt>
      <trkpt lat="43.02532" lon="0.16872">
        <ele>644</ele>
        <time>2019-01-18T11:55:03Z</time>
      </trkpt>
      <trkpt lat="43.02651" lon="0.16916">
        <ele>638</ele>
        <time>2019-01-18T11:56:03Z</time>
      </trkpt>
      <trkpt lat="43.02688" lon="0.16928">
        <ele>637</ele>
        <time>2019-01-18T11:57:03Z</time>
      </trkpt>
      <trkpt lat="43.02722" lon="0.16932">
        <ele>636</ele>
        <time>2019-01-18T11:58:03Z</time>
      </trkpt>
      <trkpt lat="43.02733" lon="0.1693">
        <ele>635</ele>
        <time>2019-01-18T11:59:03Z</time>
      </trkpt>
      <trkpt lat="43.02744" lon="0.16925">
        <ele>635</ele>
        <time>2019-01-18T12:00:03Z</time>
      </trkpt>
      <trkpt lat="43.0292" lon="0.16813">
        <ele>629</ele>
        <time>2019-01-18T12:01:03Z</time>
      </trkpt>
      <trkpt lat="43.02944" lon="0.16785">
        <ele>629</ele>
        <time>2019-01-18T12:02:03Z</time>
      </trkpt>
      <trkpt lat="43.02979" lon="0.16734">
        <ele>627</ele>
        <time>2019-01-18T12:03:03Z</time>
      </trkpt>
      <trkpt lat="43.02994" lon="0.16721">
        <ele>627</ele>
        <time>2019-01-18T12:04:03Z</time>
      </trkpt>
      <trkpt lat="43.03012" lon="0.16711">
        <ele>627</ele>
        <time>2019-01-18T12:05:03Z</time>
      </trkpt>
      <trkpt lat="43.03156" lon="0.16671">
        <ele>622</ele>
        <time>2019-01-18T12:06:03Z</time>
      </trkpt>
      <trkpt lat="43.03167" lon="0.16667">
        <ele>621</ele>
        <time>2019-01-18T12:07:03Z</time>
      </trkpt>
      <trkpt lat="43.0361" lon="0.16362">
        <ele>603</ele>
        <time>2019-01-18T12:08:03Z</time>
      </trkpt>
      <trkpt lat="43.03724" lon="0.16294">
        <ele>600</ele>
        <time>2019-01-18T12:09:03Z</time>
      </trkpt>
      <trkpt lat="43.03893" lon="0.16203">
        <ele>599</ele>
        <time>2019-01-18T12:10:03Z</time>
      </trkpt>
      <trkpt lat="43.0397" lon="0.16159">
        <ele>599</ele>
        <time>2019-01-18T12:11:03Z</time>
      </trkpt>
      <trkpt lat="43.04049" lon="0.16119">
        <ele>597</ele>
        <time>2019-01-18T12:12:03Z</time>
      </trkpt>
      <trkpt lat="43.04267" lon="0.16014">
        <ele>595</ele>
        <time>2019-01-18T12:13:03Z</time>
      </trkpt>
      <trkpt lat="43.04327" lon="0.1599">
        <ele>592</ele>
        <time>2019-01-18T12:14:03Z</time>
      </trkpt>
      <trkpt lat="43.04446" lon="0.15946">
        <ele>589</ele>
        <time>2019-01-18T12:15:03Z</time>
      </trkpt>
      <trkpt lat="43.04591" lon="0.15889">
        <ele>586</ele>
        <time>2019-01-18T12:16:03Z</time>
      </trkpt>
      <trkpt lat="43.04855" lon="0.15785">
        <ele>583</ele>
        <time>2019-01-18T12:17:03Z</time>
      </trkpt>
      <trkpt lat="43.04887" lon="0.15774">
        <ele>582</ele>
        <time>2019-01-18T12:18:03Z</time>
      </trkpt>
      <trkpt lat="43.04913" lon="0.15771">
        <ele>581</ele>
        <time>2019-01-18T12:19:03Z</time>
      </trkpt>
      <trkpt lat="43.04929" lon="0.15772">
        <ele>581</ele>
        <time>2019-01-18T12:20:03Z</time>
      </trkpt>
      <trkpt lat="43.04996" lon="0.15802">
        <ele>581</ele>
        <time>2019-01-18T12:21:03Z</time>
      </trkpt>
      <trkpt lat="43.05045" lon="0.15808">
        <ele>579</ele>
        <time>2019-01-18T12:22:03Z</time>
      </trkpt>
      <trkpt lat="43.05073" lon="0.15806">
        <ele>578</ele>
        <time>2019-01-18T12:23:03Z</time>
      </trkpt>
      <trkpt lat="43.05115" lon="0.15797">
        <ele>577</ele>
        <time>2019-01-18T12:24:03Z</time>
      </trkpt>
      <trkpt lat="43.05261" lon="0.1573">
        <ele>574</ele>
        <time>2019-01-18T12:25:03Z</time>
      </trkpt>
      <trkpt lat="43.05317" lon="0.15719">
        <ele>573</ele>
        <time>2019-01-18T12:26:03Z</time>
      </trkpt>
      <trkpt lat="43.05369" lon="0.15728">
        <ele>572</ele>
        <time>2019-01-18T12:27:03Z</time>
      </trkpt>
      <trkpt lat="43.0543" lon="0.1573">
        <ele>571</ele>
        <time>2019-01-18T12:28:03Z</time>
      </trkpt>
      <trkpt lat="43.05516" lon="0.15721">
        <ele>569</ele>
        <time>2019-01-18T12:29:03Z</time>
      </trkpt>
      <trkpt lat="43.05541" lon="0.15712">
        <ele>568</ele>
        <time>2019-01-18T12:30:03Z</time>
      </trkpt>
      <trkpt lat="43.05618" lon="0.15662">
        <ele>565</ele>
        <time>2019-01-18T12:31:03Z</time>
      </trkpt>
      <trkpt lat="43.05791" lon="0.15556">
        <ele>565</ele>
        <time>2019-01-18T12:32:03Z</time>
      </trkpt>
      <trkpt lat="43.05849" lon="0.15519">
        <ele>564</ele>
        <time>2019-01-18T12:33:03Z</time>
      </trkpt>
      <trkpt lat="43.05945" lon="0.15478">
        <ele>563</ele>
        <time>2019-01-18T12:34:03Z</time>
      </trkpt>
      <trkpt lat="43.05963" lon="0.15467">
        <ele>562</ele>
        <time>2019-01-18T12:35:03Z</time>
      </trkpt>
      <trkpt lat="43.0602" lon="0.15417">
        <ele>562</ele>
        <time>2019-01-18T12:36:03Z</time>
      </trkpt>
      <trkpt lat="43.06065" lon="0.15382">
        <ele>561</ele>
        <time>2019-01-18T12:37:03Z</time>
      </trkpt>
      <trkpt lat="43.06074" lon="0.15356">
        <ele>561</ele>
        <time>2019-01-18T12:38:03Z</time>
      </trkpt>
      <trkpt lat="43.06094" lon="0.1527">
        <ele>564</ele>
        <time>2019-01-18T12:39:03Z</time>
      </trkpt>
      <trkpt lat="43.061" lon="0.15212">
        <ele>565</ele>
        <time>2019-01-18T12:40:03Z</time>
      </trkpt>
      <trkpt lat="43.06102" lon="0.15199">
        <ele>565</ele>
        <time>2019-01-18T12:41:03Z</time>
      </trkpt>
      <trkpt lat="43.06109" lon="0.15185">
        <ele>565</ele>
        <time>2019-01-18T12:42:03Z</time>
      </trkpt>
      <trkpt lat="43.06127" lon="0.15163">
        <ele>564</ele>
        <time>2019-01-18T12:43:03Z</time>
      </trkpt>
      <trkpt lat="43.06156" lon="0.15115">
        <ele>559</ele>
        <time>2019-01-18T12:44:03Z</time>
      </trkpt>
      <trkpt lat="43.06194" lon="0.15061">
        <ele>557</ele>
        <time>2019-01-18T12:45:03Z</time>
      </trkpt>
      <trkpt lat="43.06203" lon="0.1505">
        <ele>557</ele>
        <time>2019-01-18T12:46:03Z</time>
      </trkpt>
      <trkpt lat="43.06241" lon="0.15014">
        <ele>557</ele>
        <time>2019-01-18T12:47:03Z</time>
      </trkpt>
      <trkpt lat="43.06251" lon="0.1501">
        <ele>557</ele>
        <time>2019-01-18T12:48:03Z</time>
      </trkpt>
      <trkpt lat="43.0631" lon="0.15004">
        <ele>557</ele>
        <time>2019-01-18T12:49:03Z</time>
      </trkpt>
      <trkpt lat="43.0632" lon="0.15008">
        <ele>557</ele>
        <time>2019-01-18T12:50:03Z</time>
      </trkpt>
      <trkpt lat="43.06346" lon="0.15023">
        <ele>557</ele>
        <time>2019-01-18T12:51:03Z</time>
      </trkpt>
      <trkpt lat="43.06368" lon="0.15041">
        <ele>557</ele>
        <time>2019-01-18T12:52:03Z</time>
      </trkpt>
      <trkpt lat="43.0638" lon="0.15038">
        <ele>557</ele>
        <time>2019-01-18T12:53:03Z</time>
      </trkpt>
      <trkpt lat="43.06494" lon="0.14986">
        <ele>556</ele>
        <time>2019-01-18T12:54:03Z</time>
      </trkpt>
      <trkpt lat="43.06516" lon="0.14981">
        <ele>556</ele>
        <time>2019-01-18T12:55:03Z</time>
      </trkpt>
      <trkpt lat="43.06542" lon="0.14967">
        <ele>555</ele>
        <time>2019-01-18T12:56:03Z</time>
      </trkpt>
      <trkpt lat="43.06581" lon="0.14951">
        <ele>554</ele>
        <time>2019-01-18T12:57:03Z</time>
      </trkpt>
      <trkpt lat="43.06701" lon="0.14876">
        <ele>550</ele>
        <time>2019-01-18T12:58:03Z</time>
      </trkpt>
      <trkpt lat="43.06708" lon="0.14876">
        <ele>550</ele>
        <time>2019-01-18T12:59:03Z</time>
      </trkpt>
      <trkpt lat="43.06715" lon="0.14878">
        <ele>550</ele>
        <time>2019-01-18T13:00:03Z</time>
      </trkpt>
      <trkpt lat="43.06722" lon="0.14885">
        <ele>550</ele>
        <time>2019-01-18T13:01:03Z</time>
      </trkpt>
      <trkpt lat="43.06736" lon="0.14926">
        <ele>550</ele>
        <time>2019-01-18T13:02:03Z</time>
      </trkpt>
      <trkpt lat="43.06876" lon="0.14862">
        <ele>544</ele>
        <time>2019-01-18T13:03:03Z</time>
      </trkpt>
      <trkpt lat="43.06821" lon="0.14691">
        <ele>545</ele>
        <time>2019-01-18T13:04:03Z</time>
      </trkpt>
      <trkpt lat="43.07085" lon="0.14534">
        <ele>540</ele>
        <time>2019-01-18T13:05:03Z</time>
      </trkpt>
      <trkpt lat="43.07257" lon="0.14426">
        <ele>536</ele>
        <time>2019-01-18T13:06:03Z</time>
      </trkpt>
      <trkpt lat="43.07299" lon="0.14403">
        <ele>535</ele>
        <time>2019-01-18T13:07:03Z</time>
      </trkpt>
      <trkpt lat="43.07309" lon="0.14401">
        <ele>534</ele>
        <time>2019-01-18T13:08:03Z</time>
      </trkpt>
      <trkpt lat="43.07311" lon="0.14411">
        <ele>534</ele>
        <time>2019-01-18T13:09:03Z</time>
      </trkpt>
      <trkpt lat="43.07314" lon="0.14413">
        <ele>534</ele>
        <time>2019-01-18T13:10:03Z</time>
      </trkpt>
      <trkpt lat="43.07319" lon="0.14414">
        <ele>534</ele>
        <time>2019-01-18T13:11:03Z</time>
      </trkpt>
      <trkpt lat="43.07324" lon="0.14408">
        <ele>534</ele>
        <time>2019-01-18T13:12:03Z</time>
      </trkpt>
      <trkpt lat="43.07324" lon="0.14402">
        <ele>534</ele>
        <time>2019-01-18T13:13:03Z</time>
      </trkpt>
      <trkpt lat="43.07322" lon="0.14396">
        <ele>534</ele>
        <time>2019-01-18T13:14:03Z</time>
      </trkpt>
      <trkpt lat="43.07329" lon="0.14386">
        <ele>534</ele>
        <time>2019-01-18T13:15:03Z</time>
      </trkpt>
      <trkpt lat="43.07455" lon="0.14309">
        <ele>530</ele>
        <time>2019-01-18T13:16:03Z</time>
      </trkpt>
      <trkpt lat="43.0778" lon="0.14116">
        <ele>522</ele>
        <time>2019-01-18T13:17:03Z</time>
      </trkpt>
      <trkpt lat="43.07808" lon="0.14101">
        <ele>521</ele>
        <time>2019-01-18T13:18:03Z</time>
      </trkpt>
      <trkpt lat="43.0783" lon="0.14095">
        <ele>521</ele>
        <time>2019-01-18T13:19:03Z</time>
      </trkpt>
      <trkpt lat="43.07836" lon="0.14095">
        <ele>521</ele>
        <time>2019-01-18T13:20:03Z</time>
      </trkpt>
      <trkpt lat="43.07858" lon="0.1407">
        <ele>521</ele>
        <time>2019-01-18T13:21:03Z</time>
      </trkpt>
      <trkpt lat="43.0787" lon="0.14062">
        <ele>521</ele>
        <time>2019-01-18T13:22:03Z</time>
      </trkpt>
      <trkpt lat="43.07969" lon="0.14001">
        <ele>519</ele>
        <time>2019-01-18T13:23:03Z</time>
      </trkpt>
      <trkpt lat="43.08526" lon="0.13668">
        <ele>510</ele>
        <time>2019-01-18T13:24:03Z</time>
      </trkpt>
      <trkpt lat="43.08682" lon="0.13569">
        <ele>506</ele>
        <time>2019-01-18T13:25:03Z</time>
      </trkpt>
      <trkpt lat="43.08635" lon="0.13432">
        <ele>506</ele>
        <time>2019-01-18T13:26:03Z</time>
      </trkpt>
      <trkpt lat="43.0863" lon="0.13407">
        <ele>506</ele>
        <time>2019-01-18T13:27:03Z</time>
      </trkpt>
      <trkpt lat="43.08631" lon="0.13381">
        <ele>506</ele>
        <time>2019-01-18T13:28:03Z</time>
      </trkpt>
      <trkpt lat="43.08634" lon="0.13362">
        <ele>506</ele>
        <time>2019-01-18T13:29:03Z</time>
      </trkpt>
      <trkpt lat="43.08645" lon="0.13334">
        <ele>505</ele>
        <time>2019-01-18T13:30:03Z</time>
      </trkpt>
      <trkpt lat="43.08661" lon="0.13311">
        <ele>505</ele>
        <time>2019-01-18T13:31:03Z</time>
      </trkpt>
      <trkpt lat="43.0873" lon="0.13224">
        <ele>503</ele>
        <time>2019-01-18T13:32:03Z</time>
      </trkpt>
      <trkpt lat="43.08745" lon="0.13192">
        <ele>503</ele>
        <time>2019-01-18T13:33:03Z</time>
      </trkpt>
      <trkpt lat="43.08761" lon="0.13059">
        <ele>512</ele>
        <time>2019-01-18T13:34:03Z</time>
      </trkpt>
      <trkpt lat="43.0877" lon="0.13022">
        <ele>516</ele>
        <time>2019-01-18T13:35:03Z</time>
      </trkpt>
      <trkpt lat="43.0879" lon="0.12995">
        <ele>515</ele>
        <time>2019-01-18T13:36:03Z</time>
      </trkpt>
      <trkpt lat="43.08831" lon="0.1295">
        <ele>506</ele>
        <time>2019-01-18T13:37:03Z</time>
      </trkpt>
      <trkpt lat="43.0884" lon="0.12928">
        <ele>506</ele>
        <time>2019-01-18T13:38:03Z</time>
      </trkpt>
      <trkpt lat="43.08862" lon="0.1285">
        <ele>510</ele>
        <time>2019-01-18T13:39:03Z</time>
      </trkpt>
      <trkpt lat="43.0888" lon="0.12814">
        <ele>511</ele>
        <time>2019-01-18T13:40:03Z</time>
      </trkpt>
      <trkpt lat="43.0894" lon="0.12727">
        <ele>512</ele>
        <time>2019-01-18T13:41:03Z</time>
      </trkpt>
      <trkpt lat="43.09003" lon="0.12644">
        <ele>514</ele>
        <time>2019-01-18T13:42:03Z</time>
      </trkpt>
      <trkpt lat="43.09045" lon="0.12602">
        <ele>516</ele>
        <time>2019-01-18T13:43:03Z</time>
      </trkpt>
      <trkpt lat="43.09123" lon="0.12546">
        <ele>512</ele>
        <time>2019-01-18T13:44:03Z</time>
      </trkpt>
      <trkpt lat="43.0914" lon="0.12537">
        <ele>511</ele>
        <time>2019-01-18T13:45:03Z</time>
      </trkpt>
      <trkpt lat="43.09155" lon="0.12533">
        <ele>508</ele>
        <time>2019-01-18T13:46:03Z</time>
      </trkpt>
      <trkpt lat="43.09212" lon="0.12526">
        <ele>504</ele>
        <time>2019-01-18T13:47:03Z</time>
      </trkpt>
      <trkpt lat="43.0922" lon="0.12524">
        <ele>504</ele>
        <time>2019-01-18T13:48:03Z</time>
      </trkpt>
      <trkpt lat="43.09227" lon="0.12515">
        <ele>505</ele>
        <time>2019-01-18T13:49:03Z</time>
      </trkpt>
      <trkpt lat="43.09288" lon="0.12411">
        <ele>504</ele>
        <time>2019-01-18T13:50:03Z</time>
      </trkpt>
      <trkpt lat="43.09361" lon="0.12269">
        <ele>505</ele>
        <time>2019-01-18T13:51:03Z</time>
      </trkpt>
      <trkpt lat="43.09368" lon="0.12243">
        <ele>505</ele>
        <time>2019-01-18T13:52:03Z</time>
      </trkpt>
      <trkpt lat="43.09374" lon="0.1221">
        <ele>505</ele>
        <time>2019-01-18T13:53:03Z</time>
      </trkpt>
      <trkpt lat="43.09296" lon="0.11839">
        <ele>500</ele>
        <time>2019-01-18T13:54:03Z</time>
      </trkpt>
      <trkpt lat="43.09248" lon="0.11632">
        <ele>507</ele>
        <time>2019-01-18T13:55:03Z</time>
      </trkpt>
      <trkpt lat="43.09237" lon="0.116">
        <ele>508</ele>
        <time>2019-01-18T13:56:03Z</time>
      </trkpt>
      <trkpt lat="43.09177" lon="0.11481">
        <ele>510</ele>
        <time>2019-01-18T13:57:03Z</time>
      </trkpt>
      <trkpt lat="43.09097" lon="0.11308">
        <ele>505</ele>
        <time>2019-01-18T13:58:03Z</time>
      </trkpt>
      <trkpt lat="43.09043" lon="0.11213">
        <ele>505</ele>
        <time>2019-01-18T13:59:03Z</time>
      </trkpt>
      <trkpt lat="43.09035" lon="0.11192">
        <ele>507</ele>
        <time>2019-01-18T14:00:03Z</time>
      </trkpt>
      <trkpt lat="43.09026" lon="0.11167">
        <ele>510</ele>
        <time>2019-01-18T14:01:03Z</time>
      </trkpt>
      <trkpt lat="43.09013" lon="0.11107">
        <ele>513</ele>
        <time>2019-01-18T14:02:03Z</time>
      </trkpt>
      <trkpt lat="43.08985" lon="0.10906">
        <ele>509</ele>
        <time>2019-01-18T14:03:03Z</time>
      </trkpt>
      <trkpt lat="43.08952" lon="0.10703">
        <ele>510</ele>
        <time>2019-01-18T14:04:03Z</time>
      </trkpt>
      <trkpt lat="43.08941" lon="0.10638">
        <ele>517</ele>
        <time>2019-01-18T14:05:03Z</time>
      </trkpt>
      <trkpt lat="43.08941" lon="0.10601">
        <ele>522</ele>
        <time>2019-01-18T14:06:03Z</time>
      </trkpt>
      <trkpt lat="43.08943" lon="0.10563">
        <ele>524</ele>
        <time>2019-01-18T14:07:03Z</time>
      </trkpt>
      <trkpt lat="43.08949" lon="0.10521">
        <ele>522</ele>
        <time>2019-01-18T14:08:03Z</time>
      </trkpt>
      <trkpt lat="43.08968" lon="0.10444">
        <ele>515</ele>
        <time>2019-01-18T14:09:03Z</time>
      </trkpt>
      <trkpt lat="43.08969" lon="0.1042">
        <ele>515</ele>
        <time>2019-01-18T14:10:03Z</time>
      </trkpt>
      <trkpt lat="43.08967" lon="0.10406">
        <ele>515</ele>
        <time>2019-01-18T14:11:03Z</time>
      </trkpt>
      <trkpt lat="43.08964" lon="0.10399">
        <ele>515</ele>
        <time>2019-01-18T14:12:03Z</time>
      </trkpt>
      <trkpt lat="43.08883" lon="0.10253">
        <ele>523</ele>
        <time>2019-01-18T14:13:03Z</time>
      </trkpt>
      <trkpt lat="43.08881" lon="0.10231">
        <ele>521</ele>
        <time>2019-01-18T14:14:03Z</time>
      </trkpt>
      <trkpt lat="43.08882" lon="0.10218">
        <ele>519</ele>
        <time>2019-01-18T14:15:03Z</time>
      </trkpt>
      <trkpt lat="43.08904" lon="0.10163">
        <ele>508</ele>
        <time>2019-01-18T14:16:03Z</time>
      </trkpt>
      <trkpt lat="43.08906" lon="0.10151">
        <ele>509</ele>
        <time>2019-01-18T14:17:03Z</time>
      </trkpt>
      <trkpt lat="43.08905" lon="0.10083">
        <ele>515</ele>
        <time>2019-01-18T14:18:03Z</time>
      </trkpt>
      <trkpt lat="43.0891" lon="0.09912">
        <ele>519</ele>
        <time>2019-01-18T14:19:03Z</time>
      </trkpt>
      <trkpt lat="43.0891" lon="0.09769">
        <ele>519</ele>
        <time>2019-01-18T14:20:03Z</time>
      </trkpt>
      <trkpt lat="43.08908" lon="0.0975">
        <ele>519</ele>
        <time>2019-01-18T14:21:03Z</time>
      </trkpt>
      <trkpt lat="43.08901" lon="0.09727">
        <ele>522</ele>
        <time>2019-01-18T14:22:03Z</time>
      </trkpt>
      <trkpt lat="43.08869" lon="0.09635">
        <ele>533</ele>
        <time>2019-01-18T14:23:03Z</time>
      </trkpt>
      <trkpt lat="43.08861" lon="0.09599">
        <ele>533</ele>
        <time>2019-01-18T14:24:03Z</time>
      </trkpt>
      <trkpt lat="43.08854" lon="0.09564">
        <ele>534</ele>
        <time>2019-01-18T14:25:03Z</time>
      </trkpt>
      <trkpt lat="43.08846" lon="0.09498">
        <ele>532</ele>
        <time>2019-01-18T14:26:03Z</time>
      </trkpt>
      <trkpt lat="43.08802" lon="0.09385">
        <ele>528</ele>
        <time>2019-01-18T14:27:03Z</time>
      </trkpt>
      <trkpt lat="43.088" lon="0.09373">
        <ele>526</ele>
        <time>2019-01-18T14:28:03Z</time>
      </trkpt>
      <trkpt lat="43.08793" lon="0.09216">
        <ele>530</ele>
        <time>2019-01-18T14:29:03Z</time>
      </trkpt>
      <trkpt lat="43.0879" lon="0.09207">
        <ele>531</ele>
        <time>2019-01-18T14:30:03Z</time>
      </trkpt>
      <trkpt lat="43.08777" lon="0.09186">
        <ele>533</ele>
        <time>2019-01-18T14:31:03Z</time>
      </trkpt>
      <trkpt lat="43.0876" lon="0.09166">
        <ele>534</ele>
        <time>2019-01-18T14:32:03Z</time>
      </trkpt>
      <trkpt lat="43.08734" lon="0.09143">
        <ele>534</ele>
        <time>2019-01-18T14:33:03Z</time>
      </trkpt>
      <trkpt lat="43.08729" lon="0.09133">
        <ele>535</ele>
        <time>2019-01-18T14:34:03Z</time>
      </trkpt>
      <trkpt lat="43.08726" lon="0.09123">
        <ele>536</ele>
        <time>2019-01-18T14:35:03Z</time>
      </trkpt>
      <trkpt lat="43.08728" lon="0.09088">
        <ele>540</ele>
        <time>2019-01-18T14:36:03Z</time>
      </trkpt>
      <trkpt lat="43.08721" lon="0.09016">
        <ele>546</ele>
        <time>2019-01-18T14:37:03Z</time>
      </trkpt>
      <trkpt lat="43.08719" lon="0.0895">
        <ele>557</ele>
        <time>2019-01-18T14:38:03Z</time>
      </trkpt>
      <trkpt lat="43.08716" lon="0.08927">
        <ele>560</ele>
        <time>2019-01-18T14:39:03Z</time>
      </trkpt>
      <trkpt lat="43.08707" lon="0.08902">
        <ele>562</ele>
        <time>2019-01-18T14:40:03Z</time>
      </trkpt>
      <trkpt lat="43.08686" lon="0.08856">
        <ele>567</ele>
        <time>2019-01-18T14:41:03Z</time>
      </trkpt>
      <trkpt lat="43.08659" lon="0.0881">
        <ele>571</ele>
        <time>2019-01-18T14:42:03Z</time>
      </trkpt>
      <trkpt lat="43.08623" lon="0.08774">
        <ele>572</ele>
        <time>2019-01-18T14:43:03Z</time>
      </trkpt>
      <trkpt lat="43.08613" lon="0.08758">
        <ele>574</ele>
        <time>2019-01-18T14:44:03Z</time>
      </trkpt>
      <trkpt lat="43.08604" lon="0.08752">
        <ele>574</ele>
        <time>2019-01-18T14:45:03Z</time>
      </trkpt>
      <trkpt lat="43.0858" lon="0.08743">
        <ele>571</ele>
        <time>2019-01-18T14:46:03Z</time>
      </trkpt>
      <trkpt lat="43.08546" lon="0.08719">
        <ele>579</ele>
        <time>2019-01-18T14:47:03Z</time>
      </trkpt>
      <trkpt lat="43.08525" lon="0.0871">
        <ele>580</ele>
        <time>2019-01-18T14:48:03Z</time>
      </trkpt>
      <trkpt lat="43.08477" lon="0.08699">
        <ele>577</ele>
        <time>2019-01-18T14:49:03Z</time>
      </trkpt>
      <trkpt lat="43.08457" lon="0.0869">
        <ele>577</ele>
        <time>2019-01-18T14:50:03Z</time>
      </trkpt>
      <trkpt lat="43.08439" lon="0.08676">
        <ele>580</ele>
        <time>2019-01-18T14:51:03Z</time>
      </trkpt>
      <trkpt lat="43.08398" lon="0.08635">
        <ele>577</ele>
        <time>2019-01-18T14:52:03Z</time>
      </trkpt>
      <trkpt lat="43.08395" lon="0.08625">
        <ele>578</ele>
        <time>2019-01-18T14:53:03Z</time>
      </trkpt>
      <trkpt lat="43.08394" lon="0.08615">
        <ele>579</ele>
        <time>2019-01-18T14:54:03Z</time>
      </trkpt>
      <trkpt lat="43.08408" lon="0.08461">
        <ele>602</ele>
        <time>2019-01-18T14:55:03Z</time>
      </trkpt>
      <trkpt lat="43.08412" lon="0.0844">
        <ele>606</ele>
        <time>2019-01-18T14:56:03Z</time>
      </trkpt>
      <trkpt lat="43.08423" lon="0.08402">
        <ele>615</ele>
        <time>2019-01-18T14:57:03Z</time>
      </trkpt>
      <trkpt lat="43.08422" lon="0.08393">
        <ele>617</ele>
        <time>2019-01-18T14:58:03Z</time>
      </trkpt>
      <trkpt lat="43.08419" lon="0.08385">
        <ele>618</ele>
        <time>2019-01-18T14:59:03Z</time>
      </trkpt>
      <trkpt lat="43.08415" lon="0.08382">
        <ele>618</ele>
        <time>2019-01-18T15:00:03Z</time>
      </trkpt>
      <trkpt lat="43.08401" lon="0.08384">
        <ele>617</ele>
        <time>2019-01-18T15:01:03Z</time>
      </trkpt>
      <trkpt lat="43.08368" lon="0.08403">
        <ele>611</ele>
        <time>2019-01-18T15:02:03Z</time>
      </trkpt>
      <trkpt lat="43.08336" lon="0.08418">
        <ele>606</ele>
        <time>2019-01-18T15:03:03Z</time>
      </trkpt>
      <trkpt lat="43.08328" lon="0.0842">
        <ele>604</ele>
        <time>2019-01-18T15:04:03Z</time>
      </trkpt>
      <trkpt lat="43.08321" lon="0.08416">
        <ele>603</ele>
        <time>2019-01-18T15:05:03Z</time>
      </trkpt>
      <trkpt lat="43.08317" lon="0.08412">
        <ele>603</ele>
        <time>2019-01-18T15:06:03Z</time>
      </trkpt>
      <trkpt lat="43.08312" lon="0.08398">
        <ele>605</ele>
        <time>2019-01-18T15:07:03Z</time>
      </trkpt>
      <trkpt lat="43.0831" lon="0.08387">
        <ele>607</ele>
        <time>2019-01-18T15:08:03Z</time>
      </trkpt>
      <trkpt lat="43.08307" lon="0.08327">
        <ele>618</ele>
        <time>2019-01-18T15:09:03Z</time>
      </trkpt>
      <trkpt lat="43.08304" lon="0.08313">
        <ele>619</ele>
        <time>2019-01-18T15:10:03Z</time>
      </trkpt>
      <trkpt lat="43.083" lon="0.08302">
        <ele>619</ele>
        <time>2019-01-18T15:11:03Z</time>
      </trkpt>
      <trkpt lat="43.0828" lon="0.08267">
        <ele>618</ele>
        <time>2019-01-18T15:12:03Z</time>
      </trkpt>
      <trkpt lat="43.08265" lon="0.08223">
        <ele>617</ele>
        <time>2019-01-18T15:13:03Z</time>
      </trkpt>
      <trkpt lat="43.08264" lon="0.08213">
        <ele>618</ele>
        <time>2019-01-18T15:14:03Z</time>
      </trkpt>
      <trkpt lat="43.08267" lon="0.08188">
        <ele>620</ele>
        <time>2019-01-18T15:15:03Z</time>
      </trkpt>
      <trkpt lat="43.08281" lon="0.08152">
        <ele>626</ele>
        <time>2019-01-18T15:16:03Z</time>
      </trkpt>
      <trkpt lat="43.08309" lon="0.08104">
        <ele>632</ele>
        <time>2019-01-18T15:17:03Z</time>
      </trkpt>
      <trkpt lat="43.08323" lon="0.08075">
        <ele>634</ele>
        <time>2019-01-18T15:18:03Z</time>
      </trkpt>
      <trkpt lat="43.08345" lon="0.08001">
        <ele>642</ele>
        <time>2019-01-18T15:19:03Z</time>
      </trkpt>
      <trkpt lat="43.08357" lon="0.07942">
        <ele>647</ele>
        <time>2019-01-18T15:20:03Z</time>
      </trkpt>
      <trkpt lat="43.08357" lon="0.07931">
        <ele>647</ele>
        <time>2019-01-18T15:21:03Z</time>
      </trkpt>
      <trkpt lat="43.08346" lon="0.07901">
        <ele>643</ele>
        <time>2019-01-18T15:22:03Z</time>
      </trkpt>
      <trkpt lat="43.08344" lon="0.07869">
        <ele>642</ele>
        <time>2019-01-18T15:23:03Z</time>
      </trkpt>
      <trkpt lat="43.08349" lon="0.07851">
        <ele>643</ele>
        <time>2019-01-18T15:24:03Z</time>
      </trkpt>
      <trkpt lat="43.08383" lon="0.07743">
        <ele>650</ele>
        <time>2019-01-18T15:25:03Z</time>
      </trkpt>
      <trkpt lat="43.08422" lon="0.07635">
        <ele>659</ele>
        <time>2019-01-18T15:26:03Z</time>
      </trkpt>
      <trkpt lat="43.08428" lon="0.07616">
        <ele>661</ele>
        <time>2019-01-18T15:27:03Z</time>
      </trkpt>
      <trkpt lat="43.08428" lon="0.07603">
        <ele>661</ele>
        <time>2019-01-18T15:28:03Z</time>
      </trkpt>
      <trkpt lat="43.08427" lon="0.07595">
        <ele>661</ele>
        <time>2019-01-18T15:29:03Z</time>
      </trkpt>
      <trkpt lat="43.08392" lon="0.07526">
        <ele>657</ele>
        <time>2019-01-18T15:30:03Z</time>
      </trkpt>
      <trkpt lat="43.08385" lon="0.07516">
        <ele>657</ele>
        <time>2019-01-18T15:31:03Z</time>
      </trkpt>
      <trkpt lat="43.0838" lon="0.07511">
        <ele>657</ele>
        <time>2019-01-18T15:32:03Z</time>
      </trkpt>
      <trkpt lat="43.08363" lon="0.07508">
        <ele>657</ele>
        <time>2019-01-18T15:33:03Z</time>
      </trkpt>
      <trkpt lat="43.08336" lon="0.07518">
        <ele>652</ele>
        <time>2019-01-18T15:34:03Z</time>
      </trkpt>
      <trkpt lat="43.08317" lon="0.07521">
        <ele>655</ele>
        <time>2019-01-18T15:35:03Z</time>
      </trkpt>
      <trkpt lat="43.08286" lon="0.07521">
        <ele>661</ele>
        <time>2019-01-18T15:36:03Z</time>
      </trkpt>
      <trkpt lat="43.08273" lon="0.07525">
        <ele>663</ele>
        <time>2019-01-18T15:37:03Z</time>
      </trkpt>
      <trkpt lat="43.08255" lon="0.07538">
        <ele>663</ele>
        <time>2019-01-18T15:38:03Z</time>
      </trkpt>
      <trkpt lat="43.08228" lon="0.07552">
        <ele>663</ele>
        <time>2019-01-18T15:39:03Z</time>
      </trkpt>
      <trkpt lat="43.08207" lon="0.07576">
        <ele>660</ele>
        <time>2019-01-18T15:40:03Z</time>
      </trkpt>
      <trkpt lat="43.08197" lon="0.07581">
        <ele>660</ele>
        <time>2019-01-18T15:41:03Z</time>
      </trkpt>
      <trkpt lat="43.08187" lon="0.07584">
        <ele>661</ele>
        <time>2019-01-18T15:42:03Z</time>
      </trkpt>
      <trkpt lat="43.08162" lon="0.0758">
        <ele>665</ele>
        <time>2019-01-18T15:43:03Z</time>
      </trkpt>
      <trkpt lat="43.08141" lon="0.07586">
        <ele>662</ele>
        <time>2019-01-18T15:44:03Z</time>
      </trkpt>
      <trkpt lat="43.08127" lon="0.07585">
        <ele>662</ele>
        <time>2019-01-18T15:45:03Z</time>
      </trkpt>
      <trkpt lat="43.08114" lon="0.07586">
        <ele>661</ele>
        <time>2019-01-18T15:46:03Z</time>
      </trkpt>
      <trkpt lat="43.08104" lon="0.07592">
        <ele>659</ele>
        <time>2019-01-18T15:47:03Z</time>
      </trkpt>
      <trkpt lat="43.08078" lon="0.0762">
        <ele>651</ele>
        <time>2019-01-18T15:48:03Z</time>
      </trkpt>
      <trkpt lat="43.08073" lon="0.07621">
        <ele>649</ele>
        <time>2019-01-18T15:49:03Z</time>
      </trkpt>
      <trkpt lat="43.08067" lon="0.0762">
        <ele>647</ele>
        <time>2019-01-18T15:50:03Z</time>
      </trkpt>
      <trkpt lat="43.08062" lon="0.07613">
        <ele>647</ele>
        <time>2019-01-18T15:51:03Z</time>
      </trkpt>
      <trkpt lat="43.08058" lon="0.07603">
        <ele>648</ele>
        <time>2019-01-18T15:52:03Z</time>
      </trkpt>
      <trkpt lat="43.0804" lon="0.07522">
        <ele>657</ele>
        <time>2019-01-18T15:53:03Z</time>
      </trkpt>
      <trkpt lat="43.08039" lon="0.07497">
        <ele>662</ele>
        <time>2019-01-18T15:54:03Z</time>
      </trkpt>
      <trkpt lat="43.08036" lon="0.07483">
        <ele>663</ele>
        <time>2019-01-18T15:55:03Z</time>
      </trkpt>
      <trkpt lat="43.0802" lon="0.07454">
        <ele>664</ele>
        <time>2019-01-18T15:56:03Z</time>
      </trkpt>
      <trkpt lat="43.08012" lon="0.07437">
        <ele>665</ele>
        <time>2019-01-18T15:57:03Z</time>
      </trkpt>
      <trkpt lat="43.07907" lon="0.07322">
        <ele>663</ele>
        <time>2019-01-18T15:58:03Z</time>
      </trkpt>
      <trkpt lat="43.07813" lon="0.07112">
        <ele>676</ele>
        <time>2019-01-18T15:59:03Z</time>
      </trkpt>
      <trkpt lat="43.07807" lon="0.071">
        <ele>677</ele>
        <time>2019-01-18T16:00:03Z</time>
      </trkpt>
      <trkpt lat="43.0778" lon="0.07036">
        <ele>677</ele>
        <time>2019-01-18T16:01:03Z</time>
      </trkpt>
      <trkpt lat="43.07773" lon="0.07027">
        <ele>677</ele>
        <time>2019-01-18T16:02:03Z</time>
      </trkpt>
      <trkpt lat="43.07761" lon="0.07021">
        <ele>680</ele>
        <time>2019-01-18T16:03:03Z</time>
      </trkpt>
      <trkpt lat="43.0774" lon="0.07027">
        <ele>684</ele>
        <time>2019-01-18T16:04:03Z</time>
      </trkpt>
      <trkpt lat="43.07733" lon="0.07026">
        <ele>684</ele>
        <time>2019-01-18T16:05:03Z</time>
      </trkpt>
      <trkpt lat="43.07684" lon="0.06995">
        <ele>682</ele>
        <time>2019-01-18T16:06:03Z</time>
      </trkpt>
      <trkpt lat="43.07652" lon="0.06965">
        <ele>684</ele>
        <time>2019-01-18T16:07:03Z</time>
      </trkpt>
      <trkpt lat="43.07646" lon="0.0695">
        <ele>686</ele>
        <time>2019-01-18T16:08:03Z</time>
      </trkpt>
      <trkpt lat="43.07646" lon="0.06938">
        <ele>687</ele>
        <time>2019-01-18T16:09:03Z</time>
      </trkpt>
      <trkpt lat="43.07648" lon="0.06919">
        <ele>688</ele>
        <time>2019-01-18T16:10:03Z</time>
      </trkpt>
      <trkpt lat="43.07673" lon="0.06844">
        <ele>691</ele>
        <time>2019-01-18T16:11:03Z</time>
      </trkpt>
      <trkpt lat="43.07688" lon="0.06792">
        <ele>690</ele>
        <time>2019-01-18T16:12:03Z</time>
      </trkpt>
      <trkpt lat="43.07707" lon="0.06751">
        <ele>689</ele>
        <time>2019-01-18T16:13:03Z</time>
      </trkpt>
      <trkpt lat="43.07743" lon="0.067">
        <ele>682</ele>
        <time>2019-01-18T16:14:03Z</time>
      </trkpt>
      <trkpt lat="43.07746" lon="0.06691">
        <ele>682</ele>
        <time>2019-01-18T16:15:03Z</time>
      </trkpt>
      <trkpt lat="43.07747" lon="0.06677">
        <ele>684</ele>
        <time>2019-01-18T16:16:03Z</time>
      </trkpt>
      <trkpt lat="43.07747" lon="0.06665">
        <ele>685</ele>
        <time>2019-01-18T16:17:03Z</time>
      </trkpt>
      <trkpt lat="43.07745" lon="0.06657">
        <ele>684</ele>
        <time>2019-01-18T16:18:03Z</time>
      </trkpt>
      <trkpt lat="43.07737" lon="0.06643">
        <ele>682</ele>
        <time>2019-01-18T16:19:03Z</time>
      </trkpt>
      <trkpt lat="43.07716" lon="0.06624">
        <ele>680</ele>
        <time>2019-01-18T16:20:03Z</time>
      </trkpt>
      <trkpt lat="43.07696" lon="0.06612">
        <ele>680</ele>
        <time>2019-01-18T16:21:03Z</time>
      </trkpt>
      <trkpt lat="43.07686" lon="0.0661">
        <ele>680</ele>
        <time>2019-01-18T16:22:03Z</time>
      </trkpt>
      <trkpt lat="43.07673" lon="0.06608">
        <ele>681</ele>
        <time>2019-01-18T16:23:03Z</time>
      </trkpt>
      <trkpt lat="43.07622" lon="0.0661">
        <ele>685</ele>
        <time>2019-01-18T16:24:03Z</time>
      </trkpt>
      <trkpt lat="43.07607" lon="0.06608">
        <ele>686</ele>
        <time>2019-01-18T16:25:03Z</time>
      </trkpt>
      <trkpt lat="43.07567" lon="0.06595">
        <ele>686</ele>
        <time>2019-01-18T16:26:03Z</time>
      </trkpt>
      <trkpt lat="43.07503" lon="0.06584">
        <ele>689</ele>
        <time>2019-01-18T16:27:03Z</time>
      </trkpt>
      <trkpt lat="43.07486" lon="0.06584">
        <ele>690</ele>
        <time>2019-01-18T16:28:03Z</time>
      </trkpt>
      <trkpt lat="43.07467" lon="0.06587">
        <ele>693</ele>
        <time>2019-01-18T16:29:03Z</time>
      </trkpt>
      <trkpt lat="43.07417" lon="0.06604">
        <ele>700</ele>
        <time>2019-01-18T16:30:03Z</time>
      </trkpt>
      <trkpt lat="43.074" lon="0.06603">
        <ele>704</ele>
        <time>2019-01-18T16:31:03Z</time>
      </trkpt>
      <trkpt lat="43.07388" lon="0.06595">
        <ele>706</ele>
        <time>2019-01-18T16:32:03Z</time>
      </trkpt>
      <trkpt lat="43.0738" lon="0.06582">
        <ele>706</ele>
        <time>2019-01-18T16:33:03Z</time>
      </trkpt>
      <trkpt lat="43.07348" lon="0.06471">
        <ele>704</ele>
        <time>2019-01-18T16:34:03Z</time>
      </trkpt>
      <trkpt lat="43.07326" lon="0.06419">
        <ele>705</ele>
        <time>2019-01-18T16:35:03Z</time>
      </trkpt>
      <trkpt lat="43.07263" lon="0.06329">
        <ele>716</ele>
        <time>2019-01-18T16:36:03Z</time>
      </trkpt>
      <trkpt lat="43.07243" lon="0.06289">
        <ele>722</ele>
        <time>2019-01-18T16:37:03Z</time>
      </trkpt>
      <trkpt lat="43.07232" lon="0.06254">
        <ele>725</ele>
        <time>2019-01-18T16:38:03Z</time>
      </trkpt>
      <trkpt lat="43.07229" lon="0.06228">
        <ele>730</ele>
        <time>2019-01-18T16:39:03Z</time>
      </trkpt>
      <trkpt lat="43.07228" lon="0.06204">
        <ele>734</ele>
        <time>2019-01-18T16:40:03Z</time>
      </trkpt>
      <trkpt lat="43.07233" lon="0.06187">
        <ele>735</ele>
        <time>2019-01-18T16:41:03Z</time>
      </trkpt>
      <trkpt lat="43.07243" lon="0.06174">
        <ele>733</ele>
        <time>2019-01-18T16:42:03Z</time>
      </trkpt>
      <trkpt lat="43.0726" lon="0.06162">
        <ele>729</ele>
        <time>2019-01-18T16:43:03Z</time>
      </trkpt>
      <trkpt lat="43.07281" lon="0.06138">
        <ele>726</ele>
        <time>2019-01-18T16:44:03Z</time>
      </trkpt>
      <trkpt lat="43.07303" lon="0.06121">
        <ele>723</ele>
        <time>2019-01-18T16:45:03Z</time>
      </trkpt>
      <trkpt lat="43.07378" lon="0.06083">
        <ele>712</ele>
        <time>2019-01-18T16:46:03Z</time>
      </trkpt>
      <trkpt lat="43.07388" lon="0.06075">
        <ele>709</ele>
        <time>2019-01-18T16:47:03Z</time>
      </trkpt>
      <trkpt lat="43.07392" lon="0.06069">
        <ele>709</ele>
        <time>2019-01-18T16:48:03Z</time>
      </trkpt>
      <trkpt lat="43.07397" lon="0.06055">
        <ele>708</ele>
        <time>2019-01-18T16:49:03Z</time>
      </trkpt>
      <trkpt lat="43.07397" lon="0.06018">
        <ele>710</ele>
        <time>2019-01-18T16:50:03Z</time>
      </trkpt>
      <trkpt lat="43.07394" lon="0.05995">
        <ele>711</ele>
        <time>2019-01-18T16:51:03Z</time>
      </trkpt>
      <trkpt lat="43.07384" lon="0.05955">
        <ele>709</ele>
        <time>2019-01-18T16:52:03Z</time>
      </trkpt>
      <trkpt lat="43.07374" lon="0.05926">
        <ele>707</ele>
        <time>2019-01-18T16:53:03Z</time>
      </trkpt>
      <trkpt lat="43.07364" lon="0.05909">
        <ele>706</ele>
        <time>2019-01-18T16:54:03Z</time>
      </trkpt>
      <trkpt lat="43.0735" lon="0.05896">
        <ele>705</ele>
        <time>2019-01-18T16:55:03Z</time>
      </trkpt>
      <trkpt lat="43.0725" lon="0.0583">
        <ele>707</ele>
        <time>2019-01-18T16:56:03Z</time>
      </trkpt>
      <trkpt lat="43.0717" lon="0.05746">
        <ele>709</ele>
        <time>2019-01-18T16:57:03Z</time>
      </trkpt>
      <trkpt lat="43.07136" lon="0.05691">
        <ele>712</ele>
        <time>2019-01-18T16:58:03Z</time>
      </trkpt>
      <trkpt lat="43.07086" lon="0.05631">
        <ele>727</ele>
        <time>2019-01-18T16:59:03Z</time>
      </trkpt>
      <trkpt lat="43.07085" lon="0.05615">
        <ele>728</ele>
        <time>2019-01-18T17:00:03Z</time>
      </trkpt>
      <trkpt lat="43.07089" lon="0.05608">
        <ele>727</ele>
        <time>2019-01-18T17:01:03Z</time>
      </trkpt>
      <trkpt lat="43.07097" lon="0.05605">
        <ele>725</ele>
        <time>2019-01-18T17:02:03Z</time>
      </trkpt>
      <trkpt lat="43.07134" lon="0.056">
        <ele>717</ele>
        <time>2019-01-18T17:03:03Z</time>
      </trkpt>
      <trkpt lat="43.07153" lon="0.05596">
        <ele>712</ele>
        <time>2019-01-18T17:04:03Z</time>
      </trkpt>
      <trkpt lat="43.07179" lon="0.05581">
        <ele>707</ele>
        <time>2019-01-18T17:05:03Z</time>
      </trkpt>
      <trkpt lat="43.07187" lon="0.05571">
        <ele>707</ele>
        <time>2019-01-18T17:06:03Z</time>
      </trkpt>
      <trkpt lat="43.07192" lon="0.05557">
        <ele>708</ele>
        <time>2019-01-18T17:07:03Z</time>
      </trkpt>
      <trkpt lat="43.07201" lon="0.05501">
        <ele>719</ele>
        <time>2019-01-18T17:08:03Z</time>
      </trkpt>
      <trkpt lat="43.07206" lon="0.05482">
        <ele>722</ele>
        <time>2019-01-18T17:09:03Z</time>
      </trkpt>
      <trkpt lat="43.07212" lon="0.05471">
        <ele>723</ele>
        <time>2019-01-18T17:10:03Z</time>
      </trkpt>
      <trkpt lat="43.07221" lon="0.05466">
        <ele>721</ele>
        <time>2019-01-18T17:11:03Z</time>
      </trkpt>
      <trkpt lat="43.07234" lon="0.05463">
        <ele>718</ele>
        <time>2019-01-18T17:12:03Z</time>
      </trkpt>
      <trkpt lat="43.07256" lon="0.05467">
        <ele>710</ele>
        <time>2019-01-18T17:13:03Z</time>
      </trkpt>
      <trkpt lat="43.07292" lon="0.05482">
        <ele>700</ele>
        <time>2019-01-18T17:14:03Z</time>
      </trkpt>
      <trkpt lat="43.07303" lon="0.05483">
        <ele>698</ele>
        <time>2019-01-18T17:15:03Z</time>
      </trkpt>
      <trkpt lat="43.07314" lon="0.05472">
        <ele>699</ele>
        <time>2019-01-18T17:16:03Z</time>
      </trkpt>
      <trkpt lat="43.07318" lon="0.05462">
        <ele>701</ele>
        <time>2019-01-18T17:17:03Z</time>
      </trkpt>
      <trkpt lat="43.07347" lon="0.05267">
        <ele>717</ele>
        <time>2019-01-18T17:18:03Z</time>
      </trkpt>
      <trkpt lat="43.0736" lon="0.05223">
        <ele>716</ele>
        <time>2019-01-18T17:19:03Z</time>
      </trkpt>
      <trkpt lat="43.07368" lon="0.05209">
        <ele>715</ele>
        <time>2019-01-18T17:20:03Z</time>
      </trkpt>
      <trkpt lat="43.07384" lon="0.05194">
        <ele>711</ele>
        <time>2019-01-18T17:21:03Z</time>
      </trkpt>
      <trkpt lat="43.07391" lon="0.05181">
        <ele>710</ele>
        <time>2019-01-18T17:22:03Z</time>
      </trkpt>
      <trkpt lat="43.07395" lon="0.05168">
        <ele>711</ele>
        <time>2019-01-18T17:23:03Z</time>
      </trkpt>
      <trkpt lat="43.07395" lon="0.05148">
        <ele>709</ele>
        <time>2019-01-18T17:24:03Z</time>
      </trkpt>
      <trkpt lat="43.07391" lon="0.05125">
        <ele>709</ele>
        <time>2019-01-18T17:25:03Z</time>
      </trkpt>
      <trkpt lat="43.07392" lon="0.05116">
        <ele>708</ele>
        <time>2019-01-18T17:26:03Z</time>
      </trkpt>
      <trkpt lat="43.07351" lon="0.05024">
        <ele>713</ele>
        <time>2019-01-18T17:27:03Z</time>
      </trkpt>
      <trkpt lat="43.07324" lon="0.04922">
        <ele>715</ele>
        <time>2019-01-18T17:28:03Z</time>
      </trkpt>
      <trkpt lat="43.07317" lon="0.04887">
        <ele>720</ele>
        <time>2019-01-18T17:29:03Z</time>
      </trkpt>
      <trkpt lat="43.07315" lon="0.04858">
        <ele>723</ele>
        <time>2019-01-18T17:30:03Z</time>
      </trkpt>
      <trkpt lat="43.07319" lon="0.0484">
        <ele>723</ele>
        <time>2019-01-18T17:31:03Z</time>
      </trkpt>
      <trkpt lat="43.07328" lon="0.04823">
        <ele>723</ele>
        <time>2019-01-18T17:32:03Z</time>
      </trkpt>
      <trkpt lat="43.07444" lon="0.04725">
        <ele>718</ele>
        <time>2019-01-18T17:33:03Z</time>
      </trkpt>
      <trkpt lat="43.07471" lon="0.04713">
        <ele>717</ele>
        <time>2019-01-18T17:34:03Z</time>
      </trkpt>
      <trkpt lat="43.07514" lon="0.04716">
        <ele>709</ele>
        <time>2019-01-18T17:35:03Z</time>
      </trkpt>
      <trkpt lat="43.07532" lon="0.04709">
        <ele>707</ele>
        <time>2019-01-18T17:36:03Z</time>
      </trkpt>
      <trkpt lat="43.07569" lon="0.04677">
        <ele>711</ele>
        <time>2019-01-18T17:37:03Z</time>
      </trkpt>
      <trkpt lat="43.07652" lon="0.04568">
        <ele>708</ele>
        <time>2019-01-18T17:38:03Z</time>
      </trkpt>
      <trkpt lat="43.07658" lon="0.04554">
        <ele>707</ele>
        <time>2019-01-18T17:39:03Z</time>
      </trkpt>
      <trkpt lat="43.07662" lon="0.04541">
        <ele>707</ele>
        <time>2019-01-18T17:40:03Z</time>
      </trkpt>
      <trkpt lat="43.07664" lon="0.04525">
        <ele>707</ele>
        <time>2019-01-18T17:41:03Z</time>
      </trkpt>
      <trkpt lat="43.07662" lon="0.04507">
        <ele>708</ele>
        <time>2019-01-18T17:42:03Z</time>
      </trkpt>
      <trkpt lat="43.07655" lon="0.04487">
        <ele>708</ele>
        <time>2019-01-18T17:43:03Z</time>
      </trkpt>
      <trkpt lat="43.07627" lon="0.04444">
        <ele>708</ele>
        <time>2019-01-18T17:44:03Z</time>
      </trkpt>
      <trkpt lat="43.07545" lon="0.04326">
        <ele>715</ele>
        <time>2019-01-18T17:45:03Z</time>
      </trkpt>
      <trkpt lat="43.07533" lon="0.04303">
        <ele>718</ele>
        <time>2019-01-18T17:46:03Z</time>
      </trkpt>
      <trkpt lat="43.07525" lon="0.0428">
        <ele>720</ele>
        <time>2019-01-18T17:47:03Z</time>
      </trkpt>
      <trkpt lat="43.07524" lon="0.04257">
        <ele>718</ele>
        <time>2019-01-18T17:48:03Z</time>
      </trkpt>
      <trkpt lat="43.07532" lon="0.04196">
        <ele>716</ele>
        <time>2019-01-18T17:49:03Z</time>
      </trkpt>
      <trkpt lat="43.07534" lon="0.04133">
        <ele>718</ele>
        <time>2019-01-18T17:50:03Z</time>
      </trkpt>
      <trkpt lat="43.07539" lon="0.04109">
        <ele>717</ele>
        <time>2019-01-18T17:51:03Z</time>
      </trkpt>
      <trkpt lat="43.07548" lon="0.04092">
        <ele>714</ele>
        <time>2019-01-18T17:52:03Z</time>
      </trkpt>
      <trkpt lat="43.07561" lon="0.04072">
        <ele>711</ele>
        <time>2019-01-18T17:53:03Z</time>
      </trkpt>
      <trkpt lat="43.07567" lon="0.04053">
        <ele>711</ele>
        <time>2019-01-18T17:54:03Z</time>
      </trkpt>
      <trkpt lat="43.07579" lon="0.03899">
        <ele>717</ele>
        <time>2019-01-18T17:55:03Z</time>
      </trkpt>
      <trkpt lat="43.07589" lon="0.0386">
        <ele>714</ele>
        <time>2019-01-18T17:56:03Z</time>
      </trkpt>
      <trkpt lat="43.07629" lon="0.03779">
        <ele>708</ele>
        <time>2019-01-18T17:57:03Z</time>
      </trkpt>
      <trkpt lat="43.07636" lon="0.03753">
        <ele>708</ele>
        <time>2019-01-18T17:58:03Z</time>
      </trkpt>
      <trkpt lat="43.07635" lon="0.03729">
        <ele>705</ele>
        <time>2019-01-18T17:59:03Z</time>
      </trkpt>
      <trkpt lat="43.0763" lon="0.03713">
        <ele>704</ele>
        <time>2019-01-18T18:00:03Z</time>
      </trkpt>
      <trkpt lat="43.07621" lon="0.03695">
        <ele>703</ele>
        <time>2019-01-18T18:01:03Z</time>
      </trkpt>
      <trkpt lat="43.0761" lon="0.03682">
        <ele>703</ele>
        <time>2019-01-18T18:02:03Z</time>
      </trkpt>
      <trkpt lat="43.07507" lon="0.03597">
        <ele>707</ele>
        <time>2019-01-18T18:03:03Z</time>
      </trkpt>
      <trkpt lat="43.07489" lon="0.03572">
        <ele>707</ele>
        <time>2019-01-18T18:04:03Z</time>
      </trkpt>
      <trkpt lat="43.07479" lon="0.03551">
        <ele>707</ele>
        <time>2019-01-18T18:05:03Z</time>
      </trkpt>
      <trkpt lat="43.07475" lon="0.03529">
        <ele>705</ele>
        <time>2019-01-18T18:06:03Z</time>
      </trkpt>
      <trkpt lat="43.07474" lon="0.03496">
        <ele>702</ele>
        <time>2019-01-18T18:07:03Z</time>
      </trkpt>
      <trkpt lat="43.07475" lon="0.03455">
        <ele>697</ele>
        <time>2019-01-18T18:08:03Z</time>
      </trkpt>
      <trkpt lat="43.07474" lon="0.03421">
        <ele>694</ele>
        <time>2019-01-18T18:09:03Z</time>
      </trkpt>
      <trkpt lat="43.0747" lon="0.03402">
        <ele>693</ele>
        <time>2019-01-18T18:10:03Z</time>
      </trkpt>
      <trkpt lat="43.07459" lon="0.03381">
        <ele>692</ele>
        <time>2019-01-18T18:11:03Z</time>
      </trkpt>
      <trkpt lat="43.0744" lon="0.0336">
        <ele>692</ele>
        <time>2019-01-18T18:12:03Z</time>
      </trkpt>
      <trkpt lat="43.07426" lon="0.03351">
        <ele>692</ele>
        <time>2019-01-18T18:13:03Z</time>
      </trkpt>
      <trkpt lat="43.07401" lon="0.03344">
        <ele>691</ele>
        <time>2019-01-18T18:14:03Z</time>
      </trkpt>
      <trkpt lat="43.07359" lon="0.03342">
        <ele>687</ele>
        <time>2019-01-18T18:15:03Z</time>
      </trkpt>
      <trkpt lat="43.07345" lon="0.03345">
        <ele>686</ele>
        <time>2019-01-18T18:16:03Z</time>
      </trkpt>
      <trkpt lat="43.07333" lon="0.03351">
        <ele>686</ele>
        <time>2019-01-18T18:17:03Z</time>
      </trkpt>
      <trkpt lat="43.07297" lon="0.03386">
        <ele>681</ele>
        <time>2019-01-18T18:18:03Z</time>
      </trkpt>
      <trkpt lat="43.07278" lon="0.03411">
        <ele>679</ele>
        <time>2019-01-18T18:19:03Z</time>
      </trkpt>
      <trkpt lat="43.07268" lon="0.03434">
        <ele>680</ele>
        <time>2019-01-18T18:20:03Z</time>
      </trkpt>
      <trkpt lat="43.07263" lon="0.03467">
        <ele>684</ele>
        <time>2019-01-18T18:21:03Z</time>
      </trkpt>
      <trkpt lat="43.07206" lon="0.03568">
        <ele>682</ele>
        <time>2019-01-18T18:22:03Z</time>
      </trkpt>
      <trkpt lat="43.07172" lon="0.03615">
        <ele>676</ele>
        <time>2019-01-18T18:23:03Z</time>
      </trkpt>
      <trkpt lat="43.07144" lon="0.03658">
        <ele>672</ele>
        <time>2019-01-18T18:24:03Z</time>
      </trkpt>
      <trkpt lat="43.07136" lon="0.03677">
        <ele>670</ele>
        <time>2019-01-18T18:25:03Z</time>
      </trkpt>
      <trkpt lat="43.07134" lon="0.03688">
        <ele>668</ele>
        <time>2019-01-18T18:26:03Z</time>
      </trkpt>
      <trkpt lat="43.07136" lon="0.03694">
        <ele>668</ele>
        <time>2019-01-18T18:27:03Z</time>
      </trkpt>
      <trkpt lat="43.07142" lon="0.03706">
        <ele>669</ele>
        <time>2019-01-18T18:28:03Z</time>
      </trkpt>
      <trkpt lat="43.07188" lon="0.03761">
        <ele>675</ele>
        <time>2019-01-18T18:29:03Z</time>
      </trkpt>
      <trkpt lat="43.07236" lon="0.03773">
        <ele>684</ele>
        <time>2019-01-18T18:30:03Z</time>
      </trkpt>
      <trkpt lat="43.07241" lon="0.03781">
        <ele>685</ele>
        <time>2019-01-18T18:31:03Z</time>
      </trkpt>
      <trkpt lat="43.07246" lon="0.03802">
        <ele>683</ele>
        <time>2019-01-18T18:32:03Z</time>
      </trkpt>
      <trkpt lat="43.07244" lon="0.03812">
        <ele>682</ele>
        <time>2019-01-18T18:33:03Z</time>
      </trkpt>
      <trkpt lat="43.07221" lon="0.03837">
        <ele>675</ele>
        <time>2019-01-18T18:34:03Z</time>
      </trkpt>
      <trkpt lat="43.0714" lon="0.0388">
        <ele>661</ele>
        <time>2019-01-18T18:35:03Z</time>
      </trkpt>
      <trkpt lat="43.0713" lon="0.03891">
        <ele>659</ele>
        <time>2019-01-18T18:36:03Z</time>
      </trkpt>
      <trkpt lat="43.07123" lon="0.03903">
        <ele>658</ele>
        <time>2019-01-18T18:37:03Z</time>
      </trkpt>
      <trkpt lat="43.0712" lon="0.03917">
        <ele>659</ele>
        <time>2019-01-18T18:38:03Z</time>
      </trkpt>
      <trkpt lat="43.07116" lon="0.03955">
        <ele>657</ele>
        <time>2019-01-18T18:39:03Z</time>
      </trkpt>
      <trkpt lat="43.0712" lon="0.03982">
        <ele>659</ele>
        <time>2019-01-18T18:40:03Z</time>
      </trkpt>
      <trkpt lat="43.07151" lon="0.04098">
        <ele>674</ele>
        <time>2019-01-18T18:41:03Z</time>
      </trkpt>
      <trkpt lat="43.07148" lon="0.04102">
        <ele>673</ele>
        <time>2019-01-18T18:42:03Z</time>
      </trkpt>
      <trkpt lat="43.07145" lon="0.04103">
        <ele>672</ele>
        <time>2019-01-18T18:43:03Z</time>
      </trkpt>
      <trkpt lat="43.07111" lon="0.04089">
        <ele>660</ele>
        <time>2019-01-18T18:44:03Z</time>
      </trkpt>
      <trkpt lat="43.07101" lon="0.0409">
        <ele>657</ele>
        <time>2019-01-18T18:45:03Z</time>
      </trkpt>
      <trkpt lat="43.07091" lon="0.04095">
        <ele>653</ele>
        <time>2019-01-18T18:46:03Z</time>
      </trkpt>
      <trkpt lat="43.07081" lon="0.04108">
        <ele>652</ele>
        <time>2019-01-18T18:47:03Z</time>
      </trkpt>
      <trkpt lat="43.07075" lon="0.04134">
        <ele>653</ele>
        <time>2019-01-18T18:48:03Z</time>
      </trkpt>
      <trkpt lat="43.07071" lon="0.04156">
        <ele>654</ele>
        <time>2019-01-18T18:49:03Z</time>
      </trkpt>
      <trkpt lat="43.07072" lon="0.04179">
        <ele>656</ele>
        <time>2019-01-18T18:50:03Z</time>
      </trkpt>
      <trkpt lat="43.07077" lon="0.04223">
        <ele>659</ele>
        <time>2019-01-18T18:51:03Z</time>
      </trkpt>
      <trkpt lat="43.07088" lon="0.04265">
        <ele>662</ele>
        <time>2019-01-18T18:52:03Z</time>
      </trkpt>
      <trkpt lat="43.07088" lon="0.0428">
        <ele>663</ele>
        <time>2019-01-18T18:53:03Z</time>
      </trkpt>
      <trkpt lat="43.07083" lon="0.0429">
        <ele>662</ele>
        <time>2019-01-18T18:54:03Z</time>
      </trkpt>
      <trkpt lat="43.07077" lon="0.04292">
        <ele>663</ele>
        <time>2019-01-18T18:55:03Z</time>
      </trkpt>
      <trkpt lat="43.07067" lon="0.0429">
        <ele>663</ele>
        <time>2019-01-18T18:56:03Z</time>
      </trkpt>
      <trkpt lat="43.07061" lon="0.04291">
        <ele>664</ele>
        <time>2019-01-18T18:57:03Z</time>
      </trkpt>
      <trkpt lat="43.07033" lon="0.04316">
        <ele>668</ele>
        <time>2019-01-18T18:58:03Z</time>
      </trkpt>
      <trkpt lat="43.07026" lon="0.04319">
        <ele>668</ele>
        <time>2019-01-18T18:59:03Z</time>
      </trkpt>
      <trkpt lat="43.07021" lon="0.04317">
        <ele>669</ele>
        <time>2019-01-18T19:00:03Z</time>
      </trkpt>
      <trkpt lat="43.07018" lon="0.0431">
        <ele>668</ele>
        <time>2019-01-18T19:01:03Z</time>
      </trkpt>
      <trkpt lat="43.07022" lon="0.04275">
        <ele>665</ele>
        <time>2019-01-18T19:02:03Z</time>
      </trkpt>
      <trkpt lat="43.07022" lon="0.04253">
        <ele>662</ele>
        <time>2019-01-18T19:03:03Z</time>
      </trkpt>
      <trkpt lat="43.07019" lon="0.04238">
        <ele>661</ele>
        <time>2019-01-18T19:04:03Z</time>
      </trkpt>
      <trkpt lat="43.07" lon="0.04193">
        <ele>654</ele>
        <time>2019-01-18T19:05:03Z</time>
      </trkpt>
      <trkpt lat="43.06988" lon="0.04158">
        <ele>655</ele>
        <time>2019-01-18T19:06:03Z</time>
      </trkpt>
      <trkpt lat="43.06979" lon="0.0412">
        <ele>655</ele>
        <time>2019-01-18T19:07:03Z</time>
      </trkpt>
      <trkpt lat="43.06978" lon="0.04054">
        <ele>647</ele>
        <time>2019-01-18T19:08:03Z</time>
      </trkpt>
      <trkpt lat="43.0694" lon="0.03917">
        <ele>650</ele>
        <time>2019-01-18T19:09:03Z</time>
      </trkpt>
      <trkpt lat="43.06936" lon="0.03862">
        <ele>642</ele>
        <time>2019-01-18T19:10:03Z</time>
      </trkpt>
      <trkpt lat="43.0693" lon="0.0384">
        <ele>640</ele>
        <time>2019-01-18T19:11:03Z</time>
      </trkpt>
      <trkpt lat="43.06897" lon="0.03762">
        <ele>639</ele>
        <time>2019-01-18T19:12:03Z</time>
      </trkpt>
      <trkpt lat="43.06891" lon="0.03739">
        <ele>638</ele>
        <time>2019-01-18T19:13:03Z</time>
      </trkpt>
      <trkpt lat="43.06864" lon="0.03585">
        <ele>609</ele>
        <time>2019-01-18T19:14:03Z</time>
      </trkpt>
      <trkpt lat="43.0686" lon="0.03578">
        <ele>607</ele>
        <time>2019-01-18T19:15:03Z</time>
      </trkpt>
      <trkpt lat="43.06853" lon="0.03575">
        <ele>607</ele>
        <time>2019-01-18T19:16:03Z</time>
      </trkpt>
      <trkpt lat="43.06844" lon="0.03575">
        <ele>608</ele>
        <time>2019-01-18T19:17:03Z</time>
      </trkpt>
      <trkpt lat="43.06788" lon="0.03601">
        <ele>610</ele>
        <time>2019-01-18T19:18:03Z</time>
      </trkpt>
      <trkpt lat="43.06752" lon="0.03608">
        <ele>606</ele>
        <time>2019-01-18T19:19:03Z</time>
      </trkpt>
      <trkpt lat="43.06723" lon="0.03629">
        <ele>605</ele>
        <time>2019-01-18T19:20:03Z</time>
      </trkpt>
      <trkpt lat="43.06707" lon="0.03648">
        <ele>606</ele>
        <time>2019-01-18T19:21:03Z</time>
      </trkpt>
      <trkpt lat="43.06678" lon="0.03707">
        <ele>609</ele>
        <time>2019-01-18T19:22:03Z</time>
      </trkpt>
      <trkpt lat="43.06668" lon="0.0373">
        <ele>610</ele>
        <time>2019-01-18T19:23:03Z</time>
      </trkpt>
      <trkpt lat="43.0666" lon="0.03754">
        <ele>614</ele>
        <time>2019-01-18T19:24:03Z</time>
      </trkpt>
      <trkpt lat="43.06646" lon="0.03835">
        <ele>622</ele>
        <time>2019-01-18T19:25:03Z</time>
      </trkpt>
      <trkpt lat="43.06639" lon="0.03857">
        <ele>623</ele>
        <time>2019-01-18T19:26:03Z</time>
      </trkpt>
      <trkpt lat="43.06636" lon="0.03863">
        <ele>623</ele>
        <time>2019-01-18T19:27:03Z</time>
      </trkpt>
      <trkpt lat="43.06621" lon="0.03883">
        <ele>621</ele>
        <time>2019-01-18T19:28:03Z</time>
      </trkpt>
      <trkpt lat="43.06614" lon="0.03895">
        <ele>621</ele>
        <time>2019-01-18T19:29:03Z</time>
      </trkpt>
      <trkpt lat="43.06613" lon="0.03904">
        <ele>622</ele>
        <time>2019-01-18T19:30:03Z</time>
      </trkpt>
      <trkpt lat="43.06623" lon="0.03984">
        <ele>634</ele>
        <time>2019-01-18T19:31:03Z</time>
      </trkpt>
      <trkpt lat="43.06621" lon="0.03998">
        <ele>635</ele>
        <time>2019-01-18T19:32:03Z</time>
      </trkpt>
      <trkpt lat="43.06618" lon="0.04001">
        <ele>635</ele>
        <time>2019-01-18T19:33:03Z</time>
      </trkpt>
      <trkpt lat="43.06614" lon="0.04">
        <ele>634</ele>
        <time>2019-01-18T19:34:03Z</time>
      </trkpt>
      <trkpt lat="43.06605" lon="0.03985">
        <ele>630</ele>
        <time>2019-01-18T19:35:03Z</time>
      </trkpt>
      <trkpt lat="43.06566" lon="0.03891">
        <ele>619</ele>
        <time>2019-01-18T19:36:03Z</time>
      </trkpt>
      <trkpt lat="43.06565" lon="0.03874">
        <ele>616</ele>
        <time>2019-01-18T19:37:03Z</time>
      </trkpt>
      <trkpt lat="43.06567" lon="0.03863">
        <ele>614</ele>
        <time>2019-01-18T19:38:03Z</time>
      </trkpt>
      <trkpt lat="43.06577" lon="0.03845">
        <ele>609</ele>
        <time>2019-01-18T19:39:03Z</time>
      </trkpt>
      <trkpt lat="43.06584" lon="0.03827">
        <ele>605</ele>
        <time>2019-01-18T19:40:03Z</time>
      </trkpt>
      <trkpt lat="43.06587" lon="0.03811">
        <ele>603</ele>
        <time>2019-01-18T19:41:03Z</time>
      </trkpt>
      <trkpt lat="43.06581" lon="0.0374">
        <ele>588</ele>
        <time>2019-01-18T19:42:03Z</time>
      </trkpt>
      <trkpt lat="43.06573" lon="0.03733">
        <ele>586</ele>
        <time>2019-01-18T19:43:03Z</time>
      </trkpt>
      <trkpt lat="43.06561" lon="0.03731">
        <ele>586</ele>
        <time>2019-01-18T19:44:03Z</time>
      </trkpt>
      <trkpt lat="43.06545" lon="0.03736">
        <ele>588</ele>
        <time>2019-01-18T19:45:03Z</time>
      </trkpt>
      <trkpt lat="43.06521" lon="0.03749">
        <ele>591</ele>
        <time>2019-01-18T19:46:03Z</time>
      </trkpt>
      <trkpt lat="43.06499" lon="0.03771">
        <ele>598</ele>
        <time>2019-01-18T19:47:03Z</time>
      </trkpt>
      <trkpt lat="43.0649" lon="0.03778">
        <ele>600</ele>
        <time>2019-01-18T19:48:03Z</time>
      </trkpt>
      <trkpt lat="43.06478" lon="0.03781">
        <ele>600</ele>
        <time>2019-01-18T19:49:03Z</time>
      </trkpt>
      <trkpt lat="43.06373" lon="0.03782">
        <ele>592</ele>
        <time>2019-01-18T19:50:03Z</time>
      </trkpt>
      <trkpt lat="43.0634" lon="0.03794">
        <ele>594</ele>
        <time>2019-01-18T19:51:03Z</time>
      </trkpt>
      <trkpt lat="43.06306" lon="0.0381">
        <ele>606</ele>
        <time>2019-01-18T19:52:03Z</time>
      </trkpt>
      <trkpt lat="43.06302" lon="0.03808">
        <ele>606</ele>
        <time>2019-01-18T19:53:03Z</time>
      </trkpt>
      <trkpt lat="43.06295" lon="0.03793">
        <ele>604</ele>
        <time>2019-01-18T19:54:03Z</time>
      </trkpt>
      <trkpt lat="43.06291" lon="0.03758">
        <ele>594</ele>
        <time>2019-01-18T19:55:03Z</time>
      </trkpt>
      <trkpt lat="43.06276" lon="0.03728">
        <ele>596</ele>
        <time>2019-01-18T19:56:03Z</time>
      </trkpt>
      <trkpt lat="43.06243" lon="0.03684">
        <ele>595</ele>
        <time>2019-01-18T19:57:03Z</time>
      </trkpt>
      <trkpt lat="43.06233" lon="0.03667">
        <ele>593</ele>
        <time>2019-01-18T19:58:03Z</time>
      </trkpt>
      <trkpt lat="43.06232" lon="0.03662">
        <ele>595</ele>
        <time>2019-01-18T19:59:03Z</time>
      </trkpt>
      <trkpt lat="43.0617" lon="0.0364">
        <ele>602</ele>
        <time>2019-01-18T20:00:03Z</time>
      </trkpt>
      <trkpt lat="43.06068" lon="0.03614">
        <ele>601</ele>
        <time>2019-01-18T20:01:03Z</time>
      </trkpt>
      <trkpt lat="43.06036" lon="0.03602">
        <ele>596</ele>
        <time>2019-01-18T20:02:03Z</time>
      </trkpt>
      <trkpt lat="43.05948" lon="0.03549">
        <ele>596</ele>
        <time>2019-01-18T20:03:03Z</time>
      </trkpt>
      <trkpt lat="43.05879" lon="0.03485">
        <ele>589</ele>
        <time>2019-01-18T20:04:03Z</time>
      </trkpt>
      <trkpt lat="43.05848" lon="0.03466">
        <ele>585</ele>
        <time>2019-01-18T20:05:03Z</time>
      </trkpt>
      <trkpt lat="43.05833" lon="0.03453">
        <ele>582</ele>
        <time>2019-01-18T20:06:03Z</time>
      </trkpt>
      <trkpt lat="43.05758" lon="0.03368">
        <ele>576</ele>
        <time>2019-01-18T20:07:03Z</time>
      </trkpt>
      <trkpt lat="43.05656" lon="0.03261">
        <ele>576</ele>
        <time>2019-01-18T20:08:03Z</time>
      </trkpt>
      <trkpt lat="43.05625" lon="0.03232">
        <ele>579</ele>
        <time>2019-01-18T20:09:03Z</time>
      </trkpt>
      <trkpt lat="43.05597" lon="0.0321">
        <ele>580</ele>
        <time>2019-01-18T20:10:03Z</time>
      </trkpt>
      <trkpt lat="43.05555" lon="0.03195">
        <ele>585</ele>
        <time>2019-01-18T20:11:03Z</time>
      </trkpt>
      <trkpt lat="43.05537" lon="0.03187">
        <ele>587</ele>
        <time>2019-01-18T20:12:03Z</time>
      </trkpt>
      <trkpt lat="43.0552" lon="0.03175">
        <ele>587</ele>
        <time>2019-01-18T20:13:03Z</time>
      </trkpt>
      <trkpt lat="43.0551" lon="0.03165">
        <ele>585</ele>
        <time>2019-01-18T20:14:03Z</time>
      </trkpt>
      <trkpt lat="43.05507" lon="0.03156">
        <ele>584</ele>
        <time>2019-01-18T20:15:03Z</time>
      </trkpt>
      <trkpt lat="43.05499" lon="0.03089">
        <ele>571</ele>
        <time>2019-01-18T20:16:03Z</time>
      </trkpt>
      <trkpt lat="43.05475" lon="0.03016">
        <ele>572</ele>
        <time>2019-01-18T20:17:03Z</time>
      </trkpt>
      <trkpt lat="43.05454" lon="0.02936">
        <ele>571</ele>
        <time>2019-01-18T20:18:03Z</time>
      </trkpt>
      <trkpt lat="43.05431" lon="0.02836">
        <ele>568</ele>
        <time>2019-01-18T20:19:03Z</time>
      </trkpt>
      <trkpt lat="43.05415" lon="0.02773">
        <ele>567</ele>
        <time>2019-01-18T20:20:03Z</time>
      </trkpt>
      <trkpt lat="43.05399" lon="0.02658">
        <ele>567</ele>
        <time>2019-01-18T20:21:03Z</time>
      </trkpt>
      <trkpt lat="43.05393" lon="0.02595">
        <ele>566</ele>
        <time>2019-01-18T20:22:03Z</time>
      </trkpt>
      <trkpt lat="43.0539" lon="0.02524">
        <ele>564</ele>
        <time>2019-01-18T20:23:03Z</time>
      </trkpt>
      <trkpt lat="43.05392" lon="0.02359">
        <ele>558</ele>
        <time>2019-01-18T20:24:03Z</time>
      </trkpt>
      <trkpt lat="43.05389" lon="0.02317">
        <ele>558</ele>
        <time>2019-01-18T20:25:03Z</time>
      </trkpt>
      <trkpt lat="43.05382" lon="0.02262">
        <ele>558</ele>
        <time>2019-01-18T20:26:03Z</time>
      </trkpt>
      <trkpt lat="43.05367" lon="0.02086">
        <ele>560</ele>
        <time>2019-01-18T20:27:03Z</time>
      </trkpt>
      <trkpt lat="43.05363" lon="0.0206">
        <ele>560</ele>
        <time>2019-01-18T20:28:03Z</time>
      </trkpt>
      <trkpt lat="43.05344" lon="0.01967">
        <ele>560</ele>
        <time>2019-01-18T20:29:03Z</time>
      </trkpt>
      <trkpt lat="43.05337" lon="0.01904">
        <ele>558</ele>
        <time>2019-01-18T20:30:03Z</time>
      </trkpt>
      <trkpt lat="43.05323" lon="0.01832">
        <ele>558</ele>
        <time>2019-01-18T20:31:03Z</time>
      </trkpt>
      <trkpt lat="43.05312" lon="0.01798">
        <ele>559</ele>
        <time>2019-01-18T20:32:03Z</time>
      </trkpt>
      <trkpt lat="43.05286" lon="0.01721">
        <ele>558</ele>
        <time>2019-01-18T20:33:03Z</time>
      </trkpt>
      <trkpt lat="43.05266" lon="0.01641">
        <ele>552</ele>
        <time>2019-01-18T20:34:03Z</time>
      </trkpt>
      <trkpt lat="43.0526" lon="0.01608">
        <ele>548</ele>
        <time>2019-01-18T20:35:03Z</time>
      </trkpt>
      <trkpt lat="43.0526" lon="0.01593">
        <ele>546</ele>
        <time>2019-01-18T20:36:03Z</time>
      </trkpt>
      <trkpt lat="43.05263" lon="0.01585">
        <ele>546</ele>
        <time>2019-01-18T20:37:03Z</time>
      </trkpt>
      <trkpt lat="43.05287" lon="0.01544">
        <ele>542</ele>
        <time>2019-01-18T20:38:03Z</time>
      </trkpt>
      <trkpt lat="43.05291" lon="0.01531">
        <ele>542</ele>
        <time>2019-01-18T20:39:03Z</time>
      </trkpt>
      <trkpt lat="43.05295" lon="0.01509">
        <ele>540</ele>
        <time>2019-01-18T20:40:03Z</time>
      </trkpt>
      <trkpt lat="43.05291" lon="0.01445">
        <ele>534</ele>
        <time>2019-01-18T20:41:03Z</time>
      </trkpt>
      <trkpt lat="43.05292" lon="0.01403">
        <ele>531</ele>
        <time>2019-01-18T20:42:03Z</time>
      </trkpt>
      <trkpt lat="43.05296" lon="0.01394">
        <ele>531</ele>
        <time>2019-01-18T20:43:03Z</time>
      </trkpt>
      <trkpt lat="43.053" lon="0.01391">
        <ele>532</ele>
        <time>2019-01-18T20:44:03Z</time>
      </trkpt>
      <trkpt lat="43.05315" lon="0.01389">
        <ele>533</ele>
        <time>2019-01-18T20:45:03Z</time>
      </trkpt>
      <trkpt lat="43.05319" lon="0.01386">
        <ele>534</ele>
        <time>2019-01-18T20:46:03Z</time>
      </trkpt>
      <trkpt lat="43.05321" lon="0.01376">
        <ele>534</ele>
        <time>2019-01-18T20:47:03Z</time>
      </trkpt>
      <trkpt lat="43.0532" lon="0.01367">
        <ele>534</ele>
        <time>2019-01-18T20:48:03Z</time>
      </trkpt>
      <trkpt lat="43.05312" lon="0.01356">
        <ele>532</ele>
        <time>2019-01-18T20:49:03Z</time>
      </trkpt>
      <trkpt lat="43.05292" lon="0.01341">
        <ele>529</ele>
        <time>2019-01-18T20:50:03Z</time>
      </trkpt>
      <trkpt lat="43.05288" lon="0.01336">
        <ele>528</ele>
        <time>2019-01-18T20:51:03Z</time>
      </trkpt>
      <trkpt lat="43.05286" lon="0.0133">
        <ele>527</ele>
        <time>2019-01-18T20:52:03Z</time>
      </trkpt>
      <trkpt lat="43.05286" lon="0.01317">
        <ele>527</ele>
        <time>2019-01-18T20:53:03Z</time>
      </trkpt>
      <trkpt lat="43.05294" lon="0.0125">
        <ele>524</ele>
        <time>2019-01-18T20:54:03Z</time>
      </trkpt>
      <trkpt lat="43.05299" lon="0.01234">
        <ele>524</ele>
        <time>2019-01-18T20:55:03Z</time>
      </trkpt>
      <trkpt lat="43.05317" lon="0.01204">
        <ele>525</ele>
        <time>2019-01-18T20:56:03Z</time>
      </trkpt>
      <trkpt lat="43.05323" lon="0.01192">
        <ele>525</ele>
        <time>2019-01-18T20:57:03Z</time>
      </trkpt>
      <trkpt lat="43.05325" lon="0.01173">
        <ele>524</ele>
        <time>2019-01-18T20:58:03Z</time>
      </trkpt>
      <trkpt lat="43.05294" lon="0.00998">
        <ele>514</ele>
        <time>2019-01-18T20:59:03Z</time>
      </trkpt>
      <trkpt lat="43.05279" lon="0.00958">
        <ele>510</ele>
        <time>2019-01-18T21:00:03Z</time>
      </trkpt>
      <trkpt lat="43.05277" lon="0.00945">
        <ele>509</ele>
        <time>2019-01-18T21:01:03Z</time>
      </trkpt>
      <trkpt lat="43.05288" lon="0.00833">
        <ele>504</ele>
        <time>2019-01-18T21:02:03Z</time>
      </trkpt>
      <trkpt lat="43.05299" lon="0.00753">
        <ele>502</ele>
        <time>2019-01-18T21:03:03Z</time>
      </trkpt>
      <trkpt lat="43.05299" lon="0.00741">
        <ele>502</ele>
        <time>2019-01-18T21:04:03Z</time>
      </trkpt>
      <trkpt lat="43.05295" lon="0.00729">
        <ele>501</ele>
        <time>2019-01-18T21:05:03Z</time>
      </trkpt>
      <trkpt lat="43.05276" lon="0.00702">
        <ele>498</ele>
        <time>2019-01-18T21:06:03Z</time>
      </trkpt>
      <trkpt lat="43.05273" lon="0.00695">
        <ele>497</ele>
        <time>2019-01-18T21:07:03Z</time>
      </trkpt>
      <trkpt lat="43.05277" lon="0.00587">
        <ele>500</ele>
        <time>2019-01-18T21:08:03Z</time>
      </trkpt>
      <trkpt lat="43.05274" lon="0.00571">
        <ele>500</ele>
        <time>2019-01-18T21:09:03Z</time>
      </trkpt>
      <trkpt lat="43.05253" lon="0.00528">
        <ele>497</ele>
        <time>2019-01-18T21:10:03Z</time>
      </trkpt>
      <trkpt lat="43.05249" lon="0.00514">
        <ele>497</ele>
        <time>2019-01-18T21:11:03Z</time>
      </trkpt>
      <trkpt lat="43.05246" lon="0.00483">
        <ele>498</ele>
        <time>2019-01-18T21:12:03Z</time>
      </trkpt>
      <trkpt lat="43.05252" lon="0.00408">
        <ele>497</ele>
        <time>2019-01-18T21:13:03Z</time>
      </trkpt>
      <trkpt lat="43.05278" lon="0.00293">
        <ele>499</ele>
        <time>2019-01-18T21:14:03Z</time>
      </trkpt>
      <trkpt lat="43.05302" lon="0.00222">
        <ele>495</ele>
        <time>2019-01-18T21:15:03Z</time>
      </trkpt>
      <trkpt lat="43.0531" lon="0.0018">
        <ele>494</ele>
        <time>2019-01-18T21:16:03Z</time>
      </trkpt>
      <trkpt lat="43.05319" lon="0.00151">
        <ele>491</ele>
        <time>2019-01-18T21:17:03Z</time>
      </trkpt>
      <trkpt lat="43.05324" lon="0.00137">
        <ele>489</ele>
        <time>2019-01-18T21:18:03Z</time>
      </trkpt>
      <trkpt lat="43.05343" lon="0.00099">
        <ele>488</ele>
        <time>2019-01-18T21:19:03Z</time>
      </trkpt>
      <trkpt lat="43.05354" lon="0.00058">
        <ele>489</ele>
        <time>2019-01-18T21:20:03Z</time>
      </trkpt>
      <trkpt lat="43.05361" lon="0.00017">
        <ele>490</ele>
        <time>2019-01-18T21:21:03Z</time>
      </trkpt>
      <trkpt lat="43.05361" lon="0.00011">
        <ele>490</ele>
        <time>2019-01-18T21:22:03Z</time>
      </trkpt>
      <trkpt lat="43.05357" lon="6.0E-5">
        <ele>489</ele>
        <time>2019-01-18T21:23:03Z</time>
      </trkpt>
      <trkpt lat="43.05345" lon="-0.0001">
        <ele>486</ele>
        <time>2019-01-18T21:24:03Z</time>
      </trkpt>
      <trkpt lat="43.05341" lon="-0.00022">
        <ele>484</ele>
        <time>2019-01-18T21:25:03Z</time>
      </trkpt>
      <trkpt lat="43.05339" lon="-0.00084">
        <ele>479</ele>
        <time>2019-01-18T21:26:03Z</time>
      </trkpt>
      <trkpt lat="43.05345" lon="-0.00231">
        <ele>478</ele>
        <time>2019-01-18T21:27:03Z</time>
      </trkpt>
      <trkpt lat="43.05344" lon="-0.00395">
        <ele>473</ele>
        <time>2019-01-18T21:28:03Z</time>
      </trkpt>
      <trkpt lat="43.05346" lon="-0.00405">
        <ele>473</ele>
        <time>2019-01-18T21:29:03Z</time>
      </trkpt>
      <trkpt lat="43.0535" lon="-0.00415">
        <ele>473</ele>
        <time>2019-01-18T21:30:03Z</time>
      </trkpt>
      <trkpt lat="43.05365" lon="-0.0044">
        <ele>474</ele>
        <time>2019-01-18T21:31:03Z</time>
      </trkpt>
      <trkpt lat="43.05375" lon="-0.00462">
        <ele>475</ele>
        <time>2019-01-18T21:32:03Z</time>
      </trkpt>
      <trkpt lat="43.05386" lon="-0.00497">
        <ele>474</ele>
        <time>2019-01-18T21:33:03Z</time>
      </trkpt>
      <trkpt lat="43.05387" lon="-0.00504">
        <ele>473</ele>
        <time>2019-01-18T21:34:03Z</time>
      </trkpt>
      <trkpt lat="43.05378" lon="-0.00507">
        <ele>472</ele>
        <time>2019-01-18T21:35:03Z</time>
      </trkpt>
      <trkpt lat="43.05377" lon="-0.00517">
        <ele>472</ele>
        <time>2019-01-18T21:36:03Z</time>
      </trkpt>
      <trkpt lat="43.05378" lon="-0.00507">
        <ele>472</ele>
        <time>2019-01-18T21:37:03Z</time>
      </trkpt>
      <trkpt lat="43.05387" lon="-0.00504">
        <ele>473</ele>
        <time>2019-01-18T21:38:03Z</time>
      </trkpt>
      <trkpt lat="43.05394" lon="-0.00549">
        <ele>474</ele>
        <time>2019-01-18T21:39:03Z</time>
      </trkpt>
      <trkpt lat="43.05405" lon="-0.00607">
        <ele>474</ele>
        <time>2019-01-18T21:40:03Z</time>
      </trkpt>
      <trkpt lat="43.05409" lon="-0.00644">
        <ele>473</ele>
        <time>2019-01-18T21:41:03Z</time>
      </trkpt>
      <trkpt lat="43.05408" lon="-0.00658">
        <ele>472</ele>
        <time>2019-01-18T21:42:03Z</time>
      </trkpt>
      <trkpt lat="43.05379" lon="-0.00775">
        <ele>467</ele>
        <time>2019-01-18T21:43:03Z</time>
      </trkpt>
      <trkpt lat="43.05378" lon="-0.00807">
        <ele>467</ele>
        <time>2019-01-18T21:44:03Z</time>
      </trkpt>
      <trkpt lat="43.05379" lon="-0.00875">
        <ele>470</ele>
        <time>2019-01-18T21:45:03Z</time>
      </trkpt>
      <trkpt lat="43.05385" lon="-0.00945">
        <ele>473</ele>
        <time>2019-01-18T21:46:03Z</time>
      </trkpt>
      <trkpt lat="43.05409" lon="-0.01077">
        <ele>472</ele>
        <time>2019-01-18T21:47:03Z</time>
      </trkpt>
      <trkpt lat="43.0542" lon="-0.01185">
        <ele>467</ele>
        <time>2019-01-18T21:48:03Z</time>
      </trkpt>
      <trkpt lat="43.05428" lon="-0.01227">
        <ele>468</ele>
        <time>2019-01-18T21:49:03Z</time>
      </trkpt>
      <trkpt lat="43.05434" lon="-0.01242">
        <ele>469</ele>
        <time>2019-01-18T21:50:03Z</time>
      </trkpt>
      <trkpt lat="43.05446" lon="-0.01259">
        <ele>471</ele>
        <time>2019-01-18T21:51:03Z</time>
      </trkpt>
      <trkpt lat="43.05457" lon="-0.01274">
        <ele>472</ele>
        <time>2019-01-18T21:52:03Z</time>
      </trkpt>
      <trkpt lat="43.05483" lon="-0.01303">
        <ele>470</ele>
        <time>2019-01-18T21:53:03Z</time>
      </trkpt>
      <trkpt lat="43.05515" lon="-0.01329">
        <ele>466</ele>
        <time>2019-01-18T21:54:03Z</time>
      </trkpt>
      <trkpt lat="43.05559" lon="-0.01352">
        <ele>470</ele>
        <time>2019-01-18T21:55:03Z</time>
      </trkpt>
      <trkpt lat="43.05565" lon="-0.01359">
        <ele>470</ele>
        <time>2019-01-18T21:56:03Z</time>
      </trkpt>
      <trkpt lat="43.05582" lon="-0.01393">
        <ele>465</ele>
        <time>2019-01-18T21:57:03Z</time>
      </trkpt>
      <trkpt lat="43.05613" lon="-0.01474">
        <ele>466</ele>
        <time>2019-01-18T21:58:03Z</time>
      </trkpt>
      <trkpt lat="43.05653" lon="-0.01591">
        <ele>462</ele>
        <time>2019-01-18T21:59:03Z</time>
      </trkpt>
      <trkpt lat="43.05663" lon="-0.01638">
        <ele>459</ele>
        <time>2019-01-18T22:00:03Z</time>
      </trkpt>
      <trkpt lat="43.05667" lon="-0.01655">
        <ele>458</ele>
        <time>2019-01-18T22:01:03Z</time>
      </trkpt>
      <trkpt lat="43.05669" lon="-0.01725">
        <ele>453</ele>
        <time>2019-01-18T22:02:03Z</time>
      </trkpt>
      <trkpt lat="43.05672" lon="-0.01745">
        <ele>453</ele>
        <time>2019-01-18T22:03:03Z</time>
      </trkpt>
      <trkpt lat="43.05683" lon="-0.01775">
        <ele>460</ele>
        <time>2019-01-18T22:04:03Z</time>
      </trkpt>
      <trkpt lat="43.05695" lon="-0.01801">
        <ele>465</ele>
        <time>2019-01-18T22:05:03Z</time>
      </trkpt>
      <trkpt lat="43.05718" lon="-0.01836">
        <ele>468</ele>
        <time>2019-01-18T22:06:03Z</time>
      </trkpt>
      <trkpt lat="43.05728" lon="-0.01855">
        <ele>468</ele>
        <time>2019-01-18T22:07:03Z</time>
      </trkpt>
      <trkpt lat="43.05733" lon="-0.01867">
        <ele>467</ele>
        <time>2019-01-18T22:08:03Z</time>
      </trkpt>
      <trkpt lat="43.05741" lon="-0.01895">
        <ele>464</ele>
        <time>2019-01-18T22:09:03Z</time>
      </trkpt>
      <trkpt lat="43.0574" lon="-0.01918">
        <ele>460</ele>
        <time>2019-01-18T22:10:03Z</time>
      </trkpt>
      <trkpt lat="43.05728" lon="-0.02009">
        <ele>453</ele>
        <time>2019-01-18T22:11:03Z</time>
      </trkpt>
      <trkpt lat="43.05729" lon="-0.02035">
        <ele>453</ele>
        <time>2019-01-18T22:12:03Z</time>
      </trkpt>
      <trkpt lat="43.05731" lon="-0.02042">
        <ele>452</ele>
        <time>2019-01-18T22:13:03Z</time>
      </trkpt>
      <trkpt lat="43.05742" lon="-0.02054">
        <ele>448</ele>
        <time>2019-01-18T22:14:03Z</time>
      </trkpt>
      <trkpt lat="43.05763" lon="-0.02073">
        <ele>448</ele>
        <time>2019-01-18T22:15:03Z</time>
      </trkpt>
      <trkpt lat="43.05776" lon="-0.02083">
        <ele>450</ele>
        <time>2019-01-18T22:16:03Z</time>
      </trkpt>
      <trkpt lat="43.05803" lon="-0.02111">
        <ele>452</ele>
        <time>2019-01-18T22:17:03Z</time>
      </trkpt>
      <trkpt lat="43.05865" lon="-0.02193">
        <ele>447</ele>
        <time>2019-01-18T22:18:03Z</time>
      </trkpt>
      <trkpt lat="43.05879" lon="-0.02237">
        <ele>447</ele>
        <time>2019-01-18T22:19:03Z</time>
      </trkpt>
      <trkpt lat="43.05883" lon="-0.02278">
        <ele>445</ele>
        <time>2019-01-18T22:20:03Z</time>
      </trkpt>
      <trkpt lat="43.05885" lon="-0.02327">
        <ele>443</ele>
        <time>2019-01-18T22:21:03Z</time>
      </trkpt>
      <trkpt lat="43.05882" lon="-0.02365">
        <ele>440</ele>
        <time>2019-01-18T22:22:03Z</time>
      </trkpt>
      <trkpt lat="43.05882" lon="-0.02403">
        <ele>438</ele>
        <time>2019-01-18T22:23:03Z</time>
      </trkpt>
      <trkpt lat="43.05887" lon="-0.02431">
        <ele>436</ele>
        <time>2019-01-18T22:24:03Z</time>
      </trkpt>
      <trkpt lat="43.05898" lon="-0.02485">
        <ele>433</ele>
        <time>2019-01-18T22:25:03Z</time>
      </trkpt>
      <trkpt lat="43.05906" lon="-0.02556">
        <ele>431</ele>
        <time>2019-01-18T22:26:03Z</time>
      </trkpt>
      <trkpt lat="43.05912" lon="-0.02584">
        <ele>429</ele>
        <time>2019-01-18T22:27:03Z</time>
      </trkpt>
      <trkpt lat="43.05923" lon="-0.026">
        <ele>431</ele>
        <time>2019-01-18T22:28:03Z</time>
      </trkpt>
      <trkpt lat="43.05935" lon="-0.02612">
        <ele>434</ele>
        <time>2019-01-18T22:29:03Z</time>
      </trkpt>
      <trkpt lat="43.05974" lon="-0.02636">
        <ele>440</ele>
        <time>2019-01-18T22:30:03Z</time>
      </trkpt>
      <trkpt lat="43.05988" lon="-0.0265">
        <ele>439</ele>
        <time>2019-01-18T22:31:03Z</time>
      </trkpt>
      <trkpt lat="43.06005" lon="-0.0267">
        <ele>439</ele>
        <time>2019-01-18T22:32:03Z</time>
      </trkpt>
      <trkpt lat="43.06017" lon="-0.0269">
        <ele>441</ele>
        <time>2019-01-18T22:33:03Z</time>
      </trkpt>
      <trkpt lat="43.06057" lon="-0.02784">
        <ele>439</ele>
        <time>2019-01-18T22:34:03Z</time>
      </trkpt>
      <trkpt lat="43.06068" lon="-0.02799">
        <ele>437</ele>
        <time>2019-01-18T22:35:03Z</time>
      </trkpt>
      <trkpt lat="43.06079" lon="-0.02809">
        <ele>434</ele>
        <time>2019-01-18T22:36:03Z</time>
      </trkpt>
      <trkpt lat="43.06111" lon="-0.02824">
        <ele>435</ele>
        <time>2019-01-18T22:37:03Z</time>
      </trkpt>
      <trkpt lat="43.06159" lon="-0.02832">
        <ele>439</ele>
        <time>2019-01-18T22:38:03Z</time>
      </trkpt>
      <trkpt lat="43.06168" lon="-0.02836">
        <ele>440</ele>
        <time>2019-01-18T22:39:03Z</time>
      </trkpt>
      <trkpt lat="43.06192" lon="-0.02858">
        <ele>442</ele>
        <time>2019-01-18T22:40:03Z</time>
      </trkpt>
      <trkpt lat="43.06216" lon="-0.02886">
        <ele>442</ele>
        <time>2019-01-18T22:41:03Z</time>
      </trkpt>
      <trkpt lat="43.06229" lon="-0.02908">
        <ele>439</ele>
        <time>2019-01-18T22:42:03Z</time>
      </trkpt>
      <trkpt lat="43.06251" lon="-0.02961">
        <ele>431</ele>
        <time>2019-01-18T22:43:03Z</time>
      </trkpt>
      <trkpt lat="43.06273" lon="-0.02985">
        <ele>432</ele>
        <time>2019-01-18T22:44:03Z</time>
      </trkpt>
      <trkpt lat="43.06294" lon="-0.03011">
        <ele>433</ele>
        <time>2019-01-18T22:45:03Z</time>
      </trkpt>
      <trkpt lat="43.06325" lon="-0.03051">
        <ele>430</ele>
        <time>2019-01-18T22:46:03Z</time>
      </trkpt>
      <trkpt lat="43.0635" lon="-0.03088">
        <ele>428</ele>
        <time>2019-01-18T22:47:03Z</time>
      </trkpt>
      <trkpt lat="43.06391" lon="-0.0316">
        <ele>431</ele>
        <time>2019-01-18T22:48:03Z</time>
      </trkpt>
      <trkpt lat="43.06407" lon="-0.03193">
        <ele>430</ele>
        <time>2019-01-18T22:49:03Z</time>
      </trkpt>
      <trkpt lat="43.06415" lon="-0.03223">
        <ele>426</ele>
        <time>2019-01-18T22:50:03Z</time>
      </trkpt>
      <trkpt lat="43.06426" lon="-0.03287">
        <ele>424</ele>
        <time>2019-01-18T22:51:03Z</time>
      </trkpt>
      <trkpt lat="43.06441" lon="-0.03343">
        <ele>424</ele>
        <time>2019-01-18T22:52:03Z</time>
      </trkpt>
      <trkpt lat="43.06456" lon="-0.03382">
        <ele>425</ele>
        <time>2019-01-18T22:53:03Z</time>
      </trkpt>
      <trkpt lat="43.06469" lon="-0.03404">
        <ele>423</ele>
        <time>2019-01-18T22:54:03Z</time>
      </trkpt>
      <trkpt lat="43.0647" lon="-0.03409">
        <ele>423</ele>
        <time>2019-01-18T22:55:03Z</time>
      </trkpt>
      <trkpt lat="43.06466" lon="-0.03426">
        <ele>423</ele>
        <time>2019-01-18T22:56:03Z</time>
      </trkpt>
      <trkpt lat="43.06471" lon="-0.03438">
        <ele>424</ele>
        <time>2019-01-18T22:57:03Z</time>
      </trkpt>
      <trkpt lat="43.06527" lon="-0.03501">
        <ele>420</ele>
        <time>2019-01-18T22:58:03Z</time>
      </trkpt>
      <trkpt lat="43.06554" lon="-0.03539">
        <ele>420</ele>
        <time>2019-01-18T22:59:03Z</time>
      </trkpt>
      <trkpt lat="43.06569" lon="-0.0357">
        <ele>417</ele>
        <time>2019-01-18T23:00:03Z</time>
      </trkpt>
      <trkpt lat="43.06599" lon="-0.03619">
        <ele>415</ele>
        <time>2019-01-18T23:01:03Z</time>
      </trkpt>
      <trkpt lat="43.06622" lon="-0.03642">
        <ele>415</ele>
        <time>2019-01-18T23:02:03Z</time>
      </trkpt>
      <trkpt lat="43.06683" lon="-0.03686">
        <ele>412</ele>
        <time>2019-01-18T23:03:03Z</time>
      </trkpt>
      <trkpt lat="43.06686" lon="-0.03692">
        <ele>412</ele>
        <time>2019-01-18T23:04:03Z</time>
      </trkpt>
      <trkpt lat="43.06687" lon="-0.03699">
        <ele>411</ele>
        <time>2019-01-18T23:05:03Z</time>
      </trkpt>
      <trkpt lat="43.06686" lon="-0.03706">
        <ele>410</ele>
        <time>2019-01-18T23:06:03Z</time>
      </trkpt>
      <trkpt lat="43.06672" lon="-0.03739">
        <ele>402</ele>
        <time>2019-01-18T23:07:03Z</time>
      </trkpt>
      <trkpt lat="43.06669" lon="-0.03747">
        <ele>401</ele>
        <time>2019-01-18T23:08:03Z</time>
      </trkpt>
      <trkpt lat="43.06706" lon="-0.03793">
        <ele>405</ele>
        <time>2019-01-18T23:09:03Z</time>
      </trkpt>
      <trkpt lat="43.06706" lon="-0.03803">
        <ele>404</ele>
        <time>2019-01-18T23:10:03Z</time>
      </trkpt>
      <trkpt lat="43.06692" lon="-0.03832">
        <ele>403</ele>
        <time>2019-01-18T23:11:03Z</time>
      </trkpt>
      <trkpt lat="43.0669" lon="-0.03842">
        <ele>402</ele>
        <time>2019-01-18T23:12:03Z</time>
      </trkpt>
      <trkpt lat="43.0669" lon="-0.03858">
        <ele>401</ele>
        <time>2019-01-18T23:13:03Z</time>
      </trkpt>
      <trkpt lat="43.06697" lon="-0.03871">
        <ele>401</ele>
        <time>2019-01-18T23:14:03Z</time>
      </trkpt>
      <trkpt lat="43.06714" lon="-0.03892">
        <ele>401</ele>
        <time>2019-01-18T23:15:03Z</time>
      </trkpt>
      <trkpt lat="43.06739" lon="-0.03918">
        <ele>400</ele>
        <time>2019-01-18T23:16:03Z</time>
      </trkpt>
      <trkpt lat="43.06749" lon="-0.03922">
        <ele>399</ele>
        <time>2019-01-18T23:17:03Z</time>
      </trkpt>
      <trkpt lat="43.06763" lon="-0.03921">
        <ele>401</ele>
        <time>2019-01-18T23:18:03Z</time>
      </trkpt>
      <trkpt lat="43.06802" lon="-0.03908">
        <ele>407</ele>
        <time>2019-01-18T23:19:03Z</time>
      </trkpt>
      <trkpt lat="43.06809" lon="-0.03908">
        <ele>408</ele>
        <time>2019-01-18T23:20:03Z</time>
      </trkpt>
      <trkpt lat="43.06816" lon="-0.03911">
        <ele>409</ele>
        <time>2019-01-18T23:21:03Z</time>
      </trkpt>
      <trkpt lat="43.0683" lon="-0.03921">
        <ele>409</ele>
        <time>2019-01-18T23:22:03Z</time>
      </trkpt>
      <trkpt lat="43.06837" lon="-0.03932">
        <ele>409</ele>
        <time>2019-01-18T23:23:03Z</time>
      </trkpt>
      <trkpt lat="43.06846" lon="-0.03958">
        <ele>408</ele>
        <time>2019-01-18T23:24:03Z</time>
      </trkpt>
      <trkpt lat="43.06862" lon="-0.04023">
        <ele>400</ele>
        <time>2019-01-18T23:25:03Z</time>
      </trkpt>
      <trkpt lat="43.06867" lon="-0.04034">
        <ele>400</ele>
        <time>2019-01-18T23:26:03Z</time>
      </trkpt>
      <trkpt lat="43.06886" lon="-0.04059">
        <ele>398</ele>
        <time>2019-01-18T23:27:03Z</time>
      </trkpt>
      <trkpt lat="43.0683" lon="-0.0414">
        <ele>390</ele>
        <time>2019-01-18T23:28:03Z</time>
      </trkpt>
      <trkpt lat="43.06818" lon="-0.04176">
        <ele>390</ele>
        <time>2019-01-18T23:29:03Z</time>
      </trkpt>
      <trkpt lat="43.06795" lon="-0.04266">
        <ele>401</ele>
        <time>2019-01-18T23:30:03Z</time>
      </trkpt>
      <trkpt lat="43.06756" lon="-0.04236">
        <ele>396</ele>
        <time>2019-01-18T23:31:03Z</time>
      </trkpt>
      <trkpt lat="43.06743" lon="-0.04228">
        <ele>395</ele>
        <time>2019-01-18T23:32:03Z</time>
      </trkpt>
      <trkpt lat="43.0673" lon="-0.04227">
        <ele>395</ele>
        <time>2019-01-18T23:33:03Z</time>
      </trkpt>
      <trkpt lat="43.06725" lon="-0.04229">
        <ele>394</ele>
        <time>2019-01-18T23:34:03Z</time>
      </trkpt>
      <trkpt lat="43.06714" lon="-0.04241">
        <ele>395</ele>
        <time>2019-01-18T23:35:03Z</time>
      </trkpt>
      <trkpt lat="43.06686" lon="-0.04281">
        <ele>398</ele>
        <time>2019-01-18T23:36:03Z</time>
      </trkpt>
      <trkpt lat="43.06673" lon="-0.04304">
        <ele>400</ele>
        <time>2019-01-18T23:37:03Z</time>
      </trkpt>
      <trkpt lat="43.0666" lon="-0.04337">
        <ele>402</ele>
        <time>2019-01-18T23:38:03Z</time>
      </trkpt>
      <trkpt lat="43.06655" lon="-0.04356">
        <ele>404</ele>
        <time>2019-01-18T23:39:03Z</time>
      </trkpt>
      <trkpt lat="43.0664" lon="-0.0438">
        <ele>406</ele>
        <time>2019-01-18T23:40:03Z</time>
      </trkpt>
      <trkpt lat="43.06619" lon="-0.04394">
        <ele>406</ele>
        <time>2019-01-18T23:41:03Z</time>
      </trkpt>
      <trkpt lat="43.0661" lon="-0.04397">
        <ele>405</ele>
        <time>2019-01-18T23:42:03Z</time>
      </trkpt>
      <trkpt lat="43.06588" lon="-0.04396">
        <ele>403</ele>
        <time>2019-01-18T23:43:03Z</time>
      </trkpt>
      <trkpt lat="43.06545" lon="-0.04377">
        <ele>404</ele>
        <time>2019-01-18T23:44:03Z</time>
      </trkpt>
      <trkpt lat="43.06518" lon="-0.04355">
        <ele>402</ele>
        <time>2019-01-18T23:45:03Z</time>
      </trkpt>
      <trkpt lat="43.06484" lon="-0.0432">
        <ele>405</ele>
        <time>2019-01-18T23:46:03Z</time>
      </trkpt>
      <trkpt lat="43.0643" lon="-0.04258">
        <ele>409</ele>
        <time>2019-01-18T23:47:03Z</time>
      </trkpt>
      <trkpt lat="43.06422" lon="-0.04252">
        <ele>409</ele>
        <time>2019-01-18T23:48:03Z</time>
      </trkpt>
      <trkpt lat="43.06415" lon="-0.04249">
        <ele>409</ele>
        <time>2019-01-18T23:49:03Z</time>
      </trkpt>
      <trkpt lat="43.06403" lon="-0.04248">
        <ele>409</ele>
        <time>2019-01-18T23:50:03Z</time>
      </trkpt>
      <trkpt lat="43.06385" lon="-0.04253">
        <ele>411</ele>
        <time>2019-01-18T23:51:03Z</time>
      </trkpt>
      <trkpt lat="43.06322" lon="-0.0428">
        <ele>426</ele>
        <time>2019-01-18T23:52:03Z</time>
      </trkpt>
      <trkpt lat="43.06287" lon="-0.04292">
        <ele>430</ele>
        <time>2019-01-18T23:53:03Z</time>
      </trkpt>
      <trkpt lat="43.06255" lon="-0.04294">
        <ele>430</ele>
        <time>2019-01-18T23:54:03Z</time>
      </trkpt>
      <trkpt lat="43.06209" lon="-0.04308">
        <ele>427</ele>
        <time>2019-01-18T23:55:03Z</time>
      </trkpt>
      <trkpt lat="43.0618" lon="-0.04324">
        <ele>426</ele>
        <time>2019-01-18T23:56:03Z</time>
      </trkpt>
      <trkpt lat="43.06154" lon="-0.04343">
        <ele>426</ele>
        <time>2019-01-18T23:57:03Z</time>
      </trkpt>
      <trkpt lat="43.06127" lon="-0.04367">
        <ele>429</ele>
        <time>2019-01-18T23:58:03Z</time>
      </trkpt>
      <trkpt lat="43.06038" lon="-0.04455">
        <ele>429</ele>
        <time>2019-01-18T23:59:03Z</time>
      </trkpt>
      <trkpt lat="43.05899" lon="-0.04602">
        <ele>431</ele>
        <time>2019-01-19T00:00:03Z</time>
      </trkpt>
      <trkpt lat="43.05856" lon="-0.04641">
        <ele>428</ele>
        <time>2019-01-19T00:01:03Z</time>
      </trkpt>
      <trkpt lat="43.05829" lon="-0.04665">
        <ele>424</ele>
        <time>2019-01-19T00:02:03Z</time>
      </trkpt>
      <trkpt lat="43.05772" lon="-0.047">
        <ele>428</ele>
        <time>2019-01-19T00:03:03Z</time>
      </trkpt>
      <trkpt lat="43.05744" lon="-0.04721">
        <ele>430</ele>
        <time>2019-01-19T00:04:03Z</time>
      </trkpt>
      <trkpt lat="43.05701" lon="-0.04772">
        <ele>437</ele>
        <time>2019-01-19T00:05:03Z</time>
      </trkpt>
      <trkpt lat="43.05688" lon="-0.04783">
        <ele>438</ele>
        <time>2019-01-19T00:06:03Z</time>
      </trkpt>
      <trkpt lat="43.05674" lon="-0.04793">
        <ele>439</ele>
        <time>2019-01-19T00:07:03Z</time>
      </trkpt>
      <trkpt lat="43.05625" lon="-0.04813">
        <ele>434</ele>
        <time>2019-01-19T00:08:03Z</time>
      </trkpt>
      <trkpt lat="43.05612" lon="-0.04821">
        <ele>433</ele>
        <time>2019-01-19T00:09:03Z</time>
      </trkpt>
      <trkpt lat="43.05574" lon="-0.04861">
        <ele>434</ele>
        <time>2019-01-19T00:10:03Z</time>
      </trkpt>
      <trkpt lat="43.05529" lon="-0.04918">
        <ele>433</ele>
        <time>2019-01-19T00:11:03Z</time>
      </trkpt>
      <trkpt lat="43.05512" lon="-0.04934">
        <ele>430</ele>
        <time>2019-01-19T00:12:03Z</time>
      </trkpt>
      <trkpt lat="43.05479" lon="-0.04955">
        <ele>424</ele>
        <time>2019-01-19T00:13:03Z</time>
      </trkpt>
      <trkpt lat="43.0546" lon="-0.04974">
        <ele>423</ele>
        <time>2019-01-19T00:14:03Z</time>
      </trkpt>
      <trkpt lat="43.05408" lon="-0.05045">
        <ele>425</ele>
        <time>2019-01-19T00:15:03Z</time>
      </trkpt>
      <trkpt lat="43.05316" lon="-0.05137">
        <ele>416</ele>
        <time>2019-01-19T00:16:03Z</time>
      </trkpt>
      <trkpt lat="43.05285" lon="-0.05193">
        <ele>419</ele>
        <time>2019-01-19T00:17:03Z</time>
      </trkpt>
      <trkpt lat="43.05278" lon="-0.05213">
        <ele>420</ele>
        <time>2019-01-19T00:18:03Z</time>
      </trkpt>
      <trkpt lat="43.05268" lon="-0.05231">
        <ele>420</ele>
        <time>2019-01-19T00:19:03Z</time>
      </trkpt>
      <trkpt lat="43.05254" lon="-0.05247">
        <ele>417</ele>
        <time>2019-01-19T00:20:03Z</time>
      </trkpt>
      <trkpt lat="43.05168" lon="-0.05318">
        <ele>408</ele>
        <time>2019-01-19T00:21:03Z</time>
      </trkpt>
      <trkpt lat="43.05143" lon="-0.05345">
        <ele>410</ele>
        <time>2019-01-19T00:22:03Z</time>
      </trkpt>
      <trkpt lat="43.05036" lon="-0.0547">
        <ele>426</ele>
        <time>2019-01-19T00:23:03Z</time>
      </trkpt>
      <trkpt lat="43.05003" lon="-0.05513">
        <ele>424</ele>
        <time>2019-01-19T00:24:03Z</time>
      </trkpt>
      <trkpt lat="43.04892" lon="-0.0571">
        <ele>429</ele>
        <time>2019-01-19T00:25:03Z</time>
      </trkpt>
      <trkpt lat="43.04871" lon="-0.05738">
        <ele>426</ele>
        <time>2019-01-19T00:26:03Z</time>
      </trkpt>
      <trkpt lat="43.04847" lon="-0.05766">
        <ele>419</ele>
        <time>2019-01-19T00:27:03Z</time>
      </trkpt>
      <trkpt lat="43.04768" lon="-0.05843">
        <ele>415</ele>
        <time>2019-01-19T00:28:03Z</time>
      </trkpt>
      <trkpt lat="43.04592" lon="-0.06019">
        <ele>414</ele>
        <time>2019-01-19T00:29:03Z</time>
      </trkpt>
      <trkpt lat="43.04384" lon="-0.06214">
        <ele>416</ele>
        <time>2019-01-19T00:30:03Z</time>
      </trkpt>
      <trkpt lat="43.04353" lon="-0.06254">
        <ele>416</ele>
        <time>2019-01-19T00:31:03Z</time>
      </trkpt>
      <trkpt lat="43.04297" lon="-0.06341">
        <ele>415</ele>
        <time>2019-01-19T00:32:03Z</time>
      </trkpt>
      <trkpt lat="43.04273" lon="-0.06372">
        <ele>412</ele>
        <time>2019-01-19T00:33:03Z</time>
      </trkpt>
      <trkpt lat="43.0424" lon="-0.06406">
        <ele>408</ele>
        <time>2019-01-19T00:34:03Z</time>
      </trkpt>
      <trkpt lat="43.04162" lon="-0.06454">
        <ele>408</ele>
        <time>2019-01-19T00:35:03Z</time>
      </trkpt>
      <trkpt lat="43.04125" lon="-0.06479">
        <ele>409</ele>
        <time>2019-01-19T00:36:03Z</time>
      </trkpt>
      <trkpt lat="43.04112" lon="-0.06493">
        <ele>410</ele>
        <time>2019-01-19T00:37:03Z</time>
      </trkpt>
      <trkpt lat="43.04102" lon="-0.06506">
        <ele>411</ele>
        <time>2019-01-19T00:38:03Z</time>
      </trkpt>
      <trkpt lat="43.04094" lon="-0.06525">
        <ele>413</ele>
        <time>2019-01-19T00:39:03Z</time>
      </trkpt>
      <trkpt lat="43.04093" lon="-0.06538">
        <ele>414</ele>
        <time>2019-01-19T00:40:03Z</time>
      </trkpt>
      <trkpt lat="43.04088" lon="-0.06554">
        <ele>416</ele>
        <time>2019-01-19T00:41:03Z</time>
      </trkpt>
      <trkpt lat="43.04077" lon="-0.06565">
        <ele>415</ele>
        <time>2019-01-19T00:42:03Z</time>
      </trkpt>
      <trkpt lat="43.04057" lon="-0.0657">
        <ele>412</ele>
        <time>2019-01-19T00:43:03Z</time>
      </trkpt>
      <trkpt lat="43.04053" lon="-0.06576">
        <ele>412</ele>
        <time>2019-01-19T00:44:03Z</time>
      </trkpt>
      <trkpt lat="43.0405" lon="-0.06589">
        <ele>412</ele>
        <time>2019-01-19T00:45:03Z</time>
      </trkpt>
      <trkpt lat="43.04046" lon="-0.06596">
        <ele>411</ele>
        <time>2019-01-19T00:46:03Z</time>
      </trkpt>
      <trkpt lat="43.04035" lon="-0.06605">
        <ele>409</ele>
        <time>2019-01-19T00:47:03Z</time>
      </trkpt>
      <trkpt lat="43.04028" lon="-0.06615">
        <ele>407</ele>
        <time>2019-01-19T00:48:03Z</time>
      </trkpt>
      <trkpt lat="43.04025" lon="-0.06633">
        <ele>407</ele>
        <time>2019-01-19T00:49:03Z</time>
      </trkpt>
      <trkpt lat="43.04022" lon="-0.0664">
        <ele>406</ele>
        <time>2019-01-19T00:50:03Z</time>
      </trkpt>
      <trkpt lat="43.03988" lon="-0.06699">
        <ele>401</ele>
        <time>2019-01-19T00:51:03Z</time>
      </trkpt>
      <trkpt lat="43.03981" lon="-0.06704">
        <ele>401</ele>
        <time>2019-01-19T00:52:03Z</time>
      </trkpt>
      <trkpt lat="43.0396" lon="-0.06727">
        <ele>402</ele>
        <time>2019-01-19T00:53:03Z</time>
      </trkpt>
      <trkpt lat="43.03858" lon="-0.06812">
        <ele>400</ele>
        <time>2019-01-19T00:54:03Z</time>
      </trkpt>
      <trkpt lat="43.03751" lon="-0.0689">
        <ele>406</ele>
        <time>2019-01-19T00:55:03Z</time>
      </trkpt>
      <trkpt lat="43.03737" lon="-0.06905">
        <ele>407</ele>
        <time>2019-01-19T00:56:03Z</time>
      </trkpt>
      <trkpt lat="43.03715" lon="-0.06934">
        <ele>408</ele>
        <time>2019-01-19T00:57:03Z</time>
      </trkpt>
      <trkpt lat="43.03701" lon="-0.06948">
        <ele>408</ele>
        <time>2019-01-19T00:58:03Z</time>
      </trkpt>
      <trkpt lat="43.03549" lon="-0.07074">
        <ele>405</ele>
        <time>2019-01-19T00:59:03Z</time>
      </trkpt>
      <trkpt lat="43.03466" lon="-0.07141">
        <ele>406</ele>
        <time>2019-01-19T01:00:03Z</time>
      </trkpt>
      <trkpt lat="43.03198" lon="-0.07367">
        <ele>409</ele>
        <time>2019-01-19T01:01:03Z</time>
      </trkpt>
      <trkpt lat="43.0318" lon="-0.07391">
        <ele>410</ele>
        <time>2019-01-19T01:02:03Z</time>
      </trkpt>
      <trkpt lat="43.03007" lon="-0.07733">
        <ele>421</ele>
        <time>2019-01-19T01:03:03Z</time>
      </trkpt>
      <trkpt lat="43.02975" lon="-0.07806">
        <ele>425</ele>
        <time>2019-01-19T01:04:03Z</time>
      </trkpt>
      <trkpt lat="43.02966" lon="-0.0784">
        <ele>424</ele>
        <time>2019-01-19T01:05:03Z</time>
      </trkpt>
      <trkpt lat="43.02965" lon="-0.07851">
        <ele>424</ele>
        <time>2019-01-19T01:06:03Z</time>
      </trkpt>
      <trkpt lat="43.02967" lon="-0.07873">
        <ele>423</ele>
        <time>2019-01-19T01:07:03Z</time>
      </trkpt>
      <trkpt lat="43.02995" lon="-0.08">
        <ele>421</ele>
        <time>2019-01-19T01:08:03Z</time>
      </trkpt>
      <trkpt lat="43.02998" lon="-0.08021">
        <ele>420</ele>
        <time>2019-01-19T01:09:03Z</time>
      </trkpt>
      <trkpt lat="43.02991" lon="-0.08346">
        <ele>417</ele>
        <time>2019-01-19T01:10:03Z</time>
      </trkpt>
      <trkpt lat="43.02991" lon="-0.08368">
        <ele>417</ele>
        <time>2019-01-19T01:11:03Z</time>
      </trkpt>
      <trkpt lat="43.02997" lon="-0.08406">
        <ele>419</ele>
        <time>2019-01-19T01:12:03Z</time>
      </trkpt>
      <trkpt lat="43.03013" lon="-0.08497">
        <ele>419</ele>
        <time>2019-01-19T01:13:03Z</time>
      </trkpt>
      <trkpt lat="43.03018" lon="-0.0853">
        <ele>419</ele>
        <time>2019-01-19T01:14:03Z</time>
      </trkpt>
      <trkpt lat="43.03017" lon="-0.08561">
        <ele>418</ele>
        <time>2019-01-19T01:15:03Z</time>
      </trkpt>
      <trkpt lat="43.0299" lon="-0.08705">
        <ele>422</ele>
        <time>2019-01-19T01:16:03Z</time>
      </trkpt>
      <trkpt lat="43.02933" lon="-0.08987">
        <ele>426</ele>
        <time>2019-01-19T01:17:03Z</time>
      </trkpt>
      <trkpt lat="43.02927" lon="-0.09012">
        <ele>426</ele>
        <time>2019-01-19T01:18:03Z</time>
      </trkpt>
      <trkpt lat="43.02916" lon="-0.0905">
        <ele>427</ele>
        <time>2019-01-19T01:19:03Z</time>
      </trkpt>
      <trkpt lat="43.02902" lon="-0.09082">
        <ele>427</ele>
        <time>2019-01-19T01:20:03Z</time>
      </trkpt>
      <trkpt lat="43.02878" lon="-0.09121">
        <ele>427</ele>
        <time>2019-01-19T01:21:03Z</time>
      </trkpt>
      <trkpt lat="43.02858" lon="-0.09146">
        <ele>427</ele>
        <time>2019-01-19T01:22:03Z</time>
      </trkpt>
      <trkpt lat="43.02791" lon="-0.09218">
        <ele>429</ele>
        <time>2019-01-19T01:23:03Z</time>
      </trkpt>
      <trkpt lat="43.02741" lon="-0.09266">
        <ele>430</ele>
        <time>2019-01-19T01:24:03Z</time>
      </trkpt>
      <trkpt lat="43.02612" lon="-0.0936">
        <ele>430</ele>
        <time>2019-01-19T01:25:03Z</time>
      </trkpt>
      <trkpt lat="43.02562" lon="-0.09399">
        <ele>429</ele>
        <time>2019-01-19T01:26:03Z</time>
      </trkpt>
      <trkpt lat="43.02511" lon="-0.09451">
        <ele>427</ele>
        <time>2019-01-19T01:27:03Z</time>
      </trkpt>
      <trkpt lat="43.02476" lon="-0.09495">
        <ele>428</ele>
        <time>2019-01-19T01:28:03Z</time>
      </trkpt>
      <trkpt lat="43.0239" lon="-0.09616">
        <ele>429</ele>
        <time>2019-01-19T01:29:03Z</time>
      </trkpt>
      <trkpt lat="43.02375" lon="-0.09633">
        <ele>430</ele>
        <time>2019-01-19T01:30:03Z</time>
      </trkpt>
      <trkpt lat="43.02346" lon="-0.09651">
        <ele>430</ele>
        <time>2019-01-19T01:31:03Z</time>
      </trkpt>
      <trkpt lat="43.02312" lon="-0.09661">
        <ele>429</ele>
        <time>2019-01-19T01:32:03Z</time>
      </trkpt>
      <trkpt lat="43.02216" lon="-0.09681">
        <ele>428</ele>
        <time>2019-01-19T01:33:03Z</time>
      </trkpt>
      <trkpt lat="43.02199" lon="-0.09683">
        <ele>428</ele>
        <time>2019-01-19T01:34:03Z</time>
      </trkpt>
      <trkpt lat="43.02147" lon="-0.09684">
        <ele>428</ele>
        <time>2019-01-19T01:35:03Z</time>
      </trkpt>
      <trkpt lat="43.0203" lon="-0.09678">
        <ele>425</ele>
        <time>2019-01-19T01:36:03Z</time>
      </trkpt>
      <trkpt lat="43.01955" lon="-0.0967">
        <ele>423</ele>
        <time>2019-01-19T01:37:03Z</time>
      </trkpt>
      <trkpt lat="43.01923" lon="-0.0967">
        <ele>424</ele>
        <time>2019-01-19T01:38:03Z</time>
      </trkpt>
      <trkpt lat="43.01873" lon="-0.09677">
        <ele>426</ele>
        <time>2019-01-19T01:39:03Z</time>
      </trkpt>
      <trkpt lat="43.0175" lon="-0.09699">
        <ele>432</ele>
        <time>2019-01-19T01:40:03Z</time>
      </trkpt>
      <trkpt lat="43.01395" lon="-0.09788">
        <ele>429</ele>
        <time>2019-01-19T01:41:03Z</time>
      </trkpt>
      <trkpt lat="43.0137" lon="-0.09798">
        <ele>429</ele>
        <time>2019-01-19T01:42:03Z</time>
      </trkpt>
      <trkpt lat="43.01351" lon="-0.09808">
        <ele>430</ele>
        <time>2019-01-19T01:43:03Z</time>
      </trkpt>
      <trkpt lat="43.01352" lon="-0.0982">
        <ele>430</ele>
        <time>2019-01-19T01:44:03Z</time>
      </trkpt>
      <trkpt lat="43.01347" lon="-0.09831">
        <ele>431</ele>
        <time>2019-01-19T01:45:03Z</time>
      </trkpt>
      <trkpt lat="43.01338" lon="-0.09836">
        <ele>432</ele>
        <time>2019-01-19T01:46:03Z</time>
      </trkpt>
      <trkpt lat="43.01329" lon="-0.09833">
        <ele>431</ele>
        <time>2019-01-19T01:47:03Z</time>
      </trkpt>
      <trkpt lat="43.01324" lon="-0.09841">
        <ele>434</ele>
        <time>2019-01-19T01:48:03Z</time>
      </trkpt>
      <trkpt lat="43.01316" lon="-0.0985">
        <ele>437</ele>
        <time>2019-01-19T01:49:03Z</time>
      </trkpt>
      <trkpt lat="43.01307" lon="-0.09852">
        <ele>439</ele>
        <time>2019-01-19T01:50:03Z</time>
      </trkpt>
      <trkpt lat="43.01295" lon="-0.09848">
        <ele>439</ele>
        <time>2019-01-19T01:51:03Z</time>
      </trkpt>
      <trkpt lat="43.01272" lon="-0.09831">
        <ele>436</ele>
        <time>2019-01-19T01:52:03Z</time>
      </trkpt>
      <trkpt lat="43.0126" lon="-0.09827">
        <ele>436</ele>
        <time>2019-01-19T01:53:03Z</time>
      </trkpt>
      <trkpt lat="43.01254" lon="-0.09826">
        <ele>437</ele>
        <time>2019-01-19T01:54:03Z</time>
      </trkpt>
      <trkpt lat="43.0125" lon="-0.0983">
        <ele>438</ele>
        <time>2019-01-19T01:55:03Z</time>
      </trkpt>
      <trkpt lat="43.01178" lon="-0.09856">
        <ele>444</ele>
        <time>2019-01-19T01:56:03Z</time>
      </trkpt>
      <trkpt lat="43.01162" lon="-0.09865">
        <ele>447</ele>
        <time>2019-01-19T01:57:03Z</time>
      </trkpt>
      <trkpt lat="43.01141" lon="-0.09884">
        <ele>451</ele>
        <time>2019-01-19T01:58:03Z</time>
      </trkpt>
      <trkpt lat="43.01102" lon="-0.09948">
        <ele>464</ele>
        <time>2019-01-19T01:59:03Z</time>
      </trkpt>
      <trkpt lat="43.01088" lon="-0.0997">
        <ele>466</ele>
        <time>2019-01-19T02:00:03Z</time>
      </trkpt>
      <trkpt lat="43.01073" lon="-0.0998">
        <ele>467</ele>
        <time>2019-01-19T02:01:03Z</time>
      </trkpt>
      <trkpt lat="43.01068" lon="-0.09982">
        <ele>467</ele>
        <time>2019-01-19T02:02:03Z</time>
      </trkpt>
      <trkpt lat="43.01059" lon="-0.09982">
        <ele>466</ele>
        <time>2019-01-19T02:03:03Z</time>
      </trkpt>
      <trkpt lat="43.01028" lon="-0.09975">
        <ele>464</ele>
        <time>2019-01-19T02:04:03Z</time>
      </trkpt>
      <trkpt lat="43.00944" lon="-0.09948">
        <ele>459</ele>
        <time>2019-01-19T02:05:03Z</time>
      </trkpt>
      <trkpt lat="43.00927" lon="-0.0995">
        <ele>459</ele>
        <time>2019-01-19T02:06:03Z</time>
      </trkpt>
      <trkpt lat="43.00918" lon="-0.09956">
        <ele>459</ele>
        <time>2019-01-19T02:07:03Z</time>
      </trkpt>
      <trkpt lat="43.00915" lon="-0.09965">
        <ele>459</ele>
        <time>2019-01-19T02:08:03Z</time>
      </trkpt>
      <trkpt lat="43.00912" lon="-0.10008">
        <ele>460</ele>
        <time>2019-01-19T02:09:03Z</time>
      </trkpt>
      <trkpt lat="43.00903" lon="-0.10065">
        <ele>463</ele>
        <time>2019-01-19T02:10:03Z</time>
      </trkpt>
      <trkpt lat="43.0089" lon="-0.10085">
        <ele>464</ele>
        <time>2019-01-19T02:11:03Z</time>
      </trkpt>
      <trkpt lat="43.00886" lon="-0.1009">
        <ele>465</ele>
        <time>2019-01-19T02:12:03Z</time>
      </trkpt>
      <trkpt lat="43.0088" lon="-0.10094">
        <ele>465</ele>
        <time>2019-01-19T02:13:03Z</time>
      </trkpt>
      <trkpt lat="43.0072" lon="-0.10112">
        <ele>468</ele>
        <time>2019-01-19T02:14:03Z</time>
      </trkpt>
      <trkpt lat="43.00708" lon="-0.10119">
        <ele>468</ele>
        <time>2019-01-19T02:15:03Z</time>
      </trkpt>
      <trkpt lat="43.00701" lon="-0.10115">
        <ele>468</ele>
        <time>2019-01-19T02:16:03Z</time>
      </trkpt>
      <trkpt lat="43.00684" lon="-0.10115">
        <ele>468</ele>
        <time>2019-01-19T02:17:03Z</time>
      </trkpt>
      <trkpt lat="43.00666" lon="-0.10104">
        <ele>467</ele>
        <time>2019-01-19T02:18:03Z</time>
      </trkpt>
      <trkpt lat="43.00629" lon="-0.10087">
        <ele>466</ele>
        <time>2019-01-19T02:19:03Z</time>
      </trkpt>
      <trkpt lat="43.00585" lon="-0.10069">
        <ele>467</ele>
        <time>2019-01-19T02:20:03Z</time>
      </trkpt>
      <trkpt lat="43.00579" lon="-0.10042">
        <ele>464</ele>
        <time>2019-01-19T02:21:03Z</time>
      </trkpt>
      <trkpt lat="43.00585" lon="-0.10039">
        <ele>464</ele>
        <time>2019-01-19T02:22:03Z</time>
      </trkpt>
      <trkpt lat="43.00584" lon="-0.10031">
        <ele>464</ele>
        <time>2019-01-19T02:23:03Z</time>
      </trkpt>
    </trkseg>
  </trk>
</gpx>